[[{"header":{"parameterUnit":"m.s-1","parameterCategory":1,"la1":31.0,"la2":29.5877,"lo1":-88.7671,"lo2":-86.6584,"dy":0.0162,"dx":0.0185,"nx":115,"ny":88,"refTime":"2023-05-31T06:00:00:Z","depth":0,"parameterNumber":2,"parameterNumberName":"U-component_of_WINDS"},"data":[0.0,0.0,0.0,0.0,0.0,0.0,0.0,0.0,0.0,0.0,0.0,0.0,0.0,0.0,0.0,0.0,0.0,0.0,0.0,0.0,0.0,0.0,0.0,0.0,0.0,0.0,0.0,0.0,0.0,0.0,0.0,0.0,0.0,0.0,0.0,0.0,0.0,0.0,0.0,0.0,0.0,0.0,0.0,0.0,0.0,0.0,0.0,0.0,0.0,0.0,0.0,0.0,0.0,0.0,0.0,0.0,0.0,0.0,0.0,0.0,0.0,0.0,0.0,0.0,0.0,0.0,0.0,0.0,0.0,0.0,0.0,0.0,0.0,0.0,0.0,0.0,0.0,0.0,0.0,0.0,0.0,0.0,0.0,0.0,0.0,0.0,0.0,0.0,0.0,0.0,0.0,0.0,0.0,0.0,0.0,0.0,0.0,0.0,0.0,0.0,0.0,0.0,0.0,0.0,0.0,0.0,0.0,0.0,0.0,0.0,0.0,0.0,0.0,0.0,0.0,0.0,0.0,0.0,0.0,0.0,0.0,0.0,0.0,0.0,0.0,0.0,0.0,0.0,0.0,0.0,0.0,0.0,0.0,0.0,0.0,0.0,0.0,0.0,0.0,0.0,0.0,0.0,0.0,0.0,0.0,0.0,0.0,0.0,0.0,0.0,0.0,0.0,0.0,0.0,0.0,0.0,0.0,0.0,0.0,0.0,0.0,0.0,0.0,0.0,0.0,0.0,0.0,0.0,0.0,0.0,0.0,0.0,0.0,0.0,0.0,0.0,0.0,0.0,0.0,0.0,0.0,0.0,0.0,0.0,0.0,0.0,0.0,0.0,0.0,0.0,0.0,0.0,0.0,0.0,0.0,0.0,0.0,0.0,0.0,0.0,0.0,0.0,0.0,0.0,0.0,0.0,0.0,0.0,0.0,0.0,0.0,0.0,0.0,0.0,0.0,0.0,0.0,0.0,0.0,0.0,0.0,0.0,0.0,0.0,0.0,0.0,0.0,0.0,0.0,0.0,0.0,0.0,0.0,0.0,0.0,0.0,0.0,0.0,0.0,0.0,0.0,0.0,0.0,0.0,0.0,0.0,0.0,0.0,0.0,0.0,0.0,0.0,0.0,0.0,0.0,0.0,0.0,0.0,0.0,0.0,0.0,0.0,0.0,0.0,0.0,0.0,0.0,0.0,0.0,0.0,0.0,0.0,0.0,0.0,0.0,0.0,0.0,0.0,0.0,0.0,0.0,0.0,0.0,0.0,0.0,0.0,0.0,0.0,0.0,0.0,0.0,0.0,0.0,0.0,0.0,0.0,0.0,0.0,0.0,0.0,0.0,0.0,0.0,0.0,0.0,0.0,0.0,0.0,0.0,0.0,0.0,0.0,0.0,0.0,0.0,0.0,0.0,0.0,0.0,0.0,0.0,0.0,0.0,0.0,0.0,0.0,0.0,0.0,0.0,0.0,0.0,0.0,0.0,0.0,0.0,0.0,0.0,0.0,0.0,0.0,0.0,0.0,0.0,0.0,0.0,0.0,0.0,0.0,0.0,0.0,0.0,0.0,0.0,0.0,0.0,0.0,0.0,0.0,0.0,0.0,0.0,0.0,0.0,0.0,0.0,0.0,0.0,0.0,0.0,0.0,0.0,0.0,0.0,0.0,0.0,0.0,0.0,0.0,0.0,0.0,0.0,0.0,0.0,0.0,0.0,0.0,0.0,0.0,0.0,0.0,0.0,0.0,0.0,0.0,0.0,0.0,0.0,0.0,0.0,0.0,0.0,0.0,0.0,0.0,0.0,0.0,0.0,0.0,0.0,0.0,0.0,0.0,0.0,0.0,0.0,0.0,0.0,0.0,0.0,0.0,0.0,0.0,0.0,0.0,0.0,0.0,0.0,0.0,0.0,0.0,0.0,0.0,0.0,0.0,0.0,0.0,0.0,0.0,0.0,0.0,0.0,0.0,0.0,0.0,0.0,0.0,0.0,0.0,0.0,0.0,0.0,0.0,0.0,0.0,0.0,0.0,0.0,0.0,0.0,0.0,0.0,0.0,0.0,0.0,0.0,0.0,0.0,0.0,0.0,0.0,0.0,0.0,0.0,0.0,0.0,0.0,0.0,0.0,0.0,0.0,0.0,0.0,0.0,0.0,0.0,0.0,0.0,0.0,0.0,0.0,0.0,0.0,0.0,0.0,0.0,0.0,0.0,0.0,0.0,0.0,0.0,0.0,0.0,0.0,0.0,0.0,0.0,0.0,0.0,0.0,0.0,0.0,0.0,0.0,0.0,0.0,0.0,0.0,0.0,0.0,0.0,0.0,0.0,0.0,0.0,0.0,0.0,0.0,0.0,0.0,0.0,0.0,0.0,0.0,0.0,0.0,0.0,0.0,0.0,0.0,0.0,0.0,0.0,0.0,0.0,0.0,0.0,0.0,0.0,0.0,0.0,0.0,0.0,0.0,0.0,0.0,0.0,0.0,0.0,0.0,0.0,0.0,0.0,0.0,0.0,0.0,0.0,0.0,0.0,0.0,0.0,0.0,0.0,0.0,0.0,0.0,0.0,0.0,0.0,0.0,0.0,0.0,0.0,0.0,0.0,0.0,0.0,0.0,0.0,0.0,0.0,0.0,0.0,0.0,0.0,0.0,0.0,0.0,0.0,0.0,0.0,0.0,0.0,0.0,0.0,0.0,0.0,0.0,0.0,0.0,0.0,0.0,0.0,0.0,0.0,0.0,0.0,0.0,0.0,0.0,0.0,0.0,0.0,0.0,0.0,0.0,0.0,0.0,0.0,0.0,0.0,0.0,0.0,0.0,0.0,0.0,0.0,0.0,0.0,0.0,0.0,0.0,0.0,0.0,0.0,0.0,0.0,0.0,0.0,0.0,0.0,0.0,0.0,0.0,0.0,0.0,0.0,0.0,0.0,0.0,0.0,0.0,0.0,0.0,0.0,0.0,0.0,0.0,0.0,0.0,0.0,0.0,0.0,0.0,0.0,0.0,0.0,0.0,0.0,0.0,0.0,0.0,0.0,0.0,0.0,0.0,0.0,0.0,0.0,0.0,0.0,0.0,0.0,0.0,0.0,0.0,0.0,0.0,0.0,0.0,0.0,0.0,0.0,0.0,0.0,0.0,0.0,0.0,0.0,0.0,0.0,0.0,0.0,0.0,0.0,0.0,0.0,0.0,0.0,0.0,0.0,0.0,0.0,0.0,0.0,0.0,0.0,0.0,0.0,0.0,0.0,0.0,0.0,0.0,0.0,0.0,0.0,0.0,0.0,0.0,0.0,0.0,0.0,0.0,0.0,0.0,0.0,0.0,0.0,0.0,0.0,0.0,0.0,0.0,0.0,0.0,0.0,0.0,0.0,0.0,0.0,0.0,0.0,0.0,0.0,0.0,0.0,0.0,0.0,0.0,0.0,0.0,0.0,0.0,0.0,0.0,0.0,0.0,0.0,0.0,0.0,0.0,0.0,0.0,0.0,0.0,0.0,0.0,0.0,0.0,0.0,0.0,0.0,0.0,0.0,0.0,0.0,0.0,0.0,0.0,0.0,0.0,0.0,0.0,0.0,0.0,0.0,0.0,0.0,0.0,0.0,0.0,0.0,0.0,0.0,0.0,0.0,0.0,0.0,0.0,0.0,0.0,0.0,0.0,0.0,0.0,0.0,0.0,0.0,0.0,0.0,0.0,0.0,0.0,0.0,0.0,0.0,0.0,0.0,0.0,0.0,0.0,0.0,0.0,0.0,0.0,0.0,0.0,0.0,0.0,0.0,0.0,0.0,0.0,0.0,0.0,0.0,0.0,0.0,0.0,0.0,0.0,0.0,0.0,0.0,0.0,0.0,0.0,0.0,0.0,0.0,0.0,0.0,0.0,0.0,0.0,0.0,0.0,0.0,0.0,0.0,0.0,0.0,0.0,0.0,0.0,0.0,0.0,0.0,0.0,0.0,0.0,0.0,0.0,0.0,0.0,0.0,0.0,0.0,0.0,0.0,0.0,0.0,0.0,0.0,0.0,0.0,0.0,0.0,0.0,0.0,0.0,0.0,0.0,0.0,0.0,0.0,0.0,0.0,0.0,0.0,0.0,0.0,0.0,0.0,0.0,0.0,0.0,0.0,0.0,0.0,0.0,0.0,0.0,0.0,0.0,0.0,0.0,0.0,0.0,0.0,0.0,0.0,0.0,0.0,0.0,0.0,0.0,0.0,0.0,0.0,0.0,0.0,0.0,0.0,0.0,0.0,0.0,0.0,0.0,0.0,0.0,0.0,0.0,0.0,0.0,2.2407,0.0,0.0,0.0,0.0,0.0,0.0,0.0,0.0,0.0,0.0,0.0,0.0,0.0,0.0,0.0,0.0,0.0,0.0,0.0,0.0,0.0,0.0,0.0,0.0,0.0,0.0,0.0,0.0,0.0,0.0,0.0,0.0,0.0,0.0,0.0,0.0,0.0,0.0,0.0,0.0,0.0,0.0,0.0,0.0,0.0,0.0,0.0,0.0,0.0,0.0,0.0,0.0,0.0,0.0,0.0,0.0,0.0,0.0,0.0,0.0,0.0,0.0,0.0,0.0,0.0,0.0,0.0,0.0,0.0,0.0,0.0,0.0,0.0,0.0,0.0,0.0,0.0,0.0,0.0,0.0,0.0,0.0,0.0,0.0,0.0,0.0,0.0,0.0,0.0,0.0,0.0,0.0,0.0,0.0,0.0,0.0,0.0,0.0,0.0,0.0,0.0,0.0,0.0,0.0,0.0,0.0,0.0,0.0,0.0,0.0,2.3741,2.3008,2.3845,2.3542,2.1843,0.0,0.0,0.0,0.0,0.0,0.0,0.0,0.0,0.0,0.0,0.0,0.0,0.0,0.0,0.0,0.0,0.0,0.0,0.0,0.0,0.0,0.0,0.0,0.0,0.0,0.0,0.0,0.0,0.0,0.0,0.0,0.0,0.0,0.0,0.0,0.0,0.0,0.0,0.0,0.0,0.0,0.0,0.0,0.0,0.0,0.0,0.0,0.0,0.0,0.0,0.0,0.0,0.0,0.0,0.0,0.0,0.0,0.0,0.0,0.0,0.0,0.0,0.0,0.0,0.0,0.0,0.0,0.0,0.0,0.0,0.0,0.0,0.0,0.0,0.0,0.0,0.0,0.0,0.0,0.0,0.0,0.0,0.0,0.0,0.0,0.0,0.0,0.0,0.0,0.0,0.0,0.0,0.0,0.0,0.0,0.0,0.0,0.0,0.0,0.0,0.0,0.0,0.0,0.0,0.0,0.0,0.0,0.0,0.0,0.0,0.0,0.0,2.3913,2.3579,2.1354,0.0,0.0,0.0,0.0,0.0,0.0,0.0,0.0,0.0,0.0,0.0,0.0,0.0,0.0,0.0,0.0,0.0,0.0,0.0,0.0,0.0,0.0,0.0,0.0,0.0,0.0,0.0,0.0,0.0,0.0,0.0,0.0,0.0,0.0,0.0,0.0,0.0,0.0,0.0,0.0,0.0,0.0,0.0,0.0,0.0,0.0,0.0,0.0,0.0,0.0,0.0,0.0,0.0,0.0,0.0,0.0,0.0,0.0,0.0,0.0,0.0,0.0,0.0,0.0,0.0,0.0,0.0,0.0,0.0,0.0,0.0,0.0,0.0,0.0,0.0,0.0,0.0,0.0,0.0,0.0,0.0,0.0,0.0,0.0,0.0,0.0,0.0,0.0,0.0,0.0,0.0,0.0,0.0,0.0,0.0,0.0,0.0,0.0,0.0,0.0,0.0,0.0,0.0,0.0,0.0,0.0,0.0,0.0,0.0,0.0,2.1684,2.1149,2.2463,0.0,2.1186,0.0,0.0,0.0,0.0,0.0,0.0,0.0,0.0,0.0,0.0,0.0,0.0,0.0,0.0,0.0,0.0,0.0,0.0,0.0,0.0,0.0,0.0,0.0,0.0,0.0,0.0,0.0,0.0,0.0,0.0,0.0,0.0,0.0,0.0,0.0,0.0,0.0,0.0,0.0,0.0,0.0,0.0,0.0,0.0,0.0,0.0,0.0,0.0,0.0,0.0,0.0,0.0,0.0,0.0,0.0,0.0,0.0,0.0,0.0,0.0,0.0,0.0,0.0,0.0,0.0,0.0,0.0,0.0,0.0,0.0,0.0,0.0,0.0,0.0,0.0,0.0,0.0,0.0,0.0,0.0,0.0,0.0,0.0,0.0,0.0,0.0,0.0,0.0,0.0,0.0,0.0,0.0,0.0,0.0,0.0,0.0,0.0,0.0,0.0,0.0,0.0,0.0,0.0,0.0,0.0,0.0,0.0,0.0,0.0,0.0,2.1334,2.0618,2.0442,2.0205,0.0,0.0,0.0,0.0,0.0,0.0,0.0,0.0,0.0,0.0,0.0,0.0,0.0,0.0,0.0,0.0,0.0,0.0,0.0,0.0,0.0,0.0,0.0,0.0,0.0,0.0,0.0,0.0,0.0,0.0,0.0,0.0,0.0,0.0,0.0,0.0,0.0,0.0,0.0,0.0,0.0,0.0,0.0,0.0,0.0,0.0,0.0,0.0,0.0,0.0,0.0,0.0,0.0,0.0,0.0,0.0,0.0,0.0,0.0,0.0,0.0,0.0,0.0,0.0,0.0,0.0,0.0,0.0,0.0,0.0,0.0,0.0,0.0,0.0,0.0,0.0,0.0,0.0,0.0,0.0,0.0,0.0,0.0,0.0,0.0,0.0,0.0,0.0,0.0,0.0,0.0,0.0,0.0,0.0,0.0,0.0,0.0,0.0,0.0,0.0,0.0,0.0,0.0,0.0,0.0,0.0,0.0,0.0,0.0,0.0,2.0548,2.0824,2.0548,1.8813,1.8372,1.9376,0.0,0.0,0.0,0.0,0.0,0.0,0.0,0.0,0.0,0.0,0.0,0.0,0.0,0.0,0.0,0.0,0.0,0.0,0.0,0.0,0.0,0.0,0.0,0.0,0.0,0.0,0.0,0.0,0.0,0.0,0.0,0.0,0.0,0.0,0.0,0.0,0.0,0.0,0.0,0.0,0.0,0.0,0.0,0.0,0.0,0.0,0.0,0.0,0.0,0.0,0.0,0.0,0.0,0.0,0.0,0.0,0.0,0.0,0.0,0.0,0.0,0.0,0.0,0.0,0.0,0.0,0.0,0.0,0.0,0.0,0.0,0.0,0.0,0.0,0.0,0.0,0.0,0.0,0.0,0.0,0.0,0.0,0.0,0.0,0.0,0.0,0.0,0.0,0.0,0.0,0.0,0.0,0.0,0.0,0.0,0.0,0.0,0.0,0.0,0.0,0.0,0.0,0.0,0.0,0.0,0.0,0.0,0.0,1.9821,1.9324,1.9718,2.1073,1.803,1.7561,0.0,0.0,0.0,0.0,0.0,0.0,0.0,0.0,0.0,0.0,0.0,0.0,0.0,0.0,0.0,0.0,0.0,0.0,0.0,0.0,0.0,0.0,0.0,0.0,0.0,0.0,0.0,0.0,0.0,0.0,0.0,0.0,0.0,0.0,0.0,0.0,0.0,0.0,0.0,0.0,0.0,0.0,0.0,0.0,0.0,0.0,0.0,0.0,0.0,0.0,0.0,0.0,0.0,0.0,0.0,0.0,0.0,0.0,0.0,0.0,0.0,0.0,0.0,0.0,0.0,0.0,0.0,0.0,0.0,0.0,0.0,0.0,0.0,0.0,0.0,0.0,0.0,0.0,0.0,0.0,0.0,0.0,0.0,0.0,0.0,0.0,0.0,0.0,0.0,0.0,0.0,0.0,0.0,0.0,0.0,0.0,0.0,0.0,0.0,0.0,0.0,0.0,0.0,0.0,0.0,0.0,0.0,0.0,0.0,1.9862,1.9065,1.983,2.2096,1.855,1.7528,0.0,0.0,0.0,0.0,0.0,0.0,0.0,0.0,0.0,0.0,0.0,0.0,0.0,0.0,0.0,0.0,0.0,0.0,0.0,0.0,0.0,0.0,0.0,0.0,0.0,0.0,0.0,0.0,0.0,0.0,0.0,0.0,0.0,0.0,0.0,0.0,0.0,0.0,0.0,0.0,0.0,0.0,0.0,0.0,0.0,0.0,0.0,0.0,0.0,0.0,0.0,0.0,0.0,0.0,0.0,0.0,0.0,0.0,0.0,0.0,0.0,0.0,0.0,0.0,0.0,0.0,0.0,0.0,0.0,0.0,0.0,0.0,0.0,0.0,0.0,0.0,0.0,0.0,0.0,0.0,0.0,0.0,0.0,0.0,0.0,0.0,0.0,0.0,0.0,0.0,0.0,0.0,0.0,0.0,0.0,0.0,0.0,0.0,0.0,0.0,0.0,0.0,0.0,0.0,0.0,0.0,0.0,0.0,0.0,1.9952,0.0,2.0031,2.1582,1.8938,1.7756,0.0,0.0,0.0,0.0,0.0,0.0,0.0,0.0,0.0,0.0,0.0,0.0,0.0,0.0,0.0,0.0,0.0,0.0,0.0,0.0,0.0,0.0,0.0,0.0,0.0,0.0,0.0,0.0,0.0,0.0,0.0,0.0,0.0,0.0,0.0,0.0,0.0,0.0,0.0,0.0,0.0,0.0,0.0,0.0,0.0,0.0,0.0,0.0,0.0,0.0,0.0,0.0,0.0,0.0,0.0,0.0,0.0,0.0,0.0,0.0,0.0,0.0,0.0,0.0,0.0,0.0,0.0,0.0,0.0,0.0,0.0,0.0,0.0,0.0,0.0,0.0,0.0,0.0,0.0,0.0,0.0,0.0,0.0,0.0,0.0,0.0,0.0,0.0,0.0,0.0,0.0,0.0,0.0,0.0,0.0,0.0,0.0,0.0,0.0,0.0,0.0,0.0,0.0,0.0,0.0,0.0,0.0,0.0,2.0976,2.0107,2.0443,2.0289,1.9312,1.8971,1.8179,0.0,0.0,0.0,0.0,0.0,0.0,0.0,0.0,0.0,0.0,0.0,0.0,0.0,0.0,0.0,0.0,0.0,0.0,0.0,0.0,0.0,0.0,0.0,0.0,0.0,0.0,0.0,0.0,0.0,0.0,0.0,0.0,0.0,0.0,0.0,0.0,0.0,0.0,0.0,0.0,0.0,0.0,0.0,0.0,0.0,0.0,0.0,0.0,0.0,0.0,0.0,0.0,0.0,0.0,0.0,0.0,0.0,0.0,0.0,0.0,0.0,0.0,0.0,0.0,0.0,0.0,0.0,0.0,0.0,0.0,0.0,0.0,0.0,0.0,0.0,0.0,0.0,0.0,0.0,0.0,0.0,0.0,0.0,0.0,0.0,0.0,0.0,0.0,0.0,0.0,0.0,0.0,0.0,0.0,0.0,0.0,0.0,0.0,0.0,0.0,0.0,0.0,0.0,0.0,0.0,0.0,0.0,0.0,0.0,2.1667,2.0997,2.1233,2.2279,1.9399,1.8303,0.0,0.0,0.0,0.0,0.0,0.0,0.0,0.0,0.0,0.0,0.0,0.0,0.0,0.0,0.0,0.0,0.0,0.0,0.0,0.0,0.0,0.0,0.0,0.0,0.0,0.0,0.0,0.0,0.0,0.0,0.0,0.0,0.0,0.0,0.0,0.0,0.0,0.0,0.0,0.0,0.0,0.0,0.0,0.0,0.0,0.0,0.0,0.0,0.0,0.0,0.0,0.0,0.0,0.0,0.0,0.0,0.0,0.0,0.0,0.0,0.0,0.0,0.0,0.0,0.0,0.0,0.0,0.0,0.0,0.0,0.0,0.0,0.0,0.0,0.0,0.0,0.0,0.0,0.0,0.0,0.0,0.0,0.0,0.0,0.0,0.0,0.0,0.0,0.0,0.0,0.0,0.0,0.0,0.0,0.0,0.0,0.0,0.0,0.0,0.0,0.0,0.0,0.0,0.0,0.0,0.0,0.0,0.0,0.0,2.1989,2.1451,2.1439,2.2077,1.9726,1.8508,1.8517,0.0,0.0,0.0,0.0,0.0,0.0,0.0,0.0,0.0,0.0,0.0,0.0,0.0,0.0,0.0,0.0,0.0,0.0,0.0,0.0,0.0,0.0,0.0,0.0,0.0,0.0,0.0,0.0,0.0,0.0,0.0,0.0,0.0,0.0,0.0,0.0,0.0,0.0,0.0,0.0,0.0,0.0,0.0,0.0,0.0,0.0,0.0,0.0,0.0,0.0,0.0,0.0,0.0,0.0,0.0,0.0,0.0,0.0,0.0,0.0,0.0,0.0,0.0,0.0,0.0,0.0,0.0,0.0,0.0,0.0,0.0,0.0,0.0,0.0,0.0,0.0,0.0,0.0,0.0,0.0,0.0,0.0,0.0,0.0,0.0,0.0,0.0,0.0,0.0,0.0,0.0,0.0,0.0,0.0,0.0,0.0,0.0,0.0,0.0,0.0,0.0,0.0,0.0,0.0,0.0,0.0,0.0,0.0,2.1322,2.1796,2.1145,1.9296,1.9918,1.8737,0.0,0.0,0.0,0.0,0.0,0.0,0.0,0.0,0.0,0.0,0.0,0.0,0.0,0.0,0.0,0.0,0.0,0.0,0.0,0.0,0.0,0.0,0.0,0.0,0.0,0.0,0.0,0.0,0.0,0.0,0.0,0.0,0.0,0.0,0.0,0.0,0.0,0.0,0.0,0.0,0.0,0.0,0.0,0.0,0.0,0.0,0.0,0.0,0.0,0.0,0.0,0.0,0.0,0.0,0.0,0.0,0.0,0.0,0.0,0.0,0.0,0.0,0.0,0.0,0.0,0.0,0.0,0.0,0.0,0.0,0.0,0.0,0.0,0.0,0.0,0.0,0.0,0.0,0.0,0.0,0.0,0.0,0.0,0.0,0.0,0.0,0.0,0.0,0.0,0.0,0.0,0.0,0.0,0.0,0.0,0.0,0.0,0.0,0.0,0.0,0.0,0.0,0.0,0.0,0.0,0.0,0.0,0.0,0.0,2.1469,2.145,2.1315,2.103,1.9397,1.8264,0.0,0.0,0.0,0.0,0.0,0.0,0.0,0.0,0.0,0.0,0.0,0.0,0.0,0.0,0.0,0.0,0.0,0.0,0.0,0.0,0.0,0.0,0.0,0.0,0.0,0.0,0.0,0.0,0.0,0.0,0.0,0.0,0.0,0.0,0.0,0.0,0.0,0.0,0.0,0.0,0.0,0.0,0.0,0.0,0.0,0.0,0.0,0.0,0.0,0.0,0.0,0.0,0.0,0.0,0.0,0.0,0.0,0.0,0.0,0.0,0.0,0.0,0.0,0.0,0.0,0.0,0.0,0.0,0.0,0.0,0.0,0.0,0.0,0.0,0.0,0.0,0.0,0.0,0.0,0.0,0.0,0.0,0.0,0.0,0.0,0.0,0.0,0.0,0.0,0.0,0.0,0.0,0.0,0.0,0.0,0.0,0.0,0.0,0.0,0.0,0.0,0.0,0.0,0.0,0.0,0.0,0.0,0.0,2.1701,2.1104,2.097,2.0888,2.0737,1.9222,1.8089,0.0,0.0,0.0,0.0,0.0,0.0,0.0,0.0,0.0,0.0,0.0,0.0,0.0,0.0,0.0,0.0,0.0,0.0,0.0,0.0,0.0,0.0,0.0,0.0,0.0,0.0,0.0,0.0,0.0,0.0,0.0,0.0,0.0,0.0,0.0,0.0,0.0,0.0,0.0,0.0,0.0,0.0,0.0,0.0,0.0,0.0,0.0,0.0,0.0,0.0,0.0,0.0,0.0,0.0,0.0,0.0,0.0,0.0,0.0,0.0,0.0,0.0,0.0,0.0,0.0,0.0,0.0,0.0,0.0,0.0,0.0,0.0,0.0,0.0,0.0,0.0,0.0,0.0,0.0,0.0,0.0,0.0,0.0,0.0,0.0,0.0,0.0,0.0,0.0,0.0,0.0,0.0,0.0,0.0,0.0,0.0,0.0,0.0,0.0,0.0,0.0,0.0,0.0,0.0,0.0,0.0,0.0,0.0,2.2123,2.0612,2.0673,2.0228,1.9248,1.9096,1.8089,0.0,0.0,0.0,0.0,0.0,0.0,0.0,0.0,0.0,0.0,0.0,0.0,0.0,0.0,0.0,0.0,0.0,0.0,0.0,0.0,0.0,0.0,0.0,0.0,0.0,0.0,0.0,0.0,0.0,0.0,0.0,0.0,0.0,0.0,0.0,0.0,0.0,0.0,0.0,0.0,0.0,0.0,0.0,0.0,0.0,0.0,0.0,0.0,0.0,0.0,0.0,0.0,0.0,0.0,0.0,0.0,0.0,0.0,0.0,0.0,0.0,0.0,0.0,0.0,0.0,0.0,0.0,0.0,0.0,0.0,0.0,0.0,0.0,0.0,0.0,0.0,0.0,0.0,0.0,0.0,0.0,0.0,0.0,0.0,0.0,0.0,0.0,0.0,0.0,0.0,0.0,0.0,0.0,0.0,0.0,0.0,0.0,0.0,0.0,0.0,0.0,0.0,0.0,0.0,0.0,0.0,0.0,0.0,2.1733,2.0953,2.1379,2.0618,1.8569,1.8089,1.7551,0.0,0.0,0.0,0.0,0.0,0.0,0.0,0.0,0.0,0.0,0.0,0.0,0.0,0.0,0.0,0.0,0.0,0.0,0.0,0.0,0.0,0.0,0.0,0.0,0.0,0.0,0.0,0.0,0.0,0.0,0.0,0.0,0.0,0.0,0.0,0.0,0.0,0.0,0.0,0.0,0.0,0.0,0.0,0.0,0.0,0.0,0.0,0.0,1.4197,0.0,0.0,0.0,0.0,0.0,0.0,0.0,0.0,0.0,0.0,0.0,0.0,0.0,0.0,0.0,0.0,0.0,0.0,0.0,0.0,0.0,0.0,0.0,0.0,0.0,0.0,0.0,0.0,0.0,0.0,0.0,0.0,0.0,0.0,0.0,0.0,0.0,0.0,0.0,0.0,0.0,0.0,0.0,0.0,0.0,0.0,0.0,0.0,0.0,0.0,0.0,0.0,0.0,0.0,0.0,0.0,0.0,0.0,0.0,2.2585,2.2094,2.195,2.1132,1.9591,1.8573,1.7833,0.0,0.0,0.0,0.0,0.0,0.0,0.0,0.0,0.0,0.0,0.0,0.0,0.0,0.0,0.0,0.0,0.0,0.0,0.0,0.0,0.0,0.0,0.0,0.0,0.0,0.0,0.0,0.0,0.0,0.0,0.0,0.0,0.0,0.0,0.0,0.0,0.0,0.0,0.0,0.0,0.0,0.0,0.0,0.0,0.0,0.0,0.0,0.0,0.0,0.0,0.0,0.0,0.0,0.0,0.0,0.0,0.0,0.0,0.0,0.0,0.0,0.0,0.0,0.0,0.0,0.0,0.0,0.0,0.0,0.0,0.0,0.0,0.0,0.0,0.0,0.0,0.0,0.0,0.0,0.0,0.0,0.0,0.0,0.0,0.0,0.0,0.0,0.0,0.0,0.0,0.0,0.0,0.0,0.0,0.0,0.0,0.0,0.0,0.0,0.0,0.0,0.0,0.0,0.0,0.0,0.0,0.0,2.3705,2.379,2.3431,2.2565,2.1747,2.092,1.954,1.8454,1.7753,0.0,0.0,0.0,0.0,0.0,0.0,0.0,0.0,0.0,0.0,0.0,0.0,0.0,0.0,0.0,0.0,0.0,0.0,0.0,0.0,0.0,0.0,0.0,0.0,0.0,0.0,0.0,0.0,0.0,0.0,0.0,0.0,0.0,0.0,0.0,0.0,0.0,0.0,1.0465,1.0839,0.0,0.0,0.0,0.0,0.0,0.0,0.0,0.0,1.5836,0.0,0.0,0.0,0.0,0.0,0.0,0.0,0.0,0.0,0.0,0.0,0.0,0.0,0.0,0.0,0.0,0.0,0.0,0.0,0.0,0.0,0.0,0.0,0.0,0.0,0.0,0.0,0.0,0.0,0.0,0.0,0.0,0.0,0.0,0.0,0.0,0.0,0.0,0.0,0.0,0.0,0.0,0.0,0.0,0.0,0.0,0.0,0.0,0.0,0.0,0.0,0.0,0.0,0.0,0.0,0.0,2.5404,2.4601,2.4136,2.4139,2.3423,2.2453,2.1087,1.9863,1.9005,1.858,0.0,0.0,0.0,0.0,0.0,0.0,0.0,0.0,0.0,0.0,0.0,0.0,0.0,0.0,0.0,0.0,0.0,0.0,0.0,0.0,0.0,0.0,0.0,0.0,0.0,0.0,0.0,0.0,0.0,0.0,0.0,0.0,0.0,0.0,0.0,0.0,0.0,0.0,0.0,1.1524,1.2141,0.0,0.0,0.0,0.0,0.0,0.0,0.0,0.0,1.8513,0.0,0.0,0.0,0.0,0.0,0.0,0.0,0.0,0.0,0.0,0.0,0.0,0.0,0.0,0.0,0.0,0.0,0.0,0.0,0.0,0.0,0.0,0.0,0.0,0.0,0.0,0.0,0.0,0.0,0.0,0.0,0.0,0.0,0.0,0.0,0.0,0.0,0.0,0.0,0.0,0.0,0.0,0.0,0.0,0.0,0.0,0.0,0.0,0.0,0.0,0.0,0.0,0.0,0.0,0.0,2.5242,2.5003,2.5032,2.5433,2.4046,2.2912,2.2024,2.0094,1.8896,0.0,0.0,0.0,0.0,0.0,0.0,0.0,0.0,0.0,0.0,0.0,0.0,0.0,0.0,0.0,0.0,0.0,0.0,0.0,0.0,0.0,0.0,0.0,0.0,0.0,0.0,0.0,0.0,0.0,0.0,0.0,0.0,0.0,0.0,0.0,0.0,0.0,0.0,0.0,0.0,1.2897,1.3255,1.5281,0.0,0.0,0.0,0.0,0.0,0.0,1.9052,1.9252,0.0,0.0,0.0,0.0,0.0,0.0,0.0,0.0,0.0,0.0,0.0,0.0,0.0,0.0,0.0,0.0,0.0,0.0,0.0,0.0,0.0,0.0,0.0,0.0,0.0,0.0,0.0,0.0,0.0,0.0,0.0,0.0,0.0,0.0,0.0,0.0,0.0,0.0,0.0,0.0,0.0,0.0,0.0,0.0,0.0,0.0,0.0,0.0,0.0,0.0,0.0,0.0,0.0,0.0,0.0,2.4911,2.5315,2.577,2.6216,2.4412,2.319,2.2695,2.0318,1.8871,0.0,0.0,0.0,0.0,0.0,0.0,0.0,0.0,0.0,0.0,0.0,0.0,0.0,0.0,0.0,0.0,0.0,0.0,0.0,0.0,0.0,0.0,0.0,0.0,0.0,0.0,0.0,0.0,0.0,0.0,0.0,0.0,0.0,0.0,0.0,0.0,0.0,0.0,0.0,0.0,0.0,1.4808,1.7056,1.634,0.0,0.0,0.0,0.0,1.8295,1.8579,0.0,0.0,0.0,0.0,0.0,0.0,0.0,0.0,0.0,0.0,0.0,0.0,0.0,0.0,0.0,0.0,0.0,0.0,0.0,0.0,0.0,0.0,0.0,0.0,0.0,0.0,0.0,0.0,0.0,0.0,0.0,0.0,0.0,0.0,0.0,0.0,0.0,0.0,0.0,0.0,0.0,0.0,0.0,0.0,0.0,0.0,0.0,0.0,0.0,0.0,0.0,0.0,0.0,0.0,0.0,0.0,2.5315,2.5719,2.5748,2.5325,2.4295,2.3209,2.2126,2.0534,1.9554,0.0,0.0,0.0,0.0,0.0,0.0,0.0,0.0,0.0,0.0,0.0,0.0,0.0,0.0,0.0,0.0,0.0,0.0,0.0,0.0,0.0,0.0,0.0,0.0,0.0,0.0,0.0,0.0,0.0,0.0,0.0,0.0,0.0,0.0,0.0,0.0,0.0,0.0,0.0,0.0,0.0,1.6832,1.757,1.7744,1.784,0.0,0.0,1.7003,1.6264,1.6532,0.0,0.0,0.0,0.0,0.0,0.0,0.0,0.0,0.0,0.0,0.0,0.0,0.0,0.0,0.0,0.0,0.0,0.0,0.0,0.0,0.0,0.0,0.0,0.0,0.0,0.0,0.0,0.0,0.0,0.0,0.0,0.0,0.0,0.0,0.0,0.0,0.0,0.0,0.0,0.0,0.0,0.0,0.0,0.0,0.0,0.0,0.0,0.0,0.0,0.0,0.0,0.0,0.0,0.0,0.0,2.4819,2.5388,2.5774,2.5738,2.5196,2.4298,2.3148,2.1818,2.0175,1.9223,0.0,0.0,0.0,0.0,0.0,0.0,0.0,0.0,0.0,0.0,0.0,0.0,0.0,0.0,0.0,0.0,0.0,0.0,0.0,0.0,0.0,0.0,0.0,0.0,0.0,0.0,0.0,0.0,0.0,0.0,0.0,0.0,0.0,0.0,0.0,0.0,0.0,0.0,0.0,0.0,0.0,0.0,1.7838,1.7468,0.0,0.0,0.0,1.7426,1.7533,0.0,0.0,0.0,0.0,0.0,0.0,0.0,0.0,0.0,0.0,0.0,0.0,0.0,0.0,0.0,0.0,0.0,0.0,0.0,0.0,0.0,0.0,0.0,0.0,0.0,0.0,0.0,0.0,0.0,0.0,0.0,0.0,0.0,0.0,0.0,0.0,0.0,0.0,0.0,0.0,0.0,0.0,0.0,0.0,0.0,0.0,0.0,0.0,0.0,0.0,0.0,0.0,0.0,0.0,0.0,0.0,0.0,2.5388,2.5574,2.5443,2.4847,2.3864,2.2675,2.1303,1.9824,0.0,0.0,0.0,0.0,0.0,0.0,0.0,0.0,0.0,0.0,0.0,0.0,0.0,0.0,0.0,0.0,0.0,0.0,0.0,0.0,0.0,0.0,0.0,0.0,0.0,0.0,0.0,1.7368,0.0,0.0,0.0,0.0,0.0,0.0,0.0,0.0,0.0,0.0,0.0,0.0,0.0,0.0,1.7519,1.8427,1.7822,1.7628,0.0,0.0,1.7502,1.7878,1.6594,1.5358,0.0,0.0,0.0,0.0,0.0,0.0,0.0,0.0,0.0,0.0,0.0,0.0,0.0,0.0,0.0,0.0,0.0,0.0,0.0,0.0,0.0,0.0,0.0,0.0,0.0,0.0,0.0,0.0,0.0,0.0,0.0,0.0,0.0,0.0,0.0,0.0,0.0,0.0,0.0,0.0,0.0,0.0,0.0,0.0,0.0,0.0,0.0,0.0,0.0,0.0,0.0,0.0,0.0,0.0,2.537,2.5399,2.5064,2.458,2.3914,2.2721,2.1512,2.0338,1.9698,1.9361,0.0,0.0,0.0,0.0,0.0,0.0,0.0,0.0,0.0,0.0,0.0,0.0,0.0,0.0,0.0,0.0,0.0,0.0,0.0,0.0,0.0,0.0,0.0,0.0,0.0,0.0,0.0,0.0,0.0,0.0,0.0,0.0,0.0,0.0,0.0,0.0,0.0,0.0,0.0,0.0,0.0,1.9757,1.9531,1.9928,1.9985,0.0,1.784,1.6366,1.5508,1.4651,1.3633,1.2434,0.0,0.0,0.0,0.0,0.0,0.0,0.0,0.0,0.0,0.0,0.0,0.0,0.0,0.0,0.0,0.0,0.0,0.0,0.0,0.0,0.0,0.0,0.0,0.0,0.0,0.0,0.0,0.0,0.0,0.0,0.0,0.0,0.0,0.0,0.0,0.0,0.0,0.0,0.0,0.0,0.0,0.0,0.0,0.0,0.0,0.0,0.0,0.0,0.0,0.0,0.0,0.0,0.0,2.5466,2.5641,2.582,2.5147,2.3615,2.325,2.2112,2.0003,1.9573,1.9308,0.0,0.0,0.0,0.0,0.0,0.0,0.0,0.0,0.0,0.0,0.0,0.0,0.0,0.0,0.0,0.0,0.0,0.0,0.0,0.0,0.0,0.0,0.0,0.0,0.0,0.0,0.0,0.0,1.7418,1.7649,1.8143,0.0,0.0,0.0,0.0,0.0,0.0,0.0,0.0,0.0,0.0,1.9001,1.9093,1.9381,0.0,0.0,1.8395,1.7449,1.6382,1.5119,1.3737,1.2227,1.201,0.0,0.0,0.0,0.0,0.0,0.0,0.0,0.0,0.0,0.0,0.0,0.0,0.0,0.0,0.0,0.0,0.0,0.0,0.0,0.0,0.0,0.0,0.0,0.0,0.0,0.0,0.0,0.0,0.0,0.0,0.0,0.0,0.0,0.0,0.0,0.0,0.0,0.0,0.0,0.0,0.0,0.0,0.0,0.0,0.0,0.0,0.0,0.0,0.0,0.0,0.0,0.0,2.567,2.5983,2.5694,2.4878,2.3555,2.2999,2.1844,2.0009,1.9639,1.9348,0.0,0.0,0.0,0.0,0.0,0.0,0.0,0.0,0.0,0.0,0.0,0.0,0.0,0.0,0.0,0.0,0.0,0.0,0.0,0.0,0.0,0.0,0.0,0.0,0.0,0.0,0.0,0.0,1.7363,1.7454,1.7701,0.0,0.0,0.0,0.0,0.0,0.0,0.0,0.0,0.0,0.0,1.8798,1.9087,1.9275,1.9311,1.9014,1.8317,1.7518,1.6505,1.4883,1.3325,1.2009,0.0,0.0,0.0,0.0,0.0,0.0,0.0,0.0,0.0,0.0,0.0,0.0,0.0,0.0,0.0,0.0,0.0,0.0,0.0,0.0,0.0,0.0,0.0,0.0,0.0,0.0,0.0,2.126,0.0,0.0,2.4723,0.0,0.0,0.0,0.0,0.0,0.0,0.0,0.0,0.0,0.0,0.0,0.0,0.0,0.0,0.0,0.0,0.0,0.0,0.0,0.0,0.0,0.0,2.5983,2.6321,2.4298,2.3336,2.3695,2.1526,2.0318,2.0184,1.9933,1.9519,1.8916,0.0,0.0,0.0,0.0,0.0,0.0,0.0,0.0,0.0,0.0,0.0,0.0,0.0,0.0,0.0,0.0,0.0,0.0,0.0,0.0,0.0,0.0,0.0,0.0,0.0,0.0,1.7574,1.784,1.7739,0.0,0.0,0.0,0.0,0.0,0.0,0.0,0.0,0.0,1.8664,1.9165,1.9579,1.9823,2.0076,1.9927,1.9198,1.7423,1.5934,1.5239,1.3434,1.1877,0.0,0.0,0.0,0.0,0.0,0.0,0.0,0.0,0.0,0.0,0.0,0.0,0.0,0.0,0.0,0.0,0.0,0.0,0.0,0.0,0.0,0.0,0.0,0.0,0.0,0.0,0.0,2.0759,2.0082,0.0,0.0,0.0,0.0,0.0,0.0,0.0,0.0,0.0,0.0,0.0,2.3064,2.2287,0.0,0.0,0.0,0.0,0.0,0.0,0.0,0.0,0.0,0.0,0.0,0.0,2.6029,2.572,2.4922,2.3863,2.2632,2.2028,2.1238,2.0241,1.996,1.9439,1.8664,0.0,0.0,0.0,0.0,0.0,0.0,0.0,0.0,0.0,0.0,0.0,0.0,0.0,0.0,0.0,0.0,0.0,0.0,0.0,0.0,0.0,0.0,0.0,0.0,0.0,1.7575,0.0,0.0,0.0,0.0,0.0,0.0,0.0,0.0,0.0,0.0,1.7906,1.8161,1.8886,1.9443,1.9878,2.0144,1.9496,1.8863,0.0,0.0,0.0,0.0,0.0,0.0,0.0,0.0,0.0,0.0,0.0,0.0,0.0,0.0,1.3782,1.2832,1.2637,1.2952,1.4068,0.0,0.0,0.0,0.0,0.0,0.0,0.0,0.0,0.0,0.0,0.0,0.0,0.0,0.0,2.0659,2.0004,1.9898,0.0,0.0,0.0,0.0,0.0,0.0,0.0,0.0,2.2864,2.2409,2.2259,2.1605,2.1371,2.1532,2.1447,2.1523,0.0,0.0,0.0,0.0,0.0,0.0,0.0,0.0,2.6569,2.6142,2.5161,2.4005,2.2751,2.1943,2.1127,2.0227,1.9853,1.9415,1.8839,1.8476,1.8409,0.0,0.0,0.0,0.0,0.0,0.0,0.0,0.0,0.0,0.0,0.0,0.0,0.0,0.0,0.0,0.0,0.0,0.0,0.0,0.0,0.0,0.0,0.0,1.7411,0.0,0.0,0.0,0.0,0.0,0.0,0.0,0.0,0.0,1.8318,1.8246,1.8548,1.9527,1.9805,1.9846,1.9667,0.0,0.0,0.0,0.0,0.0,0.0,0.0,1.2535,1.157,1.1542,1.1747,1.1951,1.2509,1.3056,1.3522,0.0,0.0,1.4302,1.4129,1.46,1.6164,1.7678,1.8957,1.9739,2.1201,2.2265,0.0,0.0,0.0,0.0,2.1856,0.0,0.0,0.0,2.0684,2.0816,0.0,2.0672,0.0,0.0,0.0,0.0,2.1976,2.1989,0.0,0.0,2.1112,2.0828,2.0347,2.09,2.0989,2.0779,2.102,2.0846,2.0379,2.1732,0.0,0.0,0.0,0.0,0.0,0.0,2.745,2.7447,2.4963,2.3731,2.3815,2.1256,1.996,2.017,1.9722,1.9428,1.9388,1.9065,1.8918,1.8916,1.9423,0.0,0.0,0.0,0.0,0.0,0.0,0.0,0.0,0.0,0.0,0.0,0.0,0.0,0.0,0.0,0.0,0.0,0.0,0.0,0.0,1.7677,0.0,0.0,0.0,0.0,0.0,0.0,0.0,0.0,0.0,1.9128,1.9189,1.8927,1.9249,2.0519,0.0,0.0,0.0,0.0,1.7394,1.4715,1.4039,1.3495,1.2532,1.1961,1.1572,1.143,0.0,0.0,1.2287,1.2395,1.2872,1.3686,1.5357,1.6559,1.7215,1.7117,1.7425,1.8799,2.0167,2.1181,2.1417,2.264,2.3683,1.9797,0.0,0.0,0.0,0.0,2.0922,2.0427,1.9707,2.0552,2.0349,1.9463,1.9394,0.0,0.0,0.0,0.0,0.0,0.0,2.1731,2.2351,2.1952,2.1569,2.1221,2.1563,2.1697,2.1649,2.1515,2.1261,2.0886,2.1089,2.1712,2.2678,0.0,0.0,0.0,0.0,2.7381,2.6933,2.494,2.361,2.3007,2.1087,2.0117,2.0197,2.0037,1.9786,1.9401,1.9078,1.9025,1.9225,1.8955,0.0,0.0,0.0,0.0,0.0,0.0,0.0,0.0,0.0,0.0,0.0,0.0,0.0,0.0,0.0,0.0,0.0,0.0,0.0,1.8155,1.7955,1.7847,0.0,0.0,0.0,0.0,0.0,0.0,0.0,0.0,0.0,2.0422,2.0301,2.0277,0.0,0.0,2.0204,1.878,1.7653,1.6343,1.4566,1.3353,0.0,1.2063,1.1832,1.1719,1.1714,1.2868,1.4052,1.4781,1.6066,1.736,1.8203,1.9056,2.0026,2.1184,2.0172,1.9719,2.1054,2.1799,2.2423,2.3398,2.4073,2.4369,2.0031,2.0477,2.0305,2.0152,2.002,2.0284,1.9993,1.9342,1.999,1.9815,1.906,1.8884,1.9248,1.9972,1.9477,0.0,0.0,0.0,2.1646,2.23,2.2334,2.2265,2.2131,2.2378,2.2512,2.2498,2.2098,2.1804,2.1617,2.1248,2.1366,2.2052,0.0,2.5559,2.6496,2.7861,2.8042,2.706,2.5477,2.4053,2.2814,2.1101,2.0261,2.0384,2.0139,1.992,1.9714,1.9158,1.8939,1.9138,1.8807,1.8584,0.0,0.0,0.0,0.0,0.0,0.0,0.0,0.0,0.0,0.0,0.0,1.8093,1.8047,0.0,0.0,0.0,1.775,1.8016,1.8263,1.8143,0.0,0.0,0.0,0.0,0.0,0.0,0.0,1.9769,2.0096,2.0531,2.1172,2.1305,2.1329,2.1329,2.1196,2.0627,1.9351,0.0,1.694,1.4985,1.3938,1.3361,1.3294,1.3235,1.3379,1.4084,1.5119,1.6242,1.7185,1.8387,1.9452,2.0393,2.1331,2.2326,2.338,2.2915,2.2636,2.3455,2.3732,2.4149,2.5006,2.5251,2.5293,2.0652,2.034,1.9636,1.9285,1.9233,1.9483,1.9579,1.9562,1.9381,1.9343,1.9438,1.903,1.9181,1.9706,2.0392,0.0,1.9895,2.1111,2.1509,2.1274,2.2437,2.296,2.2947,2.318,2.3305,2.334,2.2732,2.2498,2.2498,2.1991,2.1903,2.2197,2.4096,2.5673,2.6881,2.8713,2.8984,2.7497,2.6205,2.4687,2.2858,2.1123,2.0349,2.0628,2.0068,1.9855,2.0102,1.9304,1.8817,1.8767,1.8796,1.8576,1.8018,0.0,0.0,0.0,0.0,0.0,0.0,0.0,0.0,0.0,0.0,0.0,0.0,0.0,0.0,1.7539,1.7786,0.0,1.8324,1.836,0.0,0.0,0.0,1.9213,1.9237,1.989,2.035,2.0374,0.0,0.0,2.1571,2.2055,2.237,2.2394,2.174,2.0981,2.0204,1.9907,1.8782,1.6126,1.5696,1.5724,1.587,1.5668,1.5957,1.7305,1.798,1.8475,1.9454,1.9975,2.0355,2.145,2.2721,2.379,2.3979,2.5068,2.6029,2.528,2.563,2.5972,2.5998,2.6132,2.6227,2.1583,2.151,2.1317,2.0773,2.0047,2.0309,2.0318,2.0124,2.0057,1.974,1.9212,1.9276,1.9431,1.9668,2.0805,2.1228,2.1137,2.2334,2.2743,2.2538,2.3247,2.3434,2.322,2.3287,2.3447,2.3634,2.3287,2.3198,2.3469,2.3348,2.3322,2.3467,2.4944,2.5896,2.6325,2.6927,2.7334,2.751,2.5518,2.3286,2.0824,2.0347,2.0163,2.0226,2.0068,1.9864,1.9535,1.932,1.8992,1.8513,1.8324,1.8052,1.772,1.7661,0.0,0.0,0.0,0.0,0.0,0.0,0.0,0.0,0.0,1.7563,1.7798,0.0,1.7883,0.0,1.8034,1.8415,1.8843,1.8891,0.0,0.0,1.9796,2.0108,2.0301,2.0495,2.0688,2.0882,2.1268,2.1667,2.2066,2.2655,2.3126,2.3311,2.3053,2.2328,2.1144,2.1182,2.0671,1.8866,1.8504,1.8621,1.8514,1.822,1.8143,1.8495,1.9598,2.0762,2.1906,2.314,2.4229,2.4939,2.5398,2.5714,2.5647,2.5131,2.4378,2.4333,2.532,2.6332,2.6293,2.6307,2.599,2.2542,2.2692,2.2692,2.246,2.2027,2.135,2.0978,2.0845,2.0886,2.0683,2.0288,2.0647,2.0818,2.0935,2.1874,2.2287,2.2361,2.3142,2.3434,2.3335,2.379,2.3875,2.3728,2.3714,2.3808,2.3955,2.3661,2.3607,2.3803,2.3817,2.3696,2.3554,2.4309,2.495,2.5494,2.6268,2.6887,2.725,2.4463,2.2227,2.0653,2.0262,2.0187,2.043,1.9819,1.9449,1.9436,1.8918,1.8566,1.8362,1.8089,1.7895,1.7735,1.7584,1.7125,0.0,0.0,0.0,0.0,0.0,0.0,0.0,0.0,0.0,0.0,0.0,1.8367,1.8596,1.8843,1.9201,1.9612,1.9854,2.0071,2.0253,2.0507,2.0712,2.0857,2.1196,2.1546,2.1872,2.2227,2.2657,2.314,2.3491,2.3844,2.4108,2.4174,2.3893,2.2985,2.2898,2.2459,2.1046,2.0784,2.0734,2.0662,2.1122,2.1447,2.1525,2.2151,2.3077,2.4,2.4941,2.5767,2.6241,2.5792,2.5263,2.5184,2.3844,2.2682,2.2763,2.3404,2.4004,2.4083,2.4083,2.3724,2.3551,2.3927,2.3902,2.4121,2.4265,2.2571,2.1825,2.1776,2.1889,2.1882,2.183,2.2298,2.2457,2.2557,2.316,2.3399,2.3425,2.3741,2.3897,2.3848,2.4128,2.4249,2.4209,2.4209,2.4222,2.4249,2.3968,2.3848,2.391,2.3839,2.3624,2.3301,2.3304,2.3785,2.4794,2.5961,2.6509,2.6461,2.3345,2.1625,2.1385,2.0589,2.0356,2.0747,1.9466,1.894,1.9334,1.8459,1.8022,1.8215,1.804,1.7919,1.7943,1.7702,1.7067,0.0,1.7008,0.0,0.0,0.0,0.0,0.0,0.0,0.0,0.0,1.8778,1.9165,1.9612,1.9938,2.0171,2.0398,2.0917,2.1194,2.1012,2.1277,2.1483,2.1508,2.2129,2.2705,2.3042,2.3516,2.3981,2.4277,2.4393,2.4597,2.4815,2.5205,2.527,2.4958,2.4674,2.4181,2.3133,2.2805,2.2795,2.2784,2.382,2.4657,2.4735,2.4696,2.506,2.5687,2.5819,2.5977,2.6149,2.5025,2.3936,2.3816,2.2269,2.0939,2.0858,2.0727,2.0737,2.1303,2.1504,2.113,2.4814,2.519,2.5001,2.4952,2.494,2.4124,2.353,2.3151,2.3124,2.2882,2.2426,2.2639,2.2841,2.3089,2.3722,2.4035,2.4026,2.4306,2.4342,2.4128,2.4386,2.4436,2.4209,2.4209,2.4292,2.4492,2.4262,2.4249,2.4439,2.4109,2.3925,2.3851,2.3738,2.4256,2.523,0.0,0.0,0.0,2.2523,2.1837,2.1764,2.1216,2.0754,2.0398,1.952,0.0,1.8264,1.824,1.8131,1.7992,1.7931,0.0,0.0,0.0,0.0,0.0,0.0,0.0,0.0,0.0,0.0,0.0,2.0362,2.0204,1.9382,1.9893,2.0374,2.047,2.0918,2.1135,2.0966,2.1713,2.2299,2.246,2.3017,2.3442,2.3669,2.3833,2.3972,2.401,2.4379,2.4621,2.4699,2.5126,2.5517,2.5556,2.5951,2.6148,2.6043,2.5937,2.5859,2.5674,2.5384,2.5411,2.5134,2.5372,2.5556,2.5582,2.5595,2.5767,2.6175,2.6268,2.6268,2.6307,2.4985,2.3736,2.3696,2.1251,1.9115,1.9115,1.8023,1.7828,2.0575,2.1182,2.0765,2.5699,2.6081,2.5939,2.5931,0.0,2.5648,2.5205,2.4695,2.4196,2.3935,2.3833,2.3727,2.3954,2.4327,2.4562,2.4716,2.4863,2.4959,2.4997,2.4863,2.4997,2.4997,2.485,2.485,2.4879,2.5026,2.493,2.4818,2.4725,2.4537,2.4236,2.3807,2.3719,2.3896,2.4291,2.3563,2.2929,2.2526,2.2117,2.1837,2.1704,2.1305,2.0966,2.0688,1.9793,0.0,0.0,0.0,0.0,0.0,0.0,0.0,0.0,1.8572,0.0,1.7814,1.8728,1.9066,1.8673,1.9737,2.0555,2.07,2.1317,2.1353,2.0543,2.0869,2.116,2.1305,2.1788,2.2104,2.2215,2.2843,2.3366,2.3568,2.3909,2.4163,2.4303,2.4405,2.4597,2.4817,2.5075,2.5334,2.5531,2.5846,2.607,2.6109,2.6268,2.6372,2.6252,2.6212,2.6212,2.6225,2.6319,2.6347,2.6149,2.6109,2.6109,2.6109,2.6109,2.6188,2.6347,2.64,2.6149,2.5263,2.3684,2.2309,2.1222,1.9074,1.7337,1.7255,1.6607,1.6451,1.835,1.8636,1.8404,2.6509,2.6867,2.6815,2.6862,2.6974,2.688,2.6573,2.5985,2.5068,0.0,0.0,2.4853,2.5026,2.5491,2.5264,2.5291,2.5504,2.5518,2.5518,2.5518,2.5518,2.5518,2.5518,2.5518,2.5518,2.5518,2.5518,2.5327,2.5007,2.4983,2.4547,2.3777,2.3748,2.3604,2.3215,2.3179,2.284,2.2186,2.215,2.2042,2.1861,2.1595,2.1377,2.1244,2.0301,1.9697,1.9491,1.8923,1.8674,1.8911,1.8935,1.9068,1.937,1.9346,1.8847,1.7981,1.9242,1.9659,1.8744,2.0309,2.1377,2.1498,2.2212,2.2381,2.1752,2.1873,2.2044,2.2214,2.2788,2.3284,2.3629,2.4093,2.4462,2.4636,2.4649,2.4662,2.4714,2.4855,2.5192,2.5544,2.5806,2.6083,2.6307,2.64,2.644,2.64,2.6333,2.6279,2.6065,2.6011,2.6051,2.6131,2.6266,2.6386,2.6386,2.6386,2.64,2.6347,2.6109,2.5951,2.5911,2.57,2.4945,2.3564,2.1907,2.0373,1.887,1.7337,1.6089,1.6007,1.6007,1.6007,1.6007,1.6007,1.6106,2.7554,2.7948,2.7652,2.7574,2.7562,2.7349,2.6907,2.6293,2.5628,2.5413,2.5451,2.5411,2.54,2.5518,2.5464,2.5478,2.5518,2.5518,2.5518,2.5518,2.5518,2.5518,2.5518,2.5518,2.5518,2.5518,2.5518,2.5466,2.543,2.5346,2.4946,2.4302,2.4329,2.4129,2.3719,2.3475,2.3306,2.3198,2.3198,2.3173,2.3137,2.2949,2.2478,2.1813,2.1196,2.0422,1.9539,1.9624,1.9676,1.9712,1.9745,1.9929,2.0434,2.0277,2.0139,2.0218,2.0656,2.0956,2.0995,2.1703,2.2429,2.3029,2.3595,2.3538,2.2635,2.3283,2.366,2.3512,2.4231,2.4794,2.4939,2.5292,2.562,2.5882,2.6004,2.6069,2.6069,2.6096,2.6135,2.6214,2.6507,2.656,2.6453,2.6587,2.6627,2.6413,2.6239,2.6065,2.6024,2.5998,2.6105,2.6305,2.636,2.64,2.6188,2.6386,2.6188,2.64,2.5025,2.4163,2.4179,2.318,2.2218,2.1655,2.0231,1.9064,1.8504,1.7173,1.6205,1.6007,1.6007,1.6007,1.6007,1.6007,1.5958,2.801,2.8165,2.8031,2.7884,2.7669,2.7429,2.7148,2.6881,2.6587,2.6225,2.5784,2.5585,2.5692,2.5972,2.5985,2.5985,2.5999,2.6146,2.6132,2.6012,2.6146,2.6226,2.6239,2.6386,2.6506,2.6466,2.6466,2.6334,2.6109,2.6081,2.5788,2.5246,2.5147,2.4801,2.4212,2.405,2.387,2.3619,2.3381,2.3225,2.3225,2.3143,2.284,2.2345,2.1982,2.1389,2.0628,2.0567,2.0555,2.0555,2.0555,2.0809,2.1317,2.1244,2.1293,2.1559,2.1813,2.2018,2.2139,2.2971,2.3759,2.4396,2.4881,2.4995,2.4537,2.4631,2.4736,2.4738,2.5278,2.5696,2.5926,2.6128,2.6382,2.6757,2.6853,2.6907,2.6894,2.6707,2.6587,2.6613,2.66,2.6533,2.64,2.6507,2.6547,2.6386,2.6253,2.6185,2.6038,2.6131,2.6226,2.636,2.6386,2.5938,2.5211,2.4985,2.4614,2.3804,2.2952,2.2413,2.2282,2.1515,2.0835,1.9906,1.8987,1.825,1.7492,1.6607,1.6089,1.6007,1.6007,1.6007,1.6007,1.6007,1.5942,2.8192,2.8192,2.8192,2.8087,2.7942,2.7851,2.7716,2.7539,2.7525,2.7068,2.6319,2.5999,2.6159,2.656,2.6587,2.6587,2.6613,2.6814,2.68,2.6627,2.6814,2.6921,2.6947,2.7161,2.7309,2.7309,2.7309,2.7105,2.6805,2.6816,2.6663,2.6239,2.586,2.5415,2.4839,2.4839,2.4585,2.4158,2.3769,2.3463,2.3263,2.3263,2.3143,2.2877,2.2671,2.2283,2.1813,2.1571,2.145,2.145,2.145,2.168,2.2127,2.2163,2.226,2.2478,2.2856,2.3214,2.3477,2.4368,2.5076,2.5425,2.5906,2.6179,2.6105,2.596,2.5789,2.585,2.6103,2.6449,2.6734,2.6777,2.6954,2.7348,2.7336,2.7242,2.7148,2.6961,2.6787,2.6747,2.6573,2.6413,2.6453,2.6426,2.64,2.64,2.644,2.6373,2.6159,2.6056,2.5884,2.5832,2.5819,2.5053,2.3544,2.3208,2.2676,2.1278,2.0856,2.0621,2.0386,2.0268,1.9503,1.8096,1.7895,1.7433,1.6328,1.6007,1.6007,1.6007,1.6007,1.6007,1.6007,1.6007,1.5966,2.8192,2.8192,2.8221,2.8389,2.8727,2.9105,2.8897,2.8359,2.829,2.7893,2.7216,2.7148,2.7148,2.7229,2.7215,2.7202,2.7202,2.7255,2.7242,2.7215,2.7255,2.7269,2.7228,2.7309,2.7309,2.7336,2.7336,2.7321,2.7281,2.7466,2.7378,2.6937,2.6318,2.5947,2.5839,2.5839,2.5621,2.517,2.5133,2.467,2.3804,2.3728,2.3607,2.3354,2.3318,2.3092,2.2611,2.26,2.2538,2.2538,2.2538,2.2671,2.2937,2.2973,2.2985,2.3072,2.3847,2.4699,2.5552,2.6042,2.6118,2.5991,2.6469,2.6687,2.6635,2.7012,2.7077,2.6731,2.6928,2.7292,2.7519,2.7359,2.7374,2.7629,2.7496,2.7161,2.6987,2.68,2.6787,2.6787,2.6613,2.6493,2.668,2.6547,2.64,2.64,2.664,2.6653,2.6268,2.5361,2.4457,2.4181,2.4016,2.3178,2.1714,2.1362,2.1071,2.0753,1.9705,1.8909,1.8461,1.7607,1.6393,1.6802,1.6367,1.632,1.6163,1.6007,1.6007,1.6007,1.6007,1.6007,1.6007,1.6007,1.5983,2.8318,2.8571,2.8571,2.8824,2.9188,2.9439,2.9328,2.9049,2.8771,2.8439,2.8177,2.7956,2.7643,2.7322,2.7483,2.7469,2.7322,2.7483,2.7469,2.7336,2.7483,2.7522,2.7576,2.775,2.7831,2.7831,2.7831,2.7831,2.7844,2.7938,2.7799,2.7473,2.712,2.6783,2.6421,2.6354,2.6039,2.5339,2.5298,2.4968,2.4376,2.427,2.4222,2.4101,2.3957,2.3704,2.3393,2.3212,2.3128,2.314,2.3273,2.3406,2.3514,2.3804,2.4033,2.4191,2.4954,2.5628,2.6185,2.6617,2.6861,2.6871,2.733,2.7609,2.7566,2.7764,2.7777,2.7634,2.7747,2.7884,2.7965,2.7898,2.7871,2.7965,2.7898,2.7764,2.767,2.7428,2.7335,2.7308,2.6934,2.668,2.6747,2.6573,2.6413,2.6453,2.676,2.6894,2.6454,2.5397,2.4127,2.2656,2.1521,2.0481,1.9604,1.9374,1.8946,1.7992,1.7222,1.675,1.667,1.641,1.5894,1.5821,1.5918,1.5983,1.6048,1.6007,1.6007,1.6007,1.6007,1.6007,1.6007,1.6007,1.5925,2.8529,2.8824,2.9076,2.937,2.9705,2.9816,2.9732,2.9481,2.916,2.8866,2.8613,2.8318,2.7951,2.7617,2.7736,2.7696,2.759,2.7722,2.775,2.7576,2.7736,2.7816,2.7884,2.8072,2.8192,2.8192,2.8179,2.8179,2.8192,2.8192,2.8072,2.7884,2.7816,2.7543,2.7109,2.7041,2.6669,2.5978,2.5895,2.5645,2.5134,2.5134,2.5031,2.4625,2.4403,2.4291,2.4231,2.3876,2.378,2.3899,2.4122,2.4219,2.4243,2.4706,2.5153,2.5489,2.601,2.6488,2.6842,2.7203,2.7504,2.7701,2.8023,2.8192,2.8192,2.8192,2.8192,2.8165,2.8192,2.8165,2.8192,2.8192,2.8192,2.8192,2.8192,2.8165,2.8031,2.7802,2.7682,2.7655,2.7148,2.6747,2.6654,2.652,2.644,2.672,2.7041,2.7242,2.6571,2.5355,2.3572,2.1746,1.9578,1.7991,1.7718,1.7545,1.6656,1.6041,1.5599,1.5688,1.5432,1.5593,1.5699,1.5675,1.5821,1.595,1.5991,1.6007,1.5966,1.6007,1.5966,1.5925,1.5793,1.5834,1.5628,2.8782,2.895,2.9747,3.0137,3.0221,3.054,3.0234,2.9579,2.9481,2.902,2.8361,2.8234,2.8165,2.8112,2.8125,2.8152,2.8138,2.8125,2.8125,2.8098,2.8138,2.8165,2.8165,2.8179,2.8192,2.8192,2.8192,2.8192,2.8192,2.8192,2.8179,2.8152,2.8138,2.8138,2.8056,2.8001,2.7886,2.7324,2.7256,2.6901,2.6169,2.6436,2.5961,2.4887,2.4625,2.4848,2.5112,2.4783,2.4717,2.5182,2.5182,2.5207,2.5248,2.5656,2.6249,2.6841,2.6989,2.7357,2.793,2.8054,2.8123,2.8136,2.815,2.8192,2.8192,2.8192,2.8192,2.8192,2.8192,2.8192,2.8192,2.8192,2.8192,2.8192,2.8192,2.8072,2.7776,2.7749,2.7709,2.7629,2.7147,2.6707,2.6466,2.64,2.6667,2.7055,2.7282,2.7362,2.7041,2.4783,2.2693,2.1283,1.8888,1.6114,1.5967,1.6096,1.577,1.5325,1.5325,1.5399,1.5359,1.5343,1.5432,1.5569,1.5699,1.5837,1.5942,1.5966,1.5966,1.5966,1.5925,1.5842,1.5463,1.5422,1.5216,2.916,2.9761,3.0332,3.0582,3.0582,3.0749,3.0499,2.9914,2.9649,2.916,2.8613,2.8318,2.8192,2.8192,2.8192,2.8192,2.8192,2.8192,2.8192,2.8192,2.8192,2.8192,2.8192,2.8192,2.8192,2.8192,2.8192,2.8192,2.8192,2.8192,2.8192,2.8192,2.8192,2.8192,2.8192,2.8192,2.8061,2.7807,2.7578,2.7255,2.6841,2.68,2.6512,2.6041,2.5854,2.5849,2.6016,2.5674,2.5586,2.5751,2.5915,2.594,2.5842,2.6341,2.6906,2.7333,2.7612,2.7917,2.8165,2.8192,2.8192,2.8192,2.8192,2.8192,2.8192,2.8192,2.8192,2.8192,2.8192,2.8192,2.8192,2.8192,2.8192,2.8192,2.8179,2.8152,2.8018,2.7829,2.7709,2.7615,2.7188,2.668,2.6547,2.6547,2.6814,2.7188,2.7415,2.7575,2.7142,2.474,2.2406,2.1505,1.8801,1.6186,1.6137,1.5674,1.5293,1.5194,1.5161,1.5212,1.5181,1.5213,1.5294,1.561,1.5739,1.5715,1.5845,1.5949,1.5908,1.5628,1.5587,1.5422,1.5051,1.4968,1.4762,2.9818,3.0518,3.0751,3.0776,3.0776,3.0776,3.0499,2.9956,2.9663,2.9146,2.8613,2.8318,2.8192,2.8192,2.8192,2.8245,2.8312,2.8245,2.8192,2.8192,2.8192,2.8192,2.8192,2.8192,2.8192,2.8192,2.8192,2.8192,2.8192,2.8192,2.8245,2.8339,2.8339,2.8393,2.8446,2.8393,2.8233,2.8083,2.783,2.7647,2.7427,2.7319,2.7216,2.7127,2.7036,2.6894,2.6768,2.6463,2.6319,2.6469,2.6665,2.6469,2.5929,2.6263,2.6622,2.683,2.7067,2.7575,2.8094,2.8192,2.8192,2.8192,2.8192,2.8192,2.8192,2.8192,2.8192,2.8192,2.8192,2.8192,2.8192,2.8192,2.8192,2.8192,2.8192,2.8192,2.8179,2.8005,2.7816,2.7682,2.7388,2.7014,2.676,2.6867,2.7094,2.7416,2.7589,2.7709,2.7425,2.4944,2.2546,2.197,1.8954,1.6776,1.6227,1.578,1.5391,1.526,1.5112,1.5106,1.5147,1.5179,1.5317,1.5601,1.5748,1.5699,1.5723,1.585,1.5634,1.528,1.5133,1.501,1.4721,1.4514,1.4307,3.0849,3.1157,3.0964,3.0805,3.079,3.0734,3.0276,2.9607,2.9481,2.8978,2.8318,2.8192,2.8192,2.8192,2.8192,2.8339,2.8486,2.8326,2.8232,2.8232,2.8232,2.8205,2.8192,2.8259,2.8286,2.8286,2.8232,2.8219,2.8259,2.8299,2.8406,2.8564,2.8604,2.8711,2.8961,2.8738,2.8617,2.8575,2.8361,2.8151,2.7968,2.8066,2.8039,2.7912,2.8013,2.7923,2.7529,2.7054,2.7015,2.7379,2.749,2.6813,2.5665,2.5379,2.5373,2.5543,2.5513,2.6376,2.7926,2.8192,2.8192,2.8192,2.8192,2.8192,2.8192,2.8192,2.8192,2.8192,2.8192,2.8192,2.8192,2.8192,2.8192,2.8192,2.8192,2.8192,2.8179,2.8165,2.8058,2.7736,2.7562,2.7535,2.7376,2.7282,2.7416,2.7575,2.7722,2.7829,2.7722,2.4966,2.2867,2.1831,1.9334,1.6745,1.6282,1.5975,1.5659,1.5375,1.5204,1.5153,1.5155,1.5204,1.5382,1.5642,1.5829,1.5796,1.5628,1.5695,1.5443,1.5127,1.4901,1.46,1.4317,1.4075,1.3901,3.1392,3.1315,3.1212,3.098,3.0805,3.0499,3.0039,2.9481,2.9146,2.8684,2.8263,2.8192,2.8192,2.8192,2.8192,2.8245,2.8326,2.8433,2.8457,2.8457,2.8457,2.8393,2.8299,2.8564,2.8764,2.8764,2.8764,2.8751,2.8751,2.8738,2.8818,2.8855,2.8868,2.8908,2.9015,2.8908,2.8991,2.9152,2.8911,2.8825,2.8977,2.8825,2.8625,2.8446,2.8612,2.8598,2.8257,2.796,2.7854,2.7994,2.7981,2.7194,2.5586,2.4166,2.4081,2.5203,2.5373,2.6248,2.7883,2.8192,2.8192,2.8192,2.8192,2.8192,2.8192,2.8192,2.8192,2.8192,2.8192,2.8192,2.8192,2.8192,2.8179,2.8179,2.8192,2.8192,2.8165,2.8018,2.7764,2.751,2.7443,2.7389,2.7389,2.7456,2.7602,2.7709,2.7869,2.8085,2.7633,2.499,2.274,2.2225,1.9235,1.6863,1.6534,1.6299,1.6039,1.5723,1.5504,1.5252,1.526,1.5285,1.5472,1.5626,1.5804,1.5768,1.5594,1.5444,1.521,1.4865,1.4561,1.4224,1.3853,1.3693,1.3624,3.1783,3.1505,3.149,3.13,3.0953,3.0634,3.024,2.9691,2.9323,2.8775,2.8317,2.8312,2.8353,2.8353,2.8353,2.8419,2.8484,2.8684,2.8764,2.8764,2.8764,2.8657,2.8524,2.8831,2.9001,2.9001,2.9001,2.9001,2.9001,2.9001,2.9055,2.9148,2.9161,2.9228,2.9325,2.9215,2.9312,2.9419,2.9135,2.9179,2.9339,2.9085,2.8801,2.8748,2.8801,2.8791,2.8604,2.8511,2.846,2.8183,2.7653,2.6291,2.4477,2.3309,2.3438,2.4947,2.5501,2.6193,2.7883,2.8192,2.8192,2.8192,2.8192,2.8192,2.8192,2.8192,2.8192,2.8192,2.8192,2.8192,2.8192,2.8192,2.7926,2.7194,2.7799,2.8136,2.8194,2.8018,2.7871,2.7724,2.767,2.763,2.7684,2.7764,2.7911,2.7938,2.8058,2.8192,2.7448,2.4947,2.3524,2.1792,1.9225,1.7619,1.6887,1.6615,1.6412,1.6154,1.5861,1.5601,1.5455,1.5447,1.5505,1.5583,1.5731,1.5535,1.5343,1.5263,1.5108,1.4664,1.4195,1.3991,1.378,1.3703,1.3641,3.2149,3.1871,3.1827,3.1637,3.1303,3.1123,3.0681,3.0141,2.9764,2.9213,2.8576,2.8567,2.8674,2.8674,2.8674,2.8751,2.8948,2.9045,2.9015,2.9028,2.9055,2.9055,2.9068,2.9081,2.9095,2.9121,2.9148,2.9148,2.9228,2.9215,2.9259,2.9539,2.9553,2.9659,2.9793,2.9646,2.9539,2.9566,2.9299,2.9255,2.9499,2.9018,2.8791,2.8961,2.8845,2.8738,2.8711,2.8885,2.8798,2.8218,2.6325,2.4566,2.3063,2.2536,2.3094,2.5117,2.5373,2.6193,2.7575,2.7757,2.7575,2.7321,2.7532,2.8052,2.7799,2.7968,2.8192,2.8192,2.8192,2.8192,2.8192,2.7883,2.7152,2.6024,2.6842,2.7659,2.7968,2.7997,2.8098,2.8125,2.8165,2.8165,2.8098,2.8125,2.8138,2.8152,2.8165,2.8179,2.7448,2.5458,2.3223,2.1221,1.9271,1.7808,1.6898,1.6858,1.6663,1.6469,1.6251,1.6048,1.5748,1.5707,1.557,1.5668,1.5554,1.5288,1.5087,1.5045,1.4758,1.4313,1.4,1.3858,1.3788,1.3754,1.3707,3.2807,3.25,3.2266,3.1973,3.1652,3.1253,3.0995,3.0694,3.0032,2.9788,2.968,2.9144,2.9098,2.9358,2.9055,2.8935,2.9041,2.9285,2.9366,2.9406,2.9606,2.9673,2.9633,2.9472,2.9499,2.9686,2.986,3.0007,3.0007,2.9967,3.0034,3.0159,2.9927,2.9967,3.0154,2.9953,2.994,3.0105,2.9833,2.9668,2.974,2.9459,2.9179,2.9001,2.9179,2.9138,2.8948,2.9205,2.84,2.6568,2.4716,2.34,2.2751,2.1694,2.2471,2.5013,2.5525,2.561,2.6121,2.6346,2.5653,2.4392,2.5933,2.6109,2.6193,2.7448,2.8052,2.8192,2.8192,2.8192,2.7968,2.6927,2.5939,2.5641,2.6024,2.6363,2.663,2.7363,2.8192,2.8192,2.8192,2.8192,2.8192,2.8192,2.8192,2.8192,2.8192,2.8179,2.7448,2.516,2.2622,2.1501,1.9855,1.8121,1.702,1.7011,1.6922,1.6768,1.6615,1.6568,1.629,1.6145,1.5921,1.5782,1.5455,1.5178,1.4943,1.4779,1.4348,1.4037,1.4014,1.4007,1.3966,1.3926,1.3851,3.3188,3.2822,3.2705,3.2427,3.196,3.1627,3.1439,3.1223,3.0697,3.0237,3.0113,2.9746,2.9569,2.9569,2.932,2.9232,2.9272,2.9659,2.9713,2.9597,2.99,3.0074,3.0087,3.0007,3.0127,3.0274,3.0461,3.0528,3.0574,3.0541,3.0541,3.0515,3.0368,3.0381,3.0515,3.0394,3.0354,3.0488,3.0368,3.0287,3.0261,3.0007,2.9713,2.9526,2.97,2.9793,2.9748,2.9953,2.8839,2.6619,2.5083,2.4298,2.3887,2.3032,2.3778,2.6551,2.6778,2.6815,2.6874,2.6899,2.6413,2.5699,2.6339,2.6607,2.6966,2.7709,2.8192,2.8192,2.8192,2.7799,2.6842,2.5331,2.4776,2.5245,2.5373,2.5726,2.6418,2.7575,2.8094,2.8192,2.8192,2.8192,2.8192,2.8192,2.8192,2.8192,2.8192,2.8192,2.7799,2.4776,2.2492,2.163,1.9917,1.7876,1.7096,1.7044,1.7036,1.6914,1.6771,1.6766,1.6553,1.6325,1.5916,1.5566,1.5333,1.5034,1.47,1.4469,1.4329,1.4153,1.4187,1.4156,1.4116,1.4014,1.3946,3.3436,3.2939,3.3188,3.2939,3.2398,3.219,3.2,3.1725,3.1427,3.1081,3.0772,3.0592,3.0865,3.0263,3.1067,3.0274,3.0049,3.0745,3.0272,3.0142,3.0207,3.0488,3.0515,3.0581,3.0648,3.0715,3.0795,3.0835,3.0835,3.0835,3.0835,3.0808,3.0782,3.0795,3.0795,3.0782,3.0795,3.0822,3.0742,3.0688,3.0635,3.0453,3.0127,2.9993,3.0159,3.044,3.0568,3.0583,2.9612,2.7238,2.6689,2.6058,2.5805,2.5733,2.6654,2.7986,2.8357,2.8393,2.8461,2.81,2.8195,2.7595,2.7646,2.8343,2.799,2.8063,2.8286,2.8299,2.8205,2.7363,2.5853,2.3995,2.4092,2.5075,2.5373,2.6291,2.7672,2.8192,2.8192,2.8192,2.8192,2.8192,2.8192,2.8192,2.8192,2.8192,2.8192,2.8192,2.7321,2.4819,2.318,2.2406,2.0125,1.7367,1.7112,1.7112,1.706,1.702,1.6872,1.6721,1.6502,1.6171,1.5659,1.5258,1.4966,1.4635,1.4256,1.4128,1.426,1.4227,1.4183,1.4238,1.4265,1.4109,1.4007,3.399,3.389,3.37,3.3348,3.3041,3.298,3.279,3.2499,3.207,3.2749,3.3653,3.3144,3.3656,3.5095,3.438,3.3886,3.2269,3.2415,3.2166,3.0654,3.0862,3.1022,3.0996,3.0929,3.0822,3.0875,3.1049,3.1129,3.1129,3.1129,3.1129,3.1116,3.0969,3.0915,3.1089,3.0955,3.0915,3.1049,3.0929,3.0849,3.0808,3.0641,3.0453,3.0373,3.0413,3.0574,3.0728,3.0795,3.0398,2.9423,2.8051,2.6974,2.6526,2.6372,2.7172,2.8417,2.8865,2.8356,2.726,2.7002,2.625,2.5336,2.6345,2.6778,2.6897,2.7982,2.8438,2.8457,2.8297,2.7402,2.5896,2.516,2.5075,2.5416,2.5641,2.6248,2.7714,2.8192,2.8192,2.8192,2.8192,2.8192,2.8192,2.8192,2.8192,2.8192,2.8192,2.8192,2.6715,2.4819,2.3567,2.2579,1.9786,1.72,1.7112,1.7068,1.7024,1.6936,1.6797,1.6437,1.6222,1.638,1.5992,1.535,1.4636,1.4278,1.4016,1.4374,1.4625,1.4426,1.44,1.4662,1.4787,1.4493,1.4125,3.4312,3.429,3.5,3.4562,3.3721,3.4337,3.4112,3.3324,3.3888,3.4374,3.4847,3.4997,3.582,3.6491,3.6187,3.5047,3.3497,3.2583,3.1946,3.1256,3.1263,3.1289,3.141,3.1303,3.1256,3.1223,3.1356,3.1436,3.1436,3.1423,3.1436,3.1436,3.1263,3.1303,3.141,3.1276,3.1303,3.1383,3.1289,3.1209,3.1169,3.1109,3.1015,3.0975,3.0862,3.0902,3.1183,3.1209,3.1049,3.0538,2.9533,2.8525,2.7909,2.7769,2.8354,2.8982,2.9202,2.8388,2.7142,2.6512,2.5854,2.397,2.538,2.6121,2.6768,2.7864,2.8622,2.8617,2.8414,2.7843,2.6825,2.5683,2.5768,2.6588,2.6673,2.7194,2.7926,2.8192,2.8192,2.8192,2.8192,2.8192,2.8192,2.8192,2.8192,2.8192,2.8192,2.8136,2.7194,2.5288,2.3481,2.1846,1.909,1.7279,1.7156,1.7024,1.6936,1.6797,1.6577,1.6093,1.5637,1.6043,1.6459,1.5709,1.4966,1.4263,1.4066,1.4512,1.5452,1.5724,1.5879,1.569,1.5345,1.498,1.4495,3.4549,3.447,3.6387,3.5972,3.4607,3.6202,3.5995,3.4557,3.6069,3.6327,3.5609,3.7172,3.7708,3.7321,3.7485,3.6234,3.429,3.2545,3.2017,3.1611,3.141,3.1463,3.1583,3.1644,3.1631,3.1711,3.1684,3.1684,3.1684,3.1711,3.161,3.1711,3.1764,3.165,3.1711,3.1831,3.1778,3.1684,3.1711,3.1637,3.1657,3.1631,3.1604,3.155,3.1383,3.1356,3.1577,3.1617,3.149,3.1236,3.0996,3.0461,2.9913,2.9566,2.9553,2.9553,2.9553,2.8953,2.788,2.7189,2.624,2.4591,2.5692,2.6518,2.6949,2.8028,2.8827,2.8858,2.8668,2.8508,2.813,2.7127,2.6919,2.7643,2.8136,2.8192,2.8192,2.8192,2.8192,2.8192,2.8192,2.8192,2.8192,2.8192,2.8192,2.8192,2.8192,2.7968,2.7109,2.5853,2.4038,2.2191,1.9743,1.8453,1.8235,1.8085,1.7814,1.8042,1.7507,1.6936,1.6409,1.7135,1.7627,1.6214,1.54,1.5169,1.5602,1.6668,1.7331,1.7457,1.7395,1.7307,1.655,1.5592,1.501,3.468,3.4762,3.6683,3.6903,3.6474,3.8446,3.8578,3.7614,3.8201,3.8838,3.9188,3.9675,4.0396,4.0891,4.1596,3.995,3.6739,3.4512,3.2901,3.1948,3.1597,3.1711,3.1698,3.1818,3.1778,3.1724,3.1764,3.1791,3.1724,3.1724,3.1764,3.1778,3.1965,3.1944,3.1965,3.2126,3.2152,3.1912,3.1979,3.1931,3.1845,3.1805,3.1778,3.1778,3.1664,3.1738,3.1724,3.1724,3.153,3.1249,3.1183,3.0929,3.0528,3.01,2.9913,2.9887,2.9887,2.9536,2.8854,2.7752,2.7036,2.6604,2.6728,2.6795,2.7231,2.8367,2.9229,2.9245,2.9045,2.8831,2.8564,2.7997,2.7994,2.8257,2.8219,2.8205,2.8192,2.8192,2.8192,2.8192,2.8192,2.8192,2.8192,2.8192,2.8192,2.8192,2.8192,2.8192,2.7757,2.6333,2.4605,2.2751,2.0862,2.0047,1.9569,1.9388,1.9276,2.008,1.9905,1.939,1.9066,1.9283,1.8949,1.8018,1.7836,1.8105,1.8609,1.8965,1.9244,1.9386,1.9177,1.8959,1.8122,1.72,1.5716,3.471,3.5023,3.7867,3.8298,3.7766,4.0435,4.0745,3.9494,4.0588,4.0988,4.1067,4.1792,4.2401,4.2685,4.2812,4.0934,3.7771,3.5508,3.3558,3.2056,3.181,3.1797,3.1805,3.1992,3.2045,3.2045,3.2024,3.1965,3.1764,3.1837,3.1877,3.1957,3.2185,3.23,3.2246,3.242,3.2433,3.2233,3.2286,3.2313,3.2166,3.2152,3.2099,3.1957,3.2086,3.2166,3.2139,3.1992,3.1851,3.1664,3.1336,3.1136,3.0942,3.0662,3.0368,3.0368,3.0354,2.984,2.9097,2.7757,2.6652,2.4756,2.6076,2.6779,2.6949,2.8037,2.9672,2.9468,2.9188,2.8948,2.8788,2.8801,2.8684,2.8457,2.8419,2.8353,2.8245,2.8205,2.8219,2.8232,2.8232,2.8232,2.8192,2.8192,2.8192,2.8192,2.8192,2.8192,2.8192,2.6885,2.5257,2.3892,2.2222,2.1266,2.0904,2.0909,2.105,2.1846,2.2042,2.1518,2.1269,2.1249,2.1072,2.0582,2.0655,2.0612,2.0342,2.0269,2.0775,2.1305,2.1175,2.0819,1.9845,1.8697,1.7118,3.471,3.5023,3.8448,3.8993,3.8259,4.1726,4.2236,4.1152,4.2864,4.289,4.1822,4.323,4.3653,4.3008,4.211,4.0393,3.7068,3.5135,3.3558,3.2083,3.1851,3.1851,3.1925,3.2152,3.2326,3.2118,3.238,3.2313,3.1992,3.2112,3.2131,3.2198,3.2474,3.2634,3.2594,3.2741,3.2701,3.2621,3.2674,3.2674,3.2607,3.2581,3.2447,3.2171,3.2433,3.2514,3.2273,3.2144,3.2011,3.1837,3.1597,3.1316,3.1276,3.1089,3.0969,3.0955,3.0875,2.9904,2.9018,2.796,2.669,2.4725,2.6374,2.6572,2.6876,2.8369,2.9986,2.9365,2.9393,2.8886,2.8525,2.8912,2.8958,2.8735,2.8671,2.8604,2.8404,2.8379,2.8419,2.8393,2.8339,2.8299,2.8272,2.8192,2.8192,2.8192,2.8192,2.8192,2.8094,2.7448,2.6133,2.512,2.3789,2.2554,2.2181,2.2471,2.2888,2.3731,2.3688,2.3325,2.3085,2.2878,2.276,2.2729,2.2395,2.2266,2.1877,2.1877,2.2697,2.317,2.317,2.2557,2.1371,1.9768,1.8025,3.471,3.4882,3.7038,3.7538,3.7711,4.153,4.2835,4.2243,4.4201,4.4588,4.3229,4.3721,4.3597,4.2508,4.1226,3.8566,3.5958,3.4762,3.3558,3.1975,3.177,3.177,3.1764,3.1984,3.2211,3.2225,3.2487,3.2345,3.2225,3.2433,3.2407,3.2318,3.2652,3.2875,3.2768,3.3,3.3026,3.2741,3.2862,3.2862,3.2661,3.2634,3.2487,3.2318,3.2398,3.2474,3.2193,3.2131,3.2091,3.1784,3.169,3.161,3.161,3.1644,3.1617,3.1457,3.1142,3.0703,3.0141,2.9132,2.8,2.6747,2.7789,2.7775,2.817,2.8951,2.988,2.8084,2.9221,2.9403,2.8533,2.8943,2.926,2.9245,2.9045,2.8871,2.8657,2.8604,2.8644,2.8644,2.8617,2.8457,2.8393,2.8272,2.8192,2.8192,2.8192,2.8192,2.8134,2.7598,2.682,2.5711,2.5406,2.4277,2.3688,2.393,2.4494,2.5398,2.5183,2.4907,2.4716,2.4525,2.4867,2.4771,2.4287,2.3978,2.3826,2.4084,2.4823,2.478,2.4341,2.3654,2.274,2.0915,1.8794,3.471,3.4882,3.6776,3.7496,3.7705,4.052,4.221,4.2968,4.3896,4.4529,4.4459,4.3651,4.2263,4.049,3.9192,3.7345,3.5089,3.4575,3.3511,3.2144,3.1845,3.1872,3.1824,3.2166,3.2407,3.2474,3.2612,3.2772,3.2666,3.2692,3.2706,3.2679,3.2986,3.3187,3.2986,3.3267,3.3253,3.3133,3.3146,3.3066,3.2919,3.2919,3.2879,3.2625,3.2866,3.2719,3.2505,3.2492,3.2345,3.2038,3.1917,3.1917,3.1864,3.1845,3.1818,3.2166,3.1671,3.133,3.1162,3.0405,2.952,2.8919,2.9237,3.0037,3.0023,3.016,3.0492,2.9633,3.0123,2.9828,2.9128,2.9906,2.9835,2.9753,2.9513,2.9245,2.9045,2.8921,2.8908,2.8908,2.8734,2.8225,2.7952,2.8109,2.8158,2.8446,2.8366,2.8272,2.8326,2.8223,2.7281,2.6207,2.6192,2.6122,2.5654,2.5527,2.5867,2.6427,2.6339,2.6148,2.614,2.6162,2.6102,2.5897,2.5283,2.5196,2.5463,2.5305,2.5177,2.5263,2.5348,2.4181,2.2869,2.1065,1.8846,3.471,3.4835,3.6282,3.6915,3.7084,3.8951,4.0526,4.1833,4.2461,4.3211,4.3497,4.2362,4.0226,3.8235,3.7345,3.6205,3.4309,3.4262,3.3431,3.2551,3.2232,3.232,3.2449,3.2678,3.2816,3.2897,3.2995,3.3053,3.308,3.308,3.304,3.3,3.32,3.3347,3.3387,3.34,3.336,3.336,3.336,3.3267,3.316,3.3267,3.3187,3.3133,3.3187,3.3213,3.2853,3.2919,3.2666,3.2198,3.2078,3.2064,3.2038,3.1931,3.1938,3.2179,3.1925,3.1831,3.1711,3.1299,3.0795,3.0449,3.0306,3.097,3.0213,3.0478,2.9426,2.7982,2.9475,2.9496,2.9669,2.9889,3.0562,3.0301,3.0047,2.974,2.9278,2.8632,2.8137,2.789,2.7579,2.7123,2.7095,2.7659,2.8082,2.8539,2.8551,2.8419,2.8513,2.8631,2.8165,2.7209,2.7036,2.7187,2.6856,2.6795,2.7238,2.7267,2.7123,2.7012,2.6798,2.6572,2.6379,2.6162,2.5957,2.5764,2.5644,2.5511,2.5348,2.522,2.4921,2.3998,2.2654,2.0781,1.8681,3.471,3.471,3.4882,3.4976,3.5148,3.6945,3.7897,3.8677,4.0073,4.0543,4.047,3.9561,3.8281,3.6622,3.5988,3.5057,3.3351,3.3304,3.3163,3.3083,3.3125,3.3164,3.3215,3.3278,3.3412,3.356,3.3516,3.3366,3.336,3.3357,3.3236,3.3066,3.3293,3.3374,3.3414,3.3414,3.3414,3.3414,3.3414,3.3414,3.3347,3.336,3.3267,3.3133,3.3187,3.3053,3.2278,3.2746,3.2772,3.2211,3.2225,3.2225,3.2251,3.2131,3.2166,3.2233,3.234,3.2206,3.2032,3.1845,3.1629,3.1534,3.1223,3.0626,2.943,2.8614,2.6879,2.5062,2.7415,2.7818,2.7901,2.8443,3.0624,3.0571,3.0168,2.9508,2.875,2.7594,2.7123,2.6788,2.6411,2.5934,2.5796,2.6292,2.7297,2.7785,2.8798,2.8711,2.8938,2.9068,2.9035,2.8519,2.8142,2.7903,2.7612,2.7435,2.6814,2.703,2.7227,2.7148,2.7063,2.6837,2.662,2.6499,2.6295,2.6054,2.5868,2.5728,2.5522,2.5023,2.4332,2.3183,2.1346,1.9176,1.7299,3.471,3.471,3.471,3.471,3.4742,3.5521,3.6498,3.7575,3.8402,3.8631,3.8402,3.7805,3.6575,3.515,3.4417,3.3995,3.3257,3.321,3.3224,3.3294,3.3406,3.3561,3.3689,3.3878,3.3949,3.4142,3.3913,3.3765,3.3887,3.355,3.3374,3.332,3.336,3.3387,3.3414,3.3414,3.3414,3.3414,3.3414,3.3414,3.3414,3.3414,3.336,3.3293,3.3307,3.316,3.2799,3.304,3.2839,3.2585,3.2559,3.2572,3.2545,3.25,3.25,3.2519,3.2688,3.2541,3.242,3.2166,3.1864,3.1392,3.0544,2.9434,2.838,2.7339,2.6186,2.5689,2.6401,2.6982,2.7974,2.9652,3.1336,3.0802,3.0008,2.9081,2.8035,2.6689,2.5714,2.5232,2.506,2.4807,2.4754,2.4828,2.594,2.7049,2.8158,2.9095,2.9348,2.9295,2.918,2.8467,2.7896,2.7435,2.7091,2.6619,2.6133,2.6618,2.7157,2.7353,2.7317,2.703,2.6837,2.674,2.6632,2.6391,2.6174,2.5993,2.5619,2.5,2.3652,2.206,1.9939,1.7604,1.6288,3.471,3.4724,3.4797,3.4841,3.4841,3.4841,3.5609,3.6684,3.6885,3.6807,3.673,3.6251,3.5476,3.4291,3.3883,3.3789,3.3832,3.3842,3.3837,3.4012,3.4231,3.4335,3.4347,3.4337,3.4423,3.4619,3.411,3.3801,3.41,3.365,3.3437,3.3387,3.3414,3.3414,3.3414,3.3414,3.3414,3.3414,3.3414,3.3414,3.3414,3.3414,3.3414,3.3387,3.34,3.324,3.308,3.316,3.3106,3.2942,3.2826,3.2933,3.2893,3.2853,3.2879,3.2946,3.3,3.2853,3.2768,3.2519,3.2051,3.1553,2.9942,2.8741,2.743,2.5765,2.4143,2.3375,2.5163,2.6817,2.7021,2.7996,2.8977,2.8235,2.7735,2.691,2.6275,2.5236,2.4372,2.3644,2.3172,2.2379,2.2675,2.2856,2.5145,2.6776,2.8893,2.9721,2.9962,2.9741,2.913,2.8155,2.698,2.6549,2.6182,2.5716,2.5404,2.5991,2.6608,2.7491,2.7546,2.7295,2.715,2.7078,2.6933,2.6716,2.6223,2.5668,2.5281,2.494,2.2829,2.025,1.8352,1.6186,1.5824,3.471,3.4739,3.5064,3.5181,3.5167,3.5196,3.5276,3.5516,3.5469,3.5336,3.5128,3.4973,3.4973,3.4645,3.4533,3.4501,3.4559,3.4842,3.5006,3.5046,3.5198,3.5633,3.5419,3.5123,3.4956,3.5161,3.4507,3.3896,3.425,3.3664,3.3464,3.3414,3.3414,3.3414,3.3414,3.3414,3.3414,3.3414,3.3414,3.3414,3.3467,3.3454,3.3414,3.3494,3.3427,3.328,3.3187,3.328,3.3227,3.3116,3.3013,3.3066,3.3026,3.3013,3.2982,3.2795,3.316,3.3066,3.2701,3.2559,3.2014,3.1199,2.937,2.7696,2.5707,2.3697,2.1965,2.1322,2.2289,2.3053,2.3579,2.464,2.5878,2.6209,2.5766,2.4987,2.4402,2.3377,2.2423,2.1877,2.0404,1.9287,1.9836,2.0908,2.3874,2.6387,2.9148,3.0156,2.9906,2.951,2.8579,2.6722,2.5356,2.5424,2.5046,2.4822,2.4799,2.5348,2.6358,2.7546,2.8017,2.7836,2.7679,2.7522,2.7285,2.7049,2.6118,2.5139,2.3942,2.2454,2.0305,1.8031,1.6217,1.5267,1.5228,3.471,3.4739,3.5079,3.5211,3.524,3.5445,3.5416,3.5225,3.5196,3.5152,3.5079,3.5049,3.5049,3.5002,3.5017,3.5031,3.5075,3.5372,3.5533,3.5577,3.5807,3.5725,3.5557,3.5548,3.5493,3.538,3.4612,3.4164,3.4712,3.3864,3.3464,3.3414,3.3414,3.3414,3.3414,3.3414,3.3414,3.3414,3.3427,3.3494,3.3668,3.3547,3.3521,3.3681,3.3534,3.3374,3.3253,3.3374,3.3334,3.324,3.3227,3.3227,3.324,3.324,3.32,3.3106,3.3387,3.3227,3.2541,3.1931,3.0739,2.9677,2.8208,2.6162,2.4008,2.1741,2.0282,2.0024,2.1058,2.1955,2.2848,2.4445,2.5502,2.5308,2.4767,2.3563,2.2635,2.1222,2.0138,2.0001,1.9069,1.8915,1.9212,2.0206,2.2691,2.4999,2.7616,2.8049,2.7836,2.7874,2.7275,2.4875,2.3442,2.3797,2.3935,2.4369,2.5561,2.6777,2.7548,2.8475,2.8632,2.8379,2.8246,2.8125,2.7733,2.7296,2.5412,2.3458,2.1283,1.9398,1.8163,1.7195,1.6055,1.5486,1.5479,3.4768,3.4885,3.524,3.5445,3.5514,3.5719,3.5631,3.5386,3.5269,3.5211,3.5196,3.5163,3.5284,3.5343,3.5386,3.5339,3.5416,3.5709,3.5855,3.5851,3.6144,3.6079,3.5935,3.574,3.5713,3.5508,3.4862,3.4413,3.4563,3.3814,3.3464,3.3414,3.3414,3.3414,3.344,3.3494,3.3521,3.3507,3.3521,3.3681,3.3761,3.3734,3.3694,3.3761,3.3694,3.3534,3.344,3.3414,3.3414,3.3414,3.3414,3.3414,3.3414,3.3414,3.3414,3.3414,3.3387,3.2944,3.1816,3.1114,2.9536,2.718,2.5917,2.4558,2.2822,2.1027,2.0067,1.9942,2.0873,2.1098,2.1701,2.3394,2.3384,2.3189,2.2789,2.1533,2.1165,1.9775,1.9536,1.9257,1.9126,1.8988,1.9093,2.0176,2.1777,2.3845,2.5909,2.6214,2.6669,2.7104,2.712,2.4984,2.3454,2.4018,2.4456,2.4685,2.6106,2.8023,2.8741,2.9284,2.9163,2.8898,2.8813,2.8669,2.8224,2.7045,2.4038,2.1696,1.9748,1.8423,1.753,1.6611,1.5821,1.5648,1.5634,3.4885,3.524,3.5548,3.5797,3.5997,3.5983,3.588,3.5665,3.5357,3.524,3.524,3.5207,3.5353,3.565,3.5665,3.565,3.5723,3.5968,3.607,3.6187,3.6407,3.6411,3.6208,3.589,3.5657,3.5359,3.4762,3.4114,3.415,3.3714,3.3414,3.3414,3.3414,3.3414,3.3494,3.3681,3.3694,3.3654,3.3774,3.3935,3.4042,3.3948,3.3935,3.3935,3.3855,3.3654,3.3521,3.3414,3.3414,3.3414,3.3414,3.3414,3.3414,3.3414,3.3414,3.3364,3.3364,3.1969,3.0786,3.0153,2.7742,2.5103,2.3686,2.3057,2.2259,2.0688,1.9973,1.9573,2.0008,1.9701,1.9874,2.0005,2.0136,2.0095,2.0063,1.975,1.9776,1.9468,1.946,1.9354,1.9354,1.9289,1.9372,2.0236,2.1959,2.4084,2.6363,2.8377,2.8705,2.8499,2.814,2.6452,2.5271,2.493,2.5243,2.5787,2.6914,2.8934,2.9324,2.976,2.9576,2.9454,2.937,2.9151,2.8664,2.6748,2.2896,2.0279,1.8379,1.7365,1.6934,1.6546,1.592,1.5805,1.5778,3.5123,3.5211,3.5313,3.5269,3.5178,3.5602,3.5767,3.568,3.5577,3.5548,3.5533,3.5313,3.5485,3.5924,3.5577,3.5709,3.588,3.61,3.6275,3.6422,3.6539,3.6336,3.6004,3.5607,3.5359,3.4911,3.4363,3.3914,3.4014,3.3664,3.3414,3.3414,3.3414,3.3414,3.3587,3.3921,3.3868,3.3908,3.4055,3.4242,3.4349,3.4282,3.4242,3.4175,3.4002,3.3774,3.3534,3.3427,3.3414,3.3414,3.3414,3.3414,3.3414,3.3414,3.3364,3.3213,3.2183,3.0659,2.9799,2.7243,2.4895,2.3512,2.2208,2.1276,2.0796,2.05,1.9873,1.976,1.9589,1.9484,1.9402,1.937,1.9329,1.9313,1.9345,1.941,1.9492,1.9557,1.9549,1.9508,1.9459,1.98,1.9892,2.1077,2.2819,2.4853,2.6904,2.911,3.0267,2.9923,2.9454,2.7805,2.6916,2.653,2.6992,2.7553,2.8537,2.962,3.0038,3.0302,3.0214,3.0091,2.9981,2.8992,2.7561,2.4636,2.1077,1.8989,1.7551,1.7098,1.6658,1.6376,1.6103,1.6015,1.5961,3.5474,3.5514,3.5445,3.5284,3.5211,3.5533,3.5694,3.5694,3.5694,3.5636,3.5504,3.543,3.5631,3.6027,3.5895,3.5983,3.629,3.6334,3.6436,3.6524,3.6612,3.6449,3.6004,3.5557,3.5309,3.4748,3.4263,3.3814,3.3864,3.3664,3.3414,3.3414,3.3414,3.3414,3.3547,3.3828,3.4068,3.4162,3.4336,3.4563,3.4616,3.4603,3.4536,3.4429,3.4189,3.3908,3.3614,3.3521,3.3427,3.3414,3.3414,3.3414,3.3414,3.3414,3.2598,3.2247,3.1176,2.9127,2.7345,2.5306,2.3564,2.2279,2.1145,2.0668,2.0351,2.0228,2.0112,2.0022,1.9776,1.9613,1.9549,1.9484,1.9427,1.937,1.9427,1.9492,1.9589,1.9687,1.9678,1.9638,1.9873,2.0267,2.1012,2.2254,2.3998,2.6417,2.7969,2.9222,3.0292,3.0305,3.018,2.9421,2.865,2.8093,2.8714,2.933,3.0066,3.0711,3.09,3.1051,3.0873,3.0345,2.985,2.7935,2.569,2.2931,2.0393,1.861,1.723,1.7002,1.7018,1.6994,1.6795,1.6401,1.636,3.587,3.6012,3.5797,3.5592,3.565,3.5621,3.5606,3.5636,3.5606,3.5518,3.5357,3.5489,3.569,3.6027,3.607,3.6261,3.6422,3.6466,3.6466,3.6597,3.6612,3.6449,3.6202,3.5954,3.5259,3.4862,3.4363,3.3714,3.3514,3.3414,3.3414,3.3414,3.3414,3.3414,3.348,3.3774,3.4042,3.4282,3.4509,3.475,3.4803,3.4803,3.4776,3.4696,3.4469,3.4202,3.3895,3.3654,3.3427,3.3427,3.3414,3.3414,3.3414,3.2799,3.1781,3.0457,2.9444,2.7345,2.5245,2.3451,2.2279,2.1145,2.032,2.0268,2.0271,2.0223,2.0166,2.0169,1.993,1.9833,1.9768,1.9589,1.9475,1.9508,1.9573,1.963,1.9695,1.9784,1.9841,2.0062,2.0756,2.1254,2.2356,2.3665,2.5943,2.8284,2.9577,3.0237,3.03,3.0526,3.0588,3.0598,3.0194,2.9828,3.0673,3.1176,3.1491,3.1857,3.1857,3.1655,3.1391,3.0596,2.9638,2.7304,2.4829,2.2701,2.0381,1.8734,1.7709,1.7872,1.7887,1.788,1.7581,1.7107,1.668,3.5909,3.5767,3.546,3.5313,3.5313,3.5328,3.5196,3.4958,3.5225,3.5416,3.5474,3.5192,3.5412,3.6056,3.5807,3.5983,3.6495,3.6451,3.6422,3.6539,3.6612,3.6449,3.6004,3.5557,3.5011,3.4413,3.3914,3.3664,3.3514,3.3464,3.3414,3.3414,3.3414,3.3414,3.3427,3.3721,3.3988,3.4269,3.4549,3.483,3.499,3.503,3.5017,3.4895,3.4616,3.4362,3.4082,3.3828,3.3614,3.348,3.3427,3.3414,3.3364,3.1882,3.0823,2.9799,2.7225,2.5182,2.3635,2.2184,2.1093,2.0737,2.0268,2.0268,2.0304,2.0279,2.0239,2.019,2.0133,2.0104,1.999,1.9735,1.9581,1.9662,1.9727,1.9768,1.9859,2.0051,2.0141,2.0858,2.1659,2.2822,2.398,2.569,2.7896,2.9522,3.0699,3.124,3.0874,3.0862,3.0988,3.1075,3.1428,3.1491,3.2259,3.2511,3.2511,3.2461,3.241,3.2159,3.1806,3.0457,2.9003,2.6536,2.418,2.211,2.04,1.9116,1.8433,1.8669,1.8654,1.8624,1.8499,1.8085,1.7394,3.6012,3.5822,3.5562,3.5255,3.4988,3.4958,3.4929,3.4914,3.4944,3.5181,3.5416,3.5181,3.5353,3.6041,3.5719,3.5836,3.648,3.6422,3.648,3.6568,3.6562,3.6449,3.5954,3.5359,3.5259,3.4712,3.4064,3.3764,3.3664,3.3514,3.3464,3.3614,3.3564,3.3414,3.344,3.3627,3.3841,3.4108,3.4442,3.4736,3.503,3.5084,3.5137,3.4977,3.4829,3.4549,3.4336,3.4082,3.3801,3.3601,3.3507,3.2564,3.2085,3.1008,2.9321,2.7402,2.5228,2.328,2.2282,2.1256,2.0336,2.0328,2.0268,2.0268,2.0268,2.0296,2.0296,2.0255,2.0247,2.0174,2.0125,1.9963,1.9873,1.9898,1.993,1.9955,2.0644,2.1251,2.1604,2.2264,2.3632,2.5613,2.6732,2.7807,2.9718,3.0498,3.1643,3.1554,3.1264,3.1214,3.1365,3.1567,3.192,3.236,3.2812,3.3063,3.3113,3.3063,3.2912,3.1894,3.1037,2.9811,2.8212,2.5492,2.3226,2.1674,2.0079,1.9216,1.9216,1.9511,1.9423,1.9342,1.9172,1.8962,1.8418,3.6027,3.607,3.5826,3.5386,3.4841,3.4739,3.4841,3.5064,3.4827,3.4914,3.5269,3.5181,3.5485,3.5822,3.6129,3.6319,3.6466,3.6495,3.6568,3.6597,3.6612,3.6251,3.5855,3.5458,3.521,3.5011,3.4563,3.4263,3.405,3.38,3.3764,3.3964,3.3714,3.3414,3.3414,3.3454,3.3627,3.4002,3.4309,3.4536,3.4803,3.5057,3.5137,3.5097,3.4977,3.4869,3.4655,3.4374,3.3988,3.3484,3.3123,3.201,3.0569,2.9398,2.7307,2.5321,2.3864,2.2328,2.1232,2.0712,2.0385,2.0336,2.0328,2.0276,2.0276,2.0268,2.0268,2.032,2.0312,2.0288,2.0239,2.0174,2.0101,2.0144,2.0161,2.0228,2.1139,2.2252,2.3029,2.37,2.5738,2.7873,2.9003,3.004,3.0924,3.1655,3.1769,3.1517,3.1416,3.1668,3.1819,3.2121,3.2461,3.2912,3.3314,3.3364,3.3364,3.3314,3.2963,3.158,3.0052,2.8263,2.6271,2.3958,2.1959,2.0877,2.0364,1.9694,1.9903,2.0136,1.9955,1.9798,1.9746,1.9537,1.9321,3.5646,3.6085,3.5826,3.5606,3.5416,3.4929,3.4739,3.4783,3.4753,3.5017,3.5343,3.5064,3.5017,3.5445,3.5924,3.6217,3.6363,3.6593,3.6681,3.6612,3.6943,3.6301,3.5685,3.5614,3.4925,3.4726,3.4726,3.4662,3.4363,3.4114,3.3864,3.3664,3.3564,3.3414,3.3414,3.3494,3.3681,3.4028,3.436,3.4666,3.5002,3.5203,3.5177,3.5164,3.5151,3.4963,3.4788,3.4429,3.4148,3.3413,3.2099,3.0951,2.925,2.7424,2.5417,2.4055,2.2637,2.1708,2.0784,2.0596,2.0523,2.0369,2.0361,2.0292,2.0284,2.0268,2.0268,2.0268,2.032,2.032,2.0271,2.0174,2.0152,2.0302,2.0403,2.0559,2.112,2.2779,2.4216,2.5656,2.7487,2.9014,3.0091,3.1126,3.2133,3.2561,3.231,3.2058,3.1819,3.2008,3.231,3.2611,3.2963,3.3163,3.3364,3.3364,3.3364,3.3364,3.2749,3.0911,2.8772,2.622,2.4113,2.2477,2.1457,2.0581,2.0119,2.0011,2.0123,2.0297,2.0292,2.0164,2.0128,2.0115,1.9893]},{"header":{"parameterUnit":"m.s-1","parameterCategory":1,"la1":31.0,"la2":29.5877,"lo1":-88.7671,"lo2":-86.6584,"dy":0.0162,"dx":0.0185,"nx":115,"ny":88,"refTime":"2023-05-31T06:00:00:Z","depth":0,"parameterNumber":3,"parameterNumberName":"V-component_of_WINDS"},"data":[0.0,0.0,0.0,0.0,0.0,0.0,0.0,0.0,0.0,0.0,0.0,0.0,0.0,0.0,0.0,0.0,0.0,0.0,0.0,0.0,0.0,0.0,0.0,0.0,0.0,0.0,0.0,0.0,0.0,0.0,0.0,0.0,0.0,0.0,0.0,0.0,0.0,0.0,0.0,0.0,0.0,0.0,0.0,0.0,0.0,0.0,0.0,0.0,0.0,0.0,0.0,0.0,0.0,0.0,0.0,0.0,0.0,0.0,0.0,0.0,0.0,0.0,0.0,0.0,0.0,0.0,0.0,0.0,0.0,0.0,0.0,0.0,0.0,0.0,0.0,0.0,0.0,0.0,0.0,0.0,0.0,0.0,0.0,0.0,0.0,0.0,0.0,0.0,0.0,0.0,0.0,0.0,0.0,0.0,0.0,0.0,0.0,0.0,0.0,0.0,0.0,0.0,0.0,0.0,0.0,0.0,0.0,0.0,0.0,0.0,0.0,0.0,0.0,0.0,0.0,0.0,0.0,0.0,0.0,0.0,0.0,0.0,0.0,0.0,0.0,0.0,0.0,0.0,0.0,0.0,0.0,0.0,0.0,0.0,0.0,0.0,0.0,0.0,0.0,0.0,0.0,0.0,0.0,0.0,0.0,0.0,0.0,0.0,0.0,0.0,0.0,0.0,0.0,0.0,0.0,0.0,0.0,0.0,0.0,0.0,0.0,0.0,0.0,0.0,0.0,0.0,0.0,0.0,0.0,0.0,0.0,0.0,0.0,0.0,0.0,0.0,0.0,0.0,0.0,0.0,0.0,0.0,0.0,0.0,0.0,0.0,0.0,0.0,0.0,0.0,0.0,0.0,0.0,0.0,0.0,0.0,0.0,0.0,0.0,0.0,0.0,0.0,0.0,0.0,0.0,0.0,0.0,0.0,0.0,0.0,0.0,0.0,0.0,0.0,0.0,0.0,0.0,0.0,0.0,0.0,0.0,0.0,0.0,0.0,0.0,0.0,0.0,0.0,0.0,0.0,0.0,0.0,0.0,0.0,0.0,0.0,0.0,0.0,0.0,0.0,0.0,0.0,0.0,0.0,0.0,0.0,0.0,0.0,0.0,0.0,0.0,0.0,0.0,0.0,0.0,0.0,0.0,0.0,0.0,0.0,0.0,0.0,0.0,0.0,0.0,0.0,0.0,0.0,0.0,0.0,0.0,0.0,0.0,0.0,0.0,0.0,0.0,0.0,0.0,0.0,0.0,0.0,0.0,0.0,0.0,0.0,0.0,0.0,0.0,0.0,0.0,0.0,0.0,0.0,0.0,0.0,0.0,0.0,0.0,0.0,0.0,0.0,0.0,0.0,0.0,0.0,0.0,0.0,0.0,0.0,0.0,0.0,0.0,0.0,0.0,0.0,0.0,0.0,0.0,0.0,0.0,0.0,0.0,0.0,0.0,0.0,0.0,0.0,0.0,0.0,0.0,0.0,0.0,0.0,0.0,0.0,0.0,0.0,0.0,0.0,0.0,0.0,0.0,0.0,0.0,0.0,0.0,0.0,0.0,0.0,0.0,0.0,0.0,0.0,0.0,0.0,0.0,0.0,0.0,0.0,0.0,0.0,0.0,0.0,0.0,0.0,0.0,0.0,0.0,0.0,0.0,0.0,0.0,0.0,0.0,0.0,0.0,0.0,0.0,0.0,0.0,0.0,0.0,0.0,0.0,0.0,0.0,0.0,0.0,0.0,0.0,0.0,0.0,0.0,0.0,0.0,0.0,0.0,0.0,0.0,0.0,0.0,0.0,0.0,0.0,0.0,0.0,0.0,0.0,0.0,0.0,0.0,0.0,0.0,0.0,0.0,0.0,0.0,0.0,0.0,0.0,0.0,0.0,0.0,0.0,0.0,0.0,0.0,0.0,0.0,0.0,0.0,0.0,0.0,0.0,0.0,0.0,0.0,0.0,0.0,0.0,0.0,0.0,0.0,0.0,0.0,0.0,0.0,0.0,0.0,0.0,0.0,0.0,0.0,0.0,0.0,0.0,0.0,0.0,0.0,0.0,0.0,0.0,0.0,0.0,0.0,0.0,0.0,0.0,0.0,0.0,0.0,0.0,0.0,0.0,0.0,0.0,0.0,0.0,0.0,0.0,0.0,0.0,0.0,0.0,0.0,0.0,0.0,0.0,0.0,0.0,0.0,0.0,0.0,0.0,0.0,0.0,0.0,0.0,0.0,0.0,0.0,0.0,0.0,0.0,0.0,0.0,0.0,0.0,0.0,0.0,0.0,0.0,0.0,0.0,0.0,0.0,0.0,0.0,0.0,0.0,0.0,0.0,0.0,0.0,0.0,0.0,0.0,0.0,0.0,0.0,0.0,0.0,0.0,0.0,0.0,0.0,0.0,0.0,0.0,0.0,0.0,0.0,0.0,0.0,0.0,0.0,0.0,0.0,0.0,0.0,0.0,0.0,0.0,0.0,0.0,0.0,0.0,0.0,0.0,0.0,0.0,0.0,0.0,0.0,0.0,0.0,0.0,0.0,0.0,0.0,0.0,0.0,0.0,0.0,0.0,0.0,0.0,0.0,0.0,0.0,0.0,0.0,0.0,0.0,0.0,0.0,0.0,0.0,0.0,0.0,0.0,0.0,0.0,0.0,0.0,0.0,0.0,0.0,0.0,0.0,0.0,0.0,0.0,0.0,0.0,0.0,0.0,0.0,0.0,0.0,0.0,0.0,0.0,0.0,0.0,0.0,0.0,0.0,0.0,0.0,0.0,0.0,0.0,0.0,0.0,0.0,0.0,0.0,0.0,0.0,0.0,0.0,0.0,0.0,0.0,0.0,0.0,0.0,0.0,0.0,0.0,0.0,0.0,0.0,0.0,0.0,0.0,0.0,0.0,0.0,0.0,0.0,0.0,0.0,0.0,0.0,0.0,0.0,0.0,0.0,0.0,0.0,0.0,0.0,0.0,0.0,0.0,0.0,0.0,0.0,0.0,0.0,0.0,0.0,0.0,0.0,0.0,0.0,0.0,0.0,0.0,0.0,0.0,0.0,0.0,0.0,0.0,0.0,0.0,0.0,0.0,0.0,0.0,0.0,0.0,0.0,0.0,0.0,0.0,0.0,0.0,0.0,0.0,0.0,0.0,0.0,0.0,0.0,0.0,0.0,0.0,0.0,0.0,0.0,0.0,0.0,0.0,0.0,0.0,0.0,0.0,0.0,0.0,0.0,0.0,0.0,0.0,0.0,0.0,0.0,0.0,0.0,0.0,0.0,0.0,0.0,0.0,0.0,0.0,0.0,0.0,0.0,0.0,0.0,0.0,0.0,0.0,0.0,0.0,0.0,0.0,0.0,0.0,0.0,0.0,0.0,0.0,0.0,0.0,0.0,0.0,0.0,0.0,0.0,0.0,0.0,0.0,0.0,0.0,0.0,0.0,0.0,0.0,0.0,0.0,0.0,0.0,0.0,0.0,0.0,0.0,0.0,0.0,0.0,0.0,0.0,0.0,0.0,0.0,0.0,0.0,0.0,0.0,0.0,0.0,0.0,0.0,0.0,0.0,0.0,0.0,0.0,0.0,0.0,0.0,0.0,0.0,0.0,0.0,0.0,0.0,0.0,0.0,0.0,0.0,0.0,0.0,0.0,0.0,0.0,0.0,0.0,0.0,0.0,0.0,0.0,0.0,0.0,0.0,0.0,0.0,0.0,0.0,0.0,0.0,0.0,0.0,0.0,0.0,0.0,0.0,0.0,0.0,0.0,0.0,0.0,0.0,0.0,0.0,0.0,0.0,0.0,0.0,0.0,0.0,0.0,0.0,0.0,0.0,0.0,0.0,0.0,0.0,0.0,0.0,0.0,0.0,0.0,0.0,0.0,0.0,0.0,0.0,0.0,0.0,0.0,0.0,0.0,0.0,0.0,0.0,0.0,0.0,0.0,0.0,0.0,0.0,0.0,0.0,0.0,0.0,0.0,0.0,0.0,0.0,0.0,0.0,0.0,0.0,0.0,0.0,0.0,0.0,0.0,0.0,0.0,0.0,0.0,0.0,0.0,0.0,0.0,0.0,0.0,0.0,0.0,0.0,0.0,0.0,0.0,0.0,0.0,0.0,0.0,0.0,0.0,0.0,0.0,0.0,0.0,0.0,0.0,0.0,0.0,0.0,0.0,0.0,0.0,0.0,0.0,0.0,0.0,0.0,0.0,0.0,0.0,0.0,0.0,0.0,0.0,0.0,0.0,0.0,0.0,0.0,0.0,0.0,0.0,0.0,0.0,0.0,0.0,0.0,0.0,0.0,4.0371,0.0,0.0,0.0,0.0,0.0,0.0,0.0,0.0,0.0,0.0,0.0,0.0,0.0,0.0,0.0,0.0,0.0,0.0,0.0,0.0,0.0,0.0,0.0,0.0,0.0,0.0,0.0,0.0,0.0,0.0,0.0,0.0,0.0,0.0,0.0,0.0,0.0,0.0,0.0,0.0,0.0,0.0,0.0,0.0,0.0,0.0,0.0,0.0,0.0,0.0,0.0,0.0,0.0,0.0,0.0,0.0,0.0,0.0,0.0,0.0,0.0,0.0,0.0,0.0,0.0,0.0,0.0,0.0,0.0,0.0,0.0,0.0,0.0,0.0,0.0,0.0,0.0,0.0,0.0,0.0,0.0,0.0,0.0,0.0,0.0,0.0,0.0,0.0,0.0,0.0,0.0,0.0,0.0,0.0,0.0,0.0,0.0,0.0,0.0,0.0,0.0,0.0,0.0,0.0,0.0,0.0,0.0,0.0,0.0,0.0,4.1277,4.0256,4.1667,4.1929,4.0811,0.0,0.0,0.0,0.0,0.0,0.0,0.0,0.0,0.0,0.0,0.0,0.0,0.0,0.0,0.0,0.0,0.0,0.0,0.0,0.0,0.0,0.0,0.0,0.0,0.0,0.0,0.0,0.0,0.0,0.0,0.0,0.0,0.0,0.0,0.0,0.0,0.0,0.0,0.0,0.0,0.0,0.0,0.0,0.0,0.0,0.0,0.0,0.0,0.0,0.0,0.0,0.0,0.0,0.0,0.0,0.0,0.0,0.0,0.0,0.0,0.0,0.0,0.0,0.0,0.0,0.0,0.0,0.0,0.0,0.0,0.0,0.0,0.0,0.0,0.0,0.0,0.0,0.0,0.0,0.0,0.0,0.0,0.0,0.0,0.0,0.0,0.0,0.0,0.0,0.0,0.0,0.0,0.0,0.0,0.0,0.0,0.0,0.0,0.0,0.0,0.0,0.0,0.0,0.0,0.0,0.0,0.0,0.0,0.0,0.0,0.0,0.0,4.2482,4.2757,4.1685,0.0,0.0,0.0,0.0,0.0,0.0,0.0,0.0,0.0,0.0,0.0,0.0,0.0,0.0,0.0,0.0,0.0,0.0,0.0,0.0,0.0,0.0,0.0,0.0,0.0,0.0,0.0,0.0,0.0,0.0,0.0,0.0,0.0,0.0,0.0,0.0,0.0,0.0,0.0,0.0,0.0,0.0,0.0,0.0,0.0,0.0,0.0,0.0,0.0,0.0,0.0,0.0,0.0,0.0,0.0,0.0,0.0,0.0,0.0,0.0,0.0,0.0,0.0,0.0,0.0,0.0,0.0,0.0,0.0,0.0,0.0,0.0,0.0,0.0,0.0,0.0,0.0,0.0,0.0,0.0,0.0,0.0,0.0,0.0,0.0,0.0,0.0,0.0,0.0,0.0,0.0,0.0,0.0,0.0,0.0,0.0,0.0,0.0,0.0,0.0,0.0,0.0,0.0,0.0,0.0,0.0,0.0,0.0,0.0,0.0,4.1822,4.3663,4.3266,0.0,4.3558,0.0,0.0,0.0,0.0,0.0,0.0,0.0,0.0,0.0,0.0,0.0,0.0,0.0,0.0,0.0,0.0,0.0,0.0,0.0,0.0,0.0,0.0,0.0,0.0,0.0,0.0,0.0,0.0,0.0,0.0,0.0,0.0,0.0,0.0,0.0,0.0,0.0,0.0,0.0,0.0,0.0,0.0,0.0,0.0,0.0,0.0,0.0,0.0,0.0,0.0,0.0,0.0,0.0,0.0,0.0,0.0,0.0,0.0,0.0,0.0,0.0,0.0,0.0,0.0,0.0,0.0,0.0,0.0,0.0,0.0,0.0,0.0,0.0,0.0,0.0,0.0,0.0,0.0,0.0,0.0,0.0,0.0,0.0,0.0,0.0,0.0,0.0,0.0,0.0,0.0,0.0,0.0,0.0,0.0,0.0,0.0,0.0,0.0,0.0,0.0,0.0,0.0,0.0,0.0,0.0,0.0,0.0,0.0,0.0,0.0,4.187,4.4089,4.4214,4.3764,0.0,0.0,0.0,0.0,0.0,0.0,0.0,0.0,0.0,0.0,0.0,0.0,0.0,0.0,0.0,0.0,0.0,0.0,0.0,0.0,0.0,0.0,0.0,0.0,0.0,0.0,0.0,0.0,0.0,0.0,0.0,0.0,0.0,0.0,0.0,0.0,0.0,0.0,0.0,0.0,0.0,0.0,0.0,0.0,0.0,0.0,0.0,0.0,0.0,0.0,0.0,0.0,0.0,0.0,0.0,0.0,0.0,0.0,0.0,0.0,0.0,0.0,0.0,0.0,0.0,0.0,0.0,0.0,0.0,0.0,0.0,0.0,0.0,0.0,0.0,0.0,0.0,0.0,0.0,0.0,0.0,0.0,0.0,0.0,0.0,0.0,0.0,0.0,0.0,0.0,0.0,0.0,0.0,0.0,0.0,0.0,0.0,0.0,0.0,0.0,0.0,0.0,0.0,0.0,0.0,0.0,0.0,0.0,0.0,0.0,4.2305,4.2518,4.438,4.4592,4.4015,4.264,0.0,0.0,0.0,0.0,0.0,0.0,0.0,0.0,0.0,0.0,0.0,0.0,0.0,0.0,0.0,0.0,0.0,0.0,0.0,0.0,0.0,0.0,0.0,0.0,0.0,0.0,0.0,0.0,0.0,0.0,0.0,0.0,0.0,0.0,0.0,0.0,0.0,0.0,0.0,0.0,0.0,0.0,0.0,0.0,0.0,0.0,0.0,0.0,0.0,0.0,0.0,0.0,0.0,0.0,0.0,0.0,0.0,0.0,0.0,0.0,0.0,0.0,0.0,0.0,0.0,0.0,0.0,0.0,0.0,0.0,0.0,0.0,0.0,0.0,0.0,0.0,0.0,0.0,0.0,0.0,0.0,0.0,0.0,0.0,0.0,0.0,0.0,0.0,0.0,0.0,0.0,0.0,0.0,0.0,0.0,0.0,0.0,0.0,0.0,0.0,0.0,0.0,0.0,0.0,0.0,0.0,0.0,0.0,4.815,4.5182,4.4028,4.5127,4.4072,4.3672,0.0,0.0,0.0,0.0,0.0,0.0,0.0,0.0,0.0,0.0,0.0,0.0,0.0,0.0,0.0,0.0,0.0,0.0,0.0,0.0,0.0,0.0,0.0,0.0,0.0,0.0,0.0,0.0,0.0,0.0,0.0,0.0,0.0,0.0,0.0,0.0,0.0,0.0,0.0,0.0,0.0,0.0,0.0,0.0,0.0,0.0,0.0,0.0,0.0,0.0,0.0,0.0,0.0,0.0,0.0,0.0,0.0,0.0,0.0,0.0,0.0,0.0,0.0,0.0,0.0,0.0,0.0,0.0,0.0,0.0,0.0,0.0,0.0,0.0,0.0,0.0,0.0,0.0,0.0,0.0,0.0,0.0,0.0,0.0,0.0,0.0,0.0,0.0,0.0,0.0,0.0,0.0,0.0,0.0,0.0,0.0,0.0,0.0,0.0,0.0,0.0,0.0,0.0,0.0,0.0,0.0,0.0,0.0,0.0,4.4221,4.4442,4.4021,4.3016,4.4237,4.4568,0.0,0.0,0.0,0.0,0.0,0.0,0.0,0.0,0.0,0.0,0.0,0.0,0.0,0.0,0.0,0.0,0.0,0.0,0.0,0.0,0.0,0.0,0.0,0.0,0.0,0.0,0.0,0.0,0.0,0.0,0.0,0.0,0.0,0.0,0.0,0.0,0.0,0.0,0.0,0.0,0.0,0.0,0.0,0.0,0.0,0.0,0.0,0.0,0.0,0.0,0.0,0.0,0.0,0.0,0.0,0.0,0.0,0.0,0.0,0.0,0.0,0.0,0.0,0.0,0.0,0.0,0.0,0.0,0.0,0.0,0.0,0.0,0.0,0.0,0.0,0.0,0.0,0.0,0.0,0.0,0.0,0.0,0.0,0.0,0.0,0.0,0.0,0.0,0.0,0.0,0.0,0.0,0.0,0.0,0.0,0.0,0.0,0.0,0.0,0.0,0.0,0.0,0.0,0.0,0.0,0.0,0.0,0.0,0.0,4.2244,0.0,4.4273,4.2358,4.3817,4.4225,0.0,0.0,0.0,0.0,0.0,0.0,0.0,0.0,0.0,0.0,0.0,0.0,0.0,0.0,0.0,0.0,0.0,0.0,0.0,0.0,0.0,0.0,0.0,0.0,0.0,0.0,0.0,0.0,0.0,0.0,0.0,0.0,0.0,0.0,0.0,0.0,0.0,0.0,0.0,0.0,0.0,0.0,0.0,0.0,0.0,0.0,0.0,0.0,0.0,0.0,0.0,0.0,0.0,0.0,0.0,0.0,0.0,0.0,0.0,0.0,0.0,0.0,0.0,0.0,0.0,0.0,0.0,0.0,0.0,0.0,0.0,0.0,0.0,0.0,0.0,0.0,0.0,0.0,0.0,0.0,0.0,0.0,0.0,0.0,0.0,0.0,0.0,0.0,0.0,0.0,0.0,0.0,0.0,0.0,0.0,0.0,0.0,0.0,0.0,0.0,0.0,0.0,0.0,0.0,0.0,0.0,0.0,0.0,4.3487,4.312,4.46,4.4714,4.344,4.2736,4.257,0.0,0.0,0.0,0.0,0.0,0.0,0.0,0.0,0.0,0.0,0.0,0.0,0.0,0.0,0.0,0.0,0.0,0.0,0.0,0.0,0.0,0.0,0.0,0.0,0.0,0.0,0.0,0.0,0.0,0.0,0.0,0.0,0.0,0.0,0.0,0.0,0.0,0.0,0.0,0.0,0.0,0.0,0.0,0.0,0.0,0.0,0.0,0.0,0.0,0.0,0.0,0.0,0.0,0.0,0.0,0.0,0.0,0.0,0.0,0.0,0.0,0.0,0.0,0.0,0.0,0.0,0.0,0.0,0.0,0.0,0.0,0.0,0.0,0.0,0.0,0.0,0.0,0.0,0.0,0.0,0.0,0.0,0.0,0.0,0.0,0.0,0.0,0.0,0.0,0.0,0.0,0.0,0.0,0.0,0.0,0.0,0.0,0.0,0.0,0.0,0.0,0.0,0.0,0.0,0.0,0.0,0.0,0.0,0.0,4.1346,4.2171,4.3057,4.3844,4.37,4.4255,0.0,0.0,0.0,0.0,0.0,0.0,0.0,0.0,0.0,0.0,0.0,0.0,0.0,0.0,0.0,0.0,0.0,0.0,0.0,0.0,0.0,0.0,0.0,0.0,0.0,0.0,0.0,0.0,0.0,0.0,0.0,0.0,0.0,0.0,0.0,0.0,0.0,0.0,0.0,0.0,0.0,0.0,0.0,0.0,0.0,0.0,0.0,0.0,0.0,0.0,0.0,0.0,0.0,0.0,0.0,0.0,0.0,0.0,0.0,0.0,0.0,0.0,0.0,0.0,0.0,0.0,0.0,0.0,0.0,0.0,0.0,0.0,0.0,0.0,0.0,0.0,0.0,0.0,0.0,0.0,0.0,0.0,0.0,0.0,0.0,0.0,0.0,0.0,0.0,0.0,0.0,0.0,0.0,0.0,0.0,0.0,0.0,0.0,0.0,0.0,0.0,0.0,0.0,0.0,0.0,0.0,0.0,0.0,0.0,4.1795,4.1986,4.2649,4.3859,4.411,4.4889,4.6192,0.0,0.0,0.0,0.0,0.0,0.0,0.0,0.0,0.0,0.0,0.0,0.0,0.0,0.0,0.0,0.0,0.0,0.0,0.0,0.0,0.0,0.0,0.0,0.0,0.0,0.0,0.0,0.0,0.0,0.0,0.0,0.0,0.0,0.0,0.0,0.0,0.0,0.0,0.0,0.0,0.0,0.0,0.0,0.0,0.0,0.0,0.0,0.0,0.0,0.0,0.0,0.0,0.0,0.0,0.0,0.0,0.0,0.0,0.0,0.0,0.0,0.0,0.0,0.0,0.0,0.0,0.0,0.0,0.0,0.0,0.0,0.0,0.0,0.0,0.0,0.0,0.0,0.0,0.0,0.0,0.0,0.0,0.0,0.0,0.0,0.0,0.0,0.0,0.0,0.0,0.0,0.0,0.0,0.0,0.0,0.0,0.0,0.0,0.0,0.0,0.0,0.0,0.0,0.0,0.0,0.0,0.0,0.0,4.4144,4.3955,4.3839,4.3788,4.4281,4.4751,0.0,0.0,0.0,0.0,0.0,0.0,0.0,0.0,0.0,0.0,0.0,0.0,0.0,0.0,0.0,0.0,0.0,0.0,0.0,0.0,0.0,0.0,0.0,0.0,0.0,0.0,0.0,0.0,0.0,0.0,0.0,0.0,0.0,0.0,0.0,0.0,0.0,0.0,0.0,0.0,0.0,0.0,0.0,0.0,0.0,0.0,0.0,0.0,0.0,0.0,0.0,0.0,0.0,0.0,0.0,0.0,0.0,0.0,0.0,0.0,0.0,0.0,0.0,0.0,0.0,0.0,0.0,0.0,0.0,0.0,0.0,0.0,0.0,0.0,0.0,0.0,0.0,0.0,0.0,0.0,0.0,0.0,0.0,0.0,0.0,0.0,0.0,0.0,0.0,0.0,0.0,0.0,0.0,0.0,0.0,0.0,0.0,0.0,0.0,0.0,0.0,0.0,0.0,0.0,0.0,0.0,0.0,0.0,0.0,4.6837,4.7618,4.7593,4.6822,4.6973,4.7425,0.0,0.0,0.0,0.0,0.0,0.0,0.0,0.0,0.0,0.0,0.0,0.0,0.0,0.0,0.0,0.0,0.0,0.0,0.0,0.0,0.0,0.0,0.0,0.0,0.0,0.0,0.0,0.0,0.0,0.0,0.0,0.0,0.0,0.0,0.0,0.0,0.0,0.0,0.0,0.0,0.0,0.0,0.0,0.0,0.0,0.0,0.0,0.0,0.0,0.0,0.0,0.0,0.0,0.0,0.0,0.0,0.0,0.0,0.0,0.0,0.0,0.0,0.0,0.0,0.0,0.0,0.0,0.0,0.0,0.0,0.0,0.0,0.0,0.0,0.0,0.0,0.0,0.0,0.0,0.0,0.0,0.0,0.0,0.0,0.0,0.0,0.0,0.0,0.0,0.0,0.0,0.0,0.0,0.0,0.0,0.0,0.0,0.0,0.0,0.0,0.0,0.0,0.0,0.0,0.0,0.0,0.0,0.0,4.6472,4.8753,5.0549,5.1217,5.0688,5.0404,4.9867,0.0,0.0,0.0,0.0,0.0,0.0,0.0,0.0,0.0,0.0,0.0,0.0,0.0,0.0,0.0,0.0,0.0,0.0,0.0,0.0,0.0,0.0,0.0,0.0,0.0,0.0,0.0,0.0,0.0,0.0,0.0,0.0,0.0,0.0,0.0,0.0,0.0,0.0,0.0,0.0,0.0,0.0,0.0,0.0,0.0,0.0,0.0,0.0,0.0,0.0,0.0,0.0,0.0,0.0,0.0,0.0,0.0,0.0,0.0,0.0,0.0,0.0,0.0,0.0,0.0,0.0,0.0,0.0,0.0,0.0,0.0,0.0,0.0,0.0,0.0,0.0,0.0,0.0,0.0,0.0,0.0,0.0,0.0,0.0,0.0,0.0,0.0,0.0,0.0,0.0,0.0,0.0,0.0,0.0,0.0,0.0,0.0,0.0,0.0,0.0,0.0,0.0,0.0,0.0,0.0,0.0,0.0,0.0,4.8127,5.0148,5.2733,5.4283,5.4638,5.3739,5.1981,0.0,0.0,0.0,0.0,0.0,0.0,0.0,0.0,0.0,0.0,0.0,0.0,0.0,0.0,0.0,0.0,0.0,0.0,0.0,0.0,0.0,0.0,0.0,0.0,0.0,0.0,0.0,0.0,0.0,0.0,0.0,0.0,0.0,0.0,0.0,0.0,0.0,0.0,0.0,0.0,0.0,0.0,0.0,0.0,0.0,0.0,0.0,0.0,0.0,0.0,0.0,0.0,0.0,0.0,0.0,0.0,0.0,0.0,0.0,0.0,0.0,0.0,0.0,0.0,0.0,0.0,0.0,0.0,0.0,0.0,0.0,0.0,0.0,0.0,0.0,0.0,0.0,0.0,0.0,0.0,0.0,0.0,0.0,0.0,0.0,0.0,0.0,0.0,0.0,0.0,0.0,0.0,0.0,0.0,0.0,0.0,0.0,0.0,0.0,0.0,0.0,0.0,0.0,0.0,0.0,0.0,0.0,0.0,4.7619,5.178,5.3672,5.5055,5.5903,5.4457,5.2742,0.0,0.0,0.0,0.0,0.0,0.0,0.0,0.0,0.0,0.0,0.0,0.0,0.0,0.0,0.0,0.0,0.0,0.0,0.0,0.0,0.0,0.0,0.0,0.0,0.0,0.0,0.0,0.0,0.0,0.0,0.0,0.0,0.0,0.0,0.0,0.0,0.0,0.0,0.0,0.0,0.0,0.0,0.0,0.0,0.0,0.0,0.0,0.0,5.3217,0.0,0.0,0.0,0.0,0.0,0.0,0.0,0.0,0.0,0.0,0.0,0.0,0.0,0.0,0.0,0.0,0.0,0.0,0.0,0.0,0.0,0.0,0.0,0.0,0.0,0.0,0.0,0.0,0.0,0.0,0.0,0.0,0.0,0.0,0.0,0.0,0.0,0.0,0.0,0.0,0.0,0.0,0.0,0.0,0.0,0.0,0.0,0.0,0.0,0.0,0.0,0.0,0.0,0.0,0.0,0.0,0.0,0.0,0.0,4.7955,5.1814,5.3821,5.532,5.6298,5.5407,5.3883,0.0,0.0,0.0,0.0,0.0,0.0,0.0,0.0,0.0,0.0,0.0,0.0,0.0,0.0,0.0,0.0,0.0,0.0,0.0,0.0,0.0,0.0,0.0,0.0,0.0,0.0,0.0,0.0,0.0,0.0,0.0,0.0,0.0,0.0,0.0,0.0,0.0,0.0,0.0,0.0,0.0,0.0,0.0,0.0,0.0,0.0,0.0,0.0,0.0,0.0,0.0,0.0,0.0,0.0,0.0,0.0,0.0,0.0,0.0,0.0,0.0,0.0,0.0,0.0,0.0,0.0,0.0,0.0,0.0,0.0,0.0,0.0,0.0,0.0,0.0,0.0,0.0,0.0,0.0,0.0,0.0,0.0,0.0,0.0,0.0,0.0,0.0,0.0,0.0,0.0,0.0,0.0,0.0,0.0,0.0,0.0,0.0,0.0,0.0,0.0,0.0,0.0,0.0,0.0,0.0,0.0,0.0,4.6274,4.8242,5.1266,5.3566,5.5207,5.6235,5.615,5.4953,5.2675,0.0,0.0,0.0,0.0,0.0,0.0,0.0,0.0,0.0,0.0,0.0,0.0,0.0,0.0,0.0,0.0,0.0,0.0,0.0,0.0,0.0,0.0,0.0,0.0,0.0,0.0,0.0,0.0,0.0,0.0,0.0,0.0,0.0,0.0,0.0,0.0,0.0,0.0,5.1008,5.1688,0.0,0.0,0.0,0.0,0.0,0.0,0.0,0.0,5.3038,0.0,0.0,0.0,0.0,0.0,0.0,0.0,0.0,0.0,0.0,0.0,0.0,0.0,0.0,0.0,0.0,0.0,0.0,0.0,0.0,0.0,0.0,0.0,0.0,0.0,0.0,0.0,0.0,0.0,0.0,0.0,0.0,0.0,0.0,0.0,0.0,0.0,0.0,0.0,0.0,0.0,0.0,0.0,0.0,0.0,0.0,0.0,0.0,0.0,0.0,0.0,0.0,0.0,0.0,0.0,0.0,4.8031,4.6512,4.7369,5.0894,5.3154,5.4628,5.5295,5.5705,5.5096,5.3299,0.0,0.0,0.0,0.0,0.0,0.0,0.0,0.0,0.0,0.0,0.0,0.0,0.0,0.0,0.0,0.0,0.0,0.0,0.0,0.0,0.0,0.0,0.0,0.0,0.0,0.0,0.0,0.0,0.0,0.0,0.0,0.0,0.0,0.0,0.0,0.0,0.0,0.0,0.0,5.4218,5.4764,0.0,0.0,0.0,0.0,0.0,0.0,0.0,0.0,5.2827,0.0,0.0,0.0,0.0,0.0,0.0,0.0,0.0,0.0,0.0,0.0,0.0,0.0,0.0,0.0,0.0,0.0,0.0,0.0,0.0,0.0,0.0,0.0,0.0,0.0,0.0,0.0,0.0,0.0,0.0,0.0,0.0,0.0,0.0,0.0,0.0,0.0,0.0,0.0,0.0,0.0,0.0,0.0,0.0,0.0,0.0,0.0,0.0,0.0,0.0,0.0,0.0,0.0,0.0,0.0,4.741,4.6962,4.783,5.039,5.2918,5.4141,5.4002,5.4375,5.4017,0.0,0.0,0.0,0.0,0.0,0.0,0.0,0.0,0.0,0.0,0.0,0.0,0.0,0.0,0.0,0.0,0.0,0.0,0.0,0.0,0.0,0.0,0.0,0.0,0.0,0.0,0.0,0.0,0.0,0.0,0.0,0.0,0.0,0.0,0.0,0.0,0.0,0.0,0.0,0.0,5.4109,5.4425,5.4297,0.0,0.0,0.0,0.0,0.0,0.0,5.2344,5.2894,0.0,0.0,0.0,0.0,0.0,0.0,0.0,0.0,0.0,0.0,0.0,0.0,0.0,0.0,0.0,0.0,0.0,0.0,0.0,0.0,0.0,0.0,0.0,0.0,0.0,0.0,0.0,0.0,0.0,0.0,0.0,0.0,0.0,0.0,0.0,0.0,0.0,0.0,0.0,0.0,0.0,0.0,0.0,0.0,0.0,0.0,0.0,0.0,0.0,0.0,0.0,0.0,0.0,0.0,0.0,4.6789,4.7548,4.8722,5.0428,5.2879,5.3894,5.3384,5.354,5.3197,0.0,0.0,0.0,0.0,0.0,0.0,0.0,0.0,0.0,0.0,0.0,0.0,0.0,0.0,0.0,0.0,0.0,0.0,0.0,0.0,0.0,0.0,0.0,0.0,0.0,0.0,0.0,0.0,0.0,0.0,0.0,0.0,0.0,0.0,0.0,0.0,0.0,0.0,0.0,0.0,0.0,5.4549,5.4094,5.3865,0.0,0.0,0.0,0.0,5.2572,5.3672,0.0,0.0,0.0,0.0,0.0,0.0,0.0,0.0,0.0,0.0,0.0,0.0,0.0,0.0,0.0,0.0,0.0,0.0,0.0,0.0,0.0,0.0,0.0,0.0,0.0,0.0,0.0,0.0,0.0,0.0,0.0,0.0,0.0,0.0,0.0,0.0,0.0,0.0,0.0,0.0,0.0,0.0,0.0,0.0,0.0,0.0,0.0,0.0,0.0,0.0,0.0,0.0,0.0,0.0,0.0,0.0,4.7548,4.8307,4.9659,5.1709,5.3234,5.4184,5.4593,5.4377,5.3907,0.0,0.0,0.0,0.0,0.0,0.0,0.0,0.0,0.0,0.0,0.0,0.0,0.0,0.0,0.0,0.0,0.0,0.0,0.0,0.0,0.0,0.0,0.0,0.0,0.0,0.0,0.0,0.0,0.0,0.0,0.0,0.0,0.0,0.0,0.0,0.0,0.0,0.0,0.0,0.0,0.0,5.7631,5.5201,5.5432,5.5524,0.0,0.0,5.3823,5.4907,5.7067,0.0,0.0,0.0,0.0,0.0,0.0,0.0,0.0,0.0,0.0,0.0,0.0,0.0,0.0,0.0,0.0,0.0,0.0,0.0,0.0,0.0,0.0,0.0,0.0,0.0,0.0,0.0,0.0,0.0,0.0,0.0,0.0,0.0,0.0,0.0,0.0,0.0,0.0,0.0,0.0,0.0,0.0,0.0,0.0,0.0,0.0,0.0,0.0,0.0,0.0,0.0,0.0,0.0,0.0,0.0,4.6617,4.7686,4.841,4.984,5.1946,5.3318,5.404,5.4085,5.3427,5.2905,0.0,0.0,0.0,0.0,0.0,0.0,0.0,0.0,0.0,0.0,0.0,0.0,0.0,0.0,0.0,0.0,0.0,0.0,0.0,0.0,0.0,0.0,0.0,0.0,0.0,0.0,0.0,0.0,0.0,0.0,0.0,0.0,0.0,0.0,0.0,0.0,0.0,0.0,0.0,0.0,0.0,0.0,5.5935,5.6584,0.0,0.0,0.0,5.5164,5.7013,0.0,0.0,0.0,0.0,0.0,0.0,0.0,0.0,0.0,0.0,0.0,0.0,0.0,0.0,0.0,0.0,0.0,0.0,0.0,0.0,0.0,0.0,0.0,0.0,0.0,0.0,0.0,0.0,0.0,0.0,0.0,0.0,0.0,0.0,0.0,0.0,0.0,0.0,0.0,0.0,0.0,0.0,0.0,0.0,0.0,0.0,0.0,0.0,0.0,0.0,0.0,0.0,0.0,0.0,0.0,0.0,0.0,4.7686,4.8737,5.0342,5.246,5.3599,5.4156,5.408,5.2933,0.0,0.0,0.0,0.0,0.0,0.0,0.0,0.0,0.0,0.0,0.0,0.0,0.0,0.0,0.0,0.0,0.0,0.0,0.0,0.0,0.0,0.0,0.0,0.0,0.0,0.0,0.0,4.7719,0.0,0.0,0.0,0.0,0.0,0.0,0.0,0.0,0.0,0.0,0.0,0.0,0.0,0.0,5.7753,5.6607,5.7619,5.8454,0.0,0.0,5.7023,5.8705,5.8959,5.8203,0.0,0.0,0.0,0.0,0.0,0.0,0.0,0.0,0.0,0.0,0.0,0.0,0.0,0.0,0.0,0.0,0.0,0.0,0.0,0.0,0.0,0.0,0.0,0.0,0.0,0.0,0.0,0.0,0.0,0.0,0.0,0.0,0.0,0.0,0.0,0.0,0.0,0.0,0.0,0.0,0.0,0.0,0.0,0.0,0.0,0.0,0.0,0.0,0.0,0.0,0.0,0.0,0.0,0.0,4.7651,4.7769,4.9658,5.1679,5.3791,5.4433,5.4963,5.5409,5.3937,5.3104,0.0,0.0,0.0,0.0,0.0,0.0,0.0,0.0,0.0,0.0,0.0,0.0,0.0,0.0,0.0,0.0,0.0,0.0,0.0,0.0,0.0,0.0,0.0,0.0,0.0,0.0,0.0,0.0,0.0,0.0,0.0,0.0,0.0,0.0,0.0,0.0,0.0,0.0,0.0,0.0,0.0,5.81,5.7228,5.8495,5.9837,0.0,6.0592,6.0157,5.9698,6.2525,6.2955,5.7419,0.0,0.0,0.0,0.0,0.0,0.0,0.0,0.0,0.0,0.0,0.0,0.0,0.0,0.0,0.0,0.0,0.0,0.0,0.0,0.0,0.0,0.0,0.0,0.0,0.0,0.0,0.0,0.0,0.0,0.0,0.0,0.0,0.0,0.0,0.0,0.0,0.0,0.0,0.0,0.0,0.0,0.0,0.0,0.0,0.0,0.0,0.0,0.0,0.0,0.0,0.0,0.0,0.0,4.7644,4.7595,4.9402,5.1275,5.3197,5.3954,5.4472,5.4866,5.3775,5.2957,0.0,0.0,0.0,0.0,0.0,0.0,0.0,0.0,0.0,0.0,0.0,0.0,0.0,0.0,0.0,0.0,0.0,0.0,0.0,0.0,0.0,0.0,0.0,0.0,0.0,0.0,0.0,0.0,4.9443,5.0273,5.159,0.0,0.0,0.0,0.0,0.0,0.0,0.0,0.0,0.0,0.0,5.9583,5.9758,6.0773,0.0,0.0,6.1242,6.1356,6.1811,6.1931,6.1172,5.8621,5.727,0.0,0.0,0.0,0.0,0.0,0.0,0.0,0.0,0.0,0.0,0.0,0.0,0.0,0.0,0.0,0.0,0.0,0.0,0.0,0.0,0.0,0.0,0.0,0.0,0.0,0.0,0.0,0.0,0.0,0.0,0.0,0.0,0.0,0.0,0.0,0.0,0.0,0.0,0.0,0.0,0.0,0.0,0.0,0.0,0.0,0.0,0.0,0.0,0.0,0.0,0.0,0.0,4.7712,4.7854,4.9555,5.1362,5.3138,5.4019,5.458,5.4697,5.3959,5.3067,0.0,0.0,0.0,0.0,0.0,0.0,0.0,0.0,0.0,0.0,0.0,0.0,0.0,0.0,0.0,0.0,0.0,0.0,0.0,0.0,0.0,0.0,0.0,0.0,0.0,0.0,0.0,0.0,5.0249,5.0961,5.1867,0.0,0.0,0.0,0.0,0.0,0.0,0.0,0.0,0.0,0.0,6.0424,6.1235,6.2076,6.2433,6.183,6.1714,6.1986,6.2829,6.1546,6.0103,5.9025,0.0,0.0,0.0,0.0,0.0,0.0,0.0,0.0,0.0,0.0,0.0,0.0,0.0,0.0,0.0,0.0,0.0,0.0,0.0,0.0,0.0,0.0,0.0,0.0,0.0,0.0,0.0,5.2373,0.0,0.0,5.083,0.0,0.0,0.0,0.0,0.0,0.0,0.0,0.0,0.0,0.0,0.0,0.0,0.0,0.0,0.0,0.0,0.0,0.0,0.0,0.0,0.0,0.0,4.7854,4.8604,5.0515,5.2338,5.393,5.5,5.5541,5.5548,5.4766,5.3628,5.206,0.0,0.0,0.0,0.0,0.0,0.0,0.0,0.0,0.0,0.0,0.0,0.0,0.0,0.0,0.0,0.0,0.0,0.0,0.0,0.0,0.0,0.0,0.0,0.0,0.0,0.0,5.224,5.2274,5.1978,0.0,0.0,0.0,0.0,0.0,0.0,0.0,0.0,0.0,5.7229,5.8873,6.0258,6.1123,6.1904,6.2485,6.255,6.2297,6.217,6.2424,6.2038,6.0923,0.0,0.0,0.0,0.0,0.0,0.0,0.0,0.0,0.0,0.0,0.0,0.0,0.0,0.0,0.0,0.0,0.0,0.0,0.0,0.0,0.0,0.0,0.0,0.0,0.0,0.0,0.0,5.2615,5.2919,0.0,0.0,0.0,0.0,0.0,0.0,0.0,0.0,0.0,0.0,0.0,5.2031,5.2666,0.0,0.0,0.0,0.0,0.0,0.0,0.0,0.0,0.0,0.0,0.0,0.0,4.8761,4.9805,5.1168,5.2743,5.447,5.539,5.5781,5.5611,5.484,5.3408,5.1279,0.0,0.0,0.0,0.0,0.0,0.0,0.0,0.0,0.0,0.0,0.0,0.0,0.0,0.0,0.0,0.0,0.0,0.0,0.0,0.0,0.0,0.0,0.0,0.0,0.0,5.3105,0.0,0.0,0.0,0.0,0.0,0.0,0.0,0.0,0.0,0.0,5.4805,5.579,5.8019,5.9728,6.1065,6.1882,6.2908,6.3426,0.0,0.0,0.0,0.0,0.0,0.0,0.0,0.0,0.0,0.0,0.0,0.0,0.0,0.0,6.484,6.037,5.9293,5.9185,5.9452,0.0,0.0,0.0,0.0,0.0,0.0,0.0,0.0,0.0,0.0,0.0,0.0,0.0,0.0,5.2529,5.3324,5.278,0.0,0.0,0.0,0.0,0.0,0.0,0.0,0.0,5.3864,5.4351,5.3821,5.4759,5.5312,5.5459,5.524,5.4119,0.0,0.0,0.0,0.0,0.0,0.0,0.0,0.0,4.9447,5.0555,5.1659,5.2979,5.442,5.5087,5.5489,5.5574,5.4546,5.3251,5.1673,5.0849,5.0665,0.0,0.0,0.0,0.0,0.0,0.0,0.0,0.0,0.0,0.0,0.0,0.0,0.0,0.0,0.0,0.0,0.0,0.0,0.0,0.0,0.0,0.0,0.0,5.3487,0.0,0.0,0.0,0.0,0.0,0.0,0.0,0.0,0.0,5.6273,5.605,5.6979,5.9988,6.0842,6.165,6.2854,0.0,0.0,0.0,0.0,0.0,0.0,0.0,6.2306,6.281,6.2657,6.2618,6.3136,6.4541,6.5827,6.665,0.0,0.0,6.3046,6.2124,6.1855,6.1667,6.1778,6.1643,6.0863,6.1032,6.1068,0.0,0.0,0.0,0.0,5.2042,0.0,0.0,0.0,5.1762,5.2341,0.0,5.2146,0.0,0.0,0.0,0.0,5.2246,5.4943,0.0,0.0,5.6372,5.7226,5.5904,5.7324,5.7666,5.6994,5.7655,5.7178,5.5519,5.2305,0.0,0.0,0.0,0.0,0.0,0.0,5.0035,5.1015,5.2189,5.3145,5.3963,5.4309,5.484,5.5511,5.4095,5.3287,5.3177,5.238,5.1977,5.206,5.3455,0.0,0.0,0.0,0.0,0.0,0.0,0.0,0.0,0.0,0.0,0.0,0.0,0.0,0.0,0.0,0.0,0.0,0.0,0.0,0.0,5.4304,0.0,0.0,0.0,0.0,0.0,0.0,0.0,0.0,0.0,5.8762,5.8947,5.8252,5.9133,6.3033,0.0,0.0,0.0,0.0,6.4492,6.5196,6.5345,6.5778,6.6803,6.6352,6.5628,6.482,0.0,0.0,6.5895,6.5875,6.6221,6.6895,6.6852,6.6726,6.8253,6.7552,6.6626,6.5561,6.4949,6.4707,6.4712,6.4832,6.4958,5.5521,0.0,0.0,0.0,0.0,5.4062,5.4543,5.489,5.4245,5.4155,5.4396,5.3923,0.0,0.0,0.0,0.0,0.0,0.0,5.6889,5.5934,5.8518,5.9159,5.8205,5.9245,5.9612,5.938,5.9013,5.8315,5.7288,5.5754,5.4422,5.3264,0.0,0.0,0.0,0.0,5.136,5.3002,5.3409,5.4138,5.5287,5.5295,5.5365,5.5585,5.5144,5.4363,5.3214,5.2417,5.227,5.2821,5.2794,0.0,0.0,0.0,0.0,0.0,0.0,0.0,0.0,0.0,0.0,0.0,0.0,0.0,0.0,0.0,0.0,0.0,0.0,0.0,5.5874,5.5159,5.4825,0.0,0.0,0.0,0.0,0.0,0.0,0.0,0.0,0.0,6.2736,6.2365,6.229,0.0,0.0,6.4078,6.4957,6.5312,6.5854,6.6909,6.7321,0.0,6.7128,6.6891,6.6673,6.6436,6.7376,6.8495,6.954,6.9415,6.9626,7.0863,7.0962,7.0857,7.0805,6.9067,6.7653,6.7414,6.7341,6.7136,6.6885,6.6935,6.6953,5.9327,5.7228,5.675,5.6224,5.5856,5.6301,5.6654,5.6879,5.5867,5.5764,5.615,5.5137,5.4638,5.4503,5.5096,0.0,0.0,0.0,5.8673,5.8093,6.0335,6.1068,6.0701,6.1484,6.1851,6.1814,6.0713,5.9905,5.9391,5.8279,5.7528,5.6891,0.0,5.2769,5.3876,5.3095,5.3441,5.4948,5.5184,5.5649,5.6379,5.625,5.6143,5.6099,5.6187,5.5768,5.4721,5.3634,5.3297,5.3765,5.3386,5.3216,0.0,0.0,0.0,0.0,0.0,0.0,0.0,0.0,0.0,0.0,0.0,5.3879,5.443,0.0,0.0,0.0,5.4527,5.5345,5.6209,5.5837,0.0,0.0,0.0,0.0,0.0,0.0,0.0,6.073,6.1733,6.307,6.5039,6.5448,6.5522,6.5522,6.5113,6.5296,6.6662,0.0,6.7315,6.9017,6.9475,6.9548,6.9402,6.9095,6.8829,6.8648,6.9268,7.0176,7.1238,7.1259,7.1503,7.2458,7.2595,7.2459,7.2495,7.0921,6.941,6.9096,6.9291,6.9395,6.9173,6.9376,6.961,6.3442,6.2599,6.0322,5.9245,5.8974,5.8974,5.8943,5.8784,5.7196,5.7291,5.8413,5.616,5.5902,5.7333,5.8087,0.0,5.7474,5.9822,6.0426,5.9764,6.1961,6.2976,6.2939,6.3686,6.4139,6.4127,6.2561,6.1814,6.1814,6.0419,6.0077,6.0677,5.7287,5.561,5.5731,5.5602,5.5901,5.6691,5.7171,5.7375,5.7204,5.7159,5.7066,5.6966,5.7166,5.7157,5.6864,5.5571,5.4747,5.4599,5.4589,5.4334,5.3657,0.0,0.0,0.0,0.0,0.0,0.0,0.0,0.0,0.0,0.0,0.0,0.0,0.0,0.0,5.398,5.4639,0.0,5.6395,5.6506,0.0,0.0,0.0,5.9022,5.9096,6.1102,6.2513,6.2588,0.0,0.0,6.6265,6.7627,6.8593,6.8667,6.6662,6.6167,6.8895,6.8575,6.8892,7.1084,7.154,7.1854,7.2142,7.1786,7.1242,7.0887,7.096,7.1116,7.1664,7.1723,7.2023,7.256,7.2336,7.2279,7.3121,7.2673,7.2126,7.0652,7.09,7.1358,7.1307,7.1798,7.218,6.6302,6.6079,6.5485,6.3813,6.1585,6.2157,6.2072,6.1478,6.1047,6.0082,5.8693,5.8672,5.8498,5.8254,5.9474,5.9946,5.9895,6.2206,6.2806,6.2132,6.387,6.4383,6.3796,6.398,6.442,6.4934,6.398,6.3846,6.4371,6.404,6.3967,6.4039,6.2722,6.0639,5.7932,5.7094,5.6987,5.7595,5.7823,5.8,5.8099,5.8061,5.8043,5.8021,5.8076,5.7485,5.6235,5.5813,5.5059,5.386,5.3884,5.3563,5.2768,5.3364,0.0,0.0,0.0,0.0,0.0,0.0,0.0,0.0,0.0,5.4054,5.4676,0.0,5.4936,0.0,5.5503,5.657,5.7992,5.8141,0.0,0.0,6.0927,6.177,6.2365,6.2959,6.3553,6.4148,6.5336,6.6562,6.7788,6.8705,6.9495,7.0051,6.9149,6.8976,7.0532,7.052,7.0631,7.1498,7.2198,7.249,7.2074,7.1907,7.1765,7.1676,7.1422,7.1377,7.1933,7.1751,7.1762,7.2428,7.2475,7.2488,7.2678,7.2858,7.299,7.2593,7.2378,7.2224,7.2239,7.24,7.2638,6.8865,6.8816,6.8816,6.7741,6.595,6.5104,6.4445,6.4036,6.3571,6.2609,6.13,6.1263,6.0998,6.0586,6.1665,6.2181,6.2279,6.3908,6.4383,6.4004,6.5251,6.5595,6.5191,6.5154,6.5411,6.5815,6.5007,6.4861,6.5288,6.5325,6.5327,6.5379,6.5018,6.3644,6.136,6.0053,5.995,6.1114,6.0642,6.0249,5.9981,5.9372,5.915,5.9438,5.8491,5.7709,5.7053,5.6033,5.5286,5.4778,5.4457,5.4069,5.3587,5.3719,5.3498,0.0,0.0,0.0,0.0,0.0,0.0,0.0,0.0,0.0,0.0,0.0,5.6422,5.7127,5.7992,5.8985,6.0248,6.099,6.1659,6.2216,6.2996,6.3628,6.4073,6.5113,6.5944,6.633,6.7406,6.8457,6.9285,6.9702,7.0243,7.102,7.0708,7.0639,7.1268,7.1132,7.1231,7.2353,7.2631,7.2605,7.2057,7.1883,7.1827,7.1804,7.1613,7.1689,7.2251,7.2179,7.2138,7.2465,7.2709,7.2853,7.2881,7.3248,7.3616,7.3591,7.339,7.3196,7.3169,7.3169,7.3287,7.1289,7.1122,7.1048,7.0932,7.0595,6.7827,6.6552,6.628,6.5419,6.4927,6.4656,6.3628,6.3199,6.337,6.4067,6.4396,6.447,6.5228,6.5545,6.5521,6.6292,6.6623,6.6512,6.6512,6.6549,6.6623,6.5852,6.5521,6.5582,6.5608,6.5685,6.5801,6.5924,6.5794,6.5336,6.3955,6.3899,6.5185,6.4249,6.3364,6.2662,6.12,6.0619,6.0899,5.8815,5.7755,5.7995,5.6186,5.5466,5.606,5.5419,5.5047,5.5122,5.4379,5.4131,0.0,5.4354,0.0,0.0,0.0,0.0,0.0,0.0,0.0,0.0,5.7685,5.8873,6.0248,6.125,6.2079,6.2662,6.4136,6.4867,6.431,6.4881,6.5389,6.5587,6.748,6.8729,6.8617,6.99,7.0774,7.0632,7.0716,7.1058,7.1686,7.1674,7.1609,7.1719,7.128,7.149,7.323,7.2882,7.2435,7.2398,7.2105,7.1864,7.1837,7.1851,7.2014,7.2539,7.2658,7.2602,7.2582,7.2936,7.3259,7.3298,7.3701,7.409,7.4113,7.4109,7.4147,7.3986,7.3928,7.3995,7.3626,7.3416,7.2737,7.2465,7.2304,7.0436,6.8947,6.7714,6.7517,6.6691,6.5361,6.4377,6.4389,6.5088,6.5733,6.6035,6.6122,6.6893,6.688,6.6292,6.7113,6.7136,6.6512,6.6512,6.6856,6.7407,6.6659,6.6623,6.726,6.7379,6.7445,6.7471,6.8214,6.8736,6.8967,0.0,0.0,0.0,6.6112,6.6466,6.6243,6.4696,6.3285,6.2086,5.9743,0.0,5.5798,5.5929,5.58,5.527,5.5085,0.0,0.0,0.0,0.0,0.0,0.0,0.0,0.0,0.0,0.0,0.0,6.255,6.2068,5.9542,6.1224,6.2588,6.2885,6.4259,6.4928,6.4408,6.5725,6.6888,6.737,6.8049,6.8688,6.9353,6.9834,7.0117,7.0104,7.0927,7.1505,7.1478,7.195,7.2309,7.242,7.2404,7.2333,7.2288,7.2118,7.2271,7.2627,7.2563,7.2512,7.2609,7.2526,7.242,7.2493,7.253,7.2511,7.2531,7.2539,7.2539,7.2524,7.2949,7.3324,7.3337,7.396,7.4582,7.4582,7.4893,7.498,7.4192,7.4021,7.3936,7.4769,7.4554,7.4148,7.3737,0.0,7.2429,7.1177,6.9617,6.8923,6.8062,6.7187,6.6312,6.6604,6.7757,6.7714,6.7907,6.8311,6.8692,6.8678,6.8311,6.8678,6.8678,6.8274,6.8274,6.8471,6.8875,6.8495,6.8535,6.8984,6.9051,6.9157,6.9265,6.9749,7.0143,7.042,7.0296,6.8902,6.6359,6.6949,6.7082,6.6673,6.5448,6.4408,6.3553,6.0805,0.0,0.0,0.0,0.0,0.0,0.0,0.0,0.0,5.7053,0.0,5.7703,5.8727,5.9562,6.0136,6.189,6.3145,6.359,6.5485,6.5596,6.3108,6.411,6.5002,6.5448,6.6933,6.7652,6.7246,6.8519,6.9456,6.9429,6.9684,7.0051,7.0457,7.0877,7.1058,7.1065,7.1678,7.2167,7.2097,7.2358,7.261,7.2596,7.2539,7.2334,7.2004,7.1894,7.1894,7.1931,7.2312,7.251,7.2582,7.2596,7.2596,7.2596,7.2596,7.2567,7.251,7.2532,7.2582,7.2853,7.33,7.3689,7.4009,7.4592,7.5095,7.5114,7.53,7.5374,7.4814,7.4743,7.468,7.5646,7.5478,7.5331,7.4816,7.4111,7.3979,7.301,7.1394,6.994,0.0,0.0,6.8398,6.8875,7.0036,6.9412,6.9486,7.0073,7.011,7.011,7.011,7.011,7.011,7.011,7.011,7.011,7.011,7.011,7.0179,7.0252,7.0427,7.0538,7.0678,7.0976,7.1189,7.1316,7.1205,7.0165,6.8283,6.8171,6.7837,6.7156,6.6339,6.5671,6.5262,6.2365,6.0508,5.9876,5.813,5.7472,5.8093,5.8167,5.8576,5.9505,5.943,5.9549,5.998,6.1145,6.1997,6.2402,6.429,6.5671,6.6042,6.8233,6.8753,6.6822,6.6947,6.7343,6.7863,6.936,7.0225,7.011,7.1231,7.1807,7.1169,7.0958,7.087,7.0894,7.1424,7.1761,7.1761,7.2372,7.2771,7.2524,7.2657,7.2642,7.2532,7.2349,7.2078,7.149,7.1344,7.1454,7.1674,7.2165,7.2496,7.2496,7.2496,7.2532,7.251,7.2596,7.2653,7.2667,7.27,7.2963,7.3338,7.381,7.4248,7.4644,7.5095,7.5492,7.5509,7.5509,7.5509,7.5509,7.5509,7.5368,7.7141,7.6916,7.6233,7.5888,7.5726,7.5014,7.3802,7.2239,7.0652,6.994,6.9926,6.9816,6.9903,7.011,6.9963,7.0,7.011,7.011,7.011,7.011,7.011,7.011,7.011,7.011,7.011,7.011,7.011,7.0087,7.0225,7.096,7.1061,7.0829,7.2058,7.2907,7.3001,7.2382,7.1862,7.1527,7.1527,7.1453,7.1342,7.0499,6.9051,6.7008,6.5113,6.2736,6.0025,6.0285,6.0555,6.0667,6.0656,6.1336,6.2773,6.229,6.2212,6.2925,6.381,6.4616,6.5466,6.7043,6.8902,7.1007,7.2754,7.2444,6.9534,7.0349,7.0841,7.0396,7.1638,7.2519,7.2428,7.2554,7.2853,7.3216,7.2675,7.2237,7.2237,7.231,7.242,7.2392,7.3075,7.3222,7.2679,7.3046,7.3156,7.2569,7.2092,7.149,7.138,7.1307,7.16,7.2151,7.2422,7.2532,7.2567,7.2496,7.2567,7.2532,7.2936,7.3143,7.3056,7.3379,7.3676,7.3843,7.4206,7.4554,7.4735,7.5132,7.5427,7.5509,7.5509,7.5509,7.5509,7.5509,7.528,7.735,7.7252,7.6885,7.6481,7.6019,7.5234,7.4463,7.3729,7.3046,7.1931,7.072,7.0293,7.0587,7.1358,7.1394,7.1394,7.1431,7.1835,7.1798,7.1468,7.1835,7.2055,7.2092,7.2496,7.2701,7.2716,7.2716,7.2722,7.2845,7.327,7.3332,7.319,7.3554,7.3589,7.3292,7.2934,7.2787,7.2828,7.1961,7.1478,7.1478,7.1094,7.0165,6.8642,6.7404,6.5708,6.3368,6.3182,6.3145,6.3145,6.3145,6.3925,6.5485,6.5262,6.5411,6.6228,6.7008,6.7639,6.8011,6.9917,7.1919,7.3848,7.4633,7.4431,7.2936,7.3481,7.3529,7.2745,7.3674,7.4233,7.4111,7.404,7.4116,7.4397,7.403,7.3802,7.3766,7.3377,7.3171,7.312,7.3083,7.2899,7.2532,7.2826,7.2936,7.2496,7.2129,7.1821,7.1417,7.1674,7.2055,7.2422,7.2496,7.2616,7.283,7.2949,7.3034,7.3261,7.3491,7.3453,7.3167,7.3518,7.3876,7.3808,7.4251,7.4758,7.5019,7.53,7.5492,7.5509,7.5509,7.5509,7.5509,7.5509,7.5204,7.7326,7.7326,7.7326,7.6907,7.6252,7.562,7.5254,7.5152,7.5115,7.3993,7.2188,7.1431,7.1872,7.2973,7.3046,7.3046,7.312,7.367,7.3634,7.3156,7.367,7.3964,7.4037,7.4625,7.4903,7.4903,7.4903,7.4978,7.5044,7.5206,7.5426,7.5533,7.4838,7.4206,7.37,7.37,7.3744,7.3803,7.2615,7.1811,7.1465,7.1465,7.1094,7.0276,6.9645,6.858,6.7008,6.6265,6.5893,6.5893,6.5893,6.6599,6.7973,6.8085,6.8382,6.9051,6.9954,7.0659,7.1066,7.2828,7.4404,7.544,7.5772,7.5761,7.5414,7.5795,7.5564,7.4676,7.4877,7.5211,7.5235,7.5095,7.5073,7.5139,7.4977,7.472,7.4588,7.4074,7.3722,7.3611,7.301,7.2569,7.2679,7.2606,7.2532,7.2532,7.2642,7.2459,7.1872,7.2324,7.2842,7.2695,7.2658,7.276,7.314,7.3329,7.3454,7.3749,7.3951,7.3733,7.3353,7.3709,7.4077,7.3951,7.4361,7.4952,7.5401,7.5509,7.5509,7.5509,7.5509,7.5509,7.5509,7.5509,7.5318,7.7326,7.7326,7.7273,7.7212,7.6962,7.6694,7.6272,7.5848,7.5791,7.5355,7.4522,7.4463,7.4463,7.4683,7.4647,7.461,7.461,7.4757,7.472,7.4647,7.4757,7.4793,7.4808,7.4903,7.4903,7.4977,7.4977,7.5065,7.508,7.5719,7.6125,7.6199,7.5629,7.5221,7.5175,7.5175,7.5208,7.5361,7.525,7.4539,7.3261,7.3162,7.2791,7.2011,7.1899,7.1069,6.9459,6.9298,6.9236,6.9236,6.9236,6.9645,7.0462,7.0574,7.0611,7.0747,7.2055,7.3418,7.4737,7.5766,7.5988,7.5619,7.6735,7.6825,7.5477,7.6545,7.6729,7.5485,7.5,7.5367,7.5866,7.5425,7.5337,7.5909,7.5417,7.4625,7.4147,7.3758,7.3722,7.3722,7.312,7.2789,7.3303,7.2936,7.2532,7.2532,7.3193,7.323,7.2539,7.3522,7.4033,7.3466,7.3233,7.3093,7.3011,7.344,7.3484,7.3128,7.3862,7.3949,7.3699,7.4229,7.5107,7.4255,7.4792,7.5362,7.5436,7.5509,7.5509,7.5509,7.5509,7.5509,7.5509,7.5509,7.5395,7.7279,7.7186,7.7186,7.7092,7.6913,7.6817,7.6651,7.6423,7.657,7.6444,7.6249,7.6289,7.5821,7.494,7.538,7.5344,7.494,7.538,7.5344,7.4977,7.538,7.5616,7.5637,7.6114,7.6335,7.6335,7.6335,7.6335,7.6371,7.6628,7.6637,7.6257,7.5927,7.5632,7.5263,7.5203,7.5354,7.5593,7.5606,7.5304,7.4882,7.4834,7.4686,7.4314,7.3868,7.3088,7.1998,7.1441,7.118,7.1218,7.1626,7.2035,7.2369,7.3261,7.3556,7.3093,7.3909,7.4959,7.6048,7.6353,7.6516,7.6678,7.7179,7.7162,7.6514,7.7065,7.7102,7.6572,7.6365,7.6481,7.6702,7.6518,7.6445,7.6702,7.6518,7.6151,7.5894,7.5359,7.5102,7.5028,7.4001,7.3303,7.3487,7.301,7.2569,7.2679,7.3523,7.3891,7.2928,7.4418,7.5373,7.4686,7.4289,7.3853,7.3323,7.2939,7.2931,7.3011,7.3317,7.3466,7.3484,7.4023,7.4575,7.4231,7.4889,7.5395,7.5501,7.5509,7.5509,7.5509,7.5509,7.5509,7.5509,7.5509,7.5527,7.7202,7.7092,7.6998,7.6886,7.6757,7.6672,7.6705,7.6801,7.6966,7.7077,7.7171,7.7279,7.6665,7.5747,7.6203,7.6093,7.5674,7.6166,7.6114,7.5637,7.6203,7.6423,7.6481,7.6995,7.7326,7.7326,7.7289,7.7289,7.7326,7.7326,7.6995,7.6481,7.6423,7.619,7.5765,7.5706,7.5838,7.6119,7.6147,7.6231,7.636,7.636,7.6189,7.5787,7.5243,7.4622,7.4026,7.3484,7.3187,7.3148,7.3691,7.3988,7.4063,7.5062,7.5449,7.5088,7.5406,7.5984,7.6729,7.6685,7.6868,7.742,7.7387,7.7326,7.7326,7.7326,7.7326,7.7252,7.7326,7.7252,7.7326,7.7326,7.7326,7.7326,7.7326,7.7252,7.6885,7.6387,7.6056,7.5983,7.4588,7.3611,7.3354,7.2863,7.2642,7.3289,7.4169,7.472,7.4007,7.5505,7.6653,7.5525,7.5027,7.4579,7.3801,7.308,7.2686,7.2544,7.2801,7.3021,7.2796,7.3361,7.3858,7.3743,7.463,7.5242,7.5433,7.5509,7.5518,7.5509,7.5518,7.5527,7.5514,7.5506,7.5549,7.7108,7.7045,7.6741,7.663,7.6597,7.6429,7.6508,7.6806,7.6801,7.6977,7.7264,7.731,7.7252,7.7105,7.7142,7.7215,7.7179,7.7142,7.7142,7.7069,7.7179,7.7252,7.7252,7.7289,7.7326,7.7326,7.7326,7.7326,7.7326,7.7326,7.7289,7.7215,7.7179,7.7179,7.7084,7.7063,7.727,7.7429,7.7371,7.7577,7.7786,7.7737,7.7032,7.603,7.5787,7.5632,7.5462,7.5571,7.551,7.5398,7.5398,7.5472,7.5458,7.5444,7.5695,7.6192,7.6346,7.6589,7.713,7.7209,7.7268,7.7304,7.7341,7.7326,7.7326,7.7326,7.7326,7.7326,7.7326,7.7326,7.7326,7.7326,7.7326,7.7326,7.7326,7.6995,7.6313,7.624,7.613,7.5909,7.4713,7.3501,7.2716,7.2532,7.3266,7.4206,7.483,7.505,7.5706,7.6844,7.6917,7.5941,7.5405,7.5207,7.432,7.3172,7.2444,7.21,7.21,7.2643,7.2452,7.2376,7.2796,7.3246,7.3858,7.4507,7.5204,7.5518,7.5518,7.5518,7.5527,7.5544,7.5583,7.5591,7.5633,7.6966,7.6777,7.6512,7.6412,7.6412,7.6345,7.6445,7.6676,7.6737,7.6966,7.7171,7.7279,7.7326,7.7326,7.7326,7.7326,7.7326,7.7326,7.7326,7.7326,7.7326,7.7326,7.7326,7.7326,7.7326,7.7326,7.7326,7.7326,7.7326,7.7326,7.7326,7.7326,7.7326,7.7326,7.7326,7.7326,7.7623,7.8253,7.7878,7.7909,7.8507,7.8108,7.7546,7.7129,7.6573,7.6286,7.623,7.5768,7.5509,7.5453,7.5934,7.6008,7.5587,7.5828,7.6376,7.7053,7.7037,7.7093,7.7252,7.7326,7.7326,7.7326,7.7326,7.7326,7.7326,7.7326,7.7326,7.7326,7.7326,7.7326,7.7326,7.7326,7.7326,7.7326,7.7289,7.7215,7.6848,7.646,7.613,7.5873,7.4698,7.3428,7.2936,7.2936,7.367,7.4698,7.5322,7.5763,7.6251,7.7433,7.7977,7.7055,7.6473,7.615,7.5921,7.3543,7.1947,7.1289,7.1137,7.1565,7.1612,7.1764,7.2147,7.3437,7.3849,7.4134,7.4945,7.5641,7.565,7.5549,7.5557,7.5591,7.5666,7.5682,7.5723,7.7174,7.6858,7.647,7.6292,7.6292,7.6292,7.6445,7.666,7.6773,7.6929,7.7171,7.7279,7.7326,7.7326,7.7326,7.7472,7.7656,7.7472,7.7326,7.7326,7.7326,7.7326,7.7326,7.7326,7.7326,7.7326,7.7326,7.7326,7.7326,7.7326,7.7472,7.7729,7.7729,7.7876,7.8023,7.7876,7.81,7.8486,7.7913,7.7937,7.8677,7.8094,7.7799,7.7954,7.7282,7.6877,7.6921,7.6448,7.6167,7.6197,7.6626,7.6735,7.6383,7.6682,7.7178,7.7643,7.7644,7.7465,7.732,7.7326,7.7326,7.7326,7.7326,7.7326,7.7326,7.7326,7.7326,7.7326,7.7326,7.7326,7.7326,7.7326,7.7326,7.7326,7.7326,7.7326,7.7289,7.6812,7.6423,7.6056,7.5249,7.4221,7.3523,7.3817,7.4441,7.5197,7.5799,7.613,7.6647,7.7778,7.8628,7.7899,7.7642,7.7062,7.6341,7.4439,7.2605,7.1794,7.0907,7.1068,7.1259,7.1412,7.2062,7.3399,7.4087,7.4257,7.4771,7.5582,7.5787,7.5739,7.5649,7.5674,7.5731,7.5771,7.581,7.7693,7.736,7.6637,7.6364,7.6328,7.6309,7.6492,7.6753,7.6801,7.6993,7.7279,7.7326,7.7326,7.7326,7.7326,7.7729,7.8133,7.7693,7.7436,7.7436,7.7436,7.7362,7.7326,7.7509,7.7582,7.7582,7.7436,7.7399,7.7509,7.7619,7.7913,7.8479,7.8589,7.8883,7.9706,7.8956,7.8626,7.8641,7.8054,7.8005,7.8569,7.8036,7.7962,7.8547,7.7889,7.7506,7.7605,7.7607,7.7496,7.7451,7.7495,7.7732,7.7831,7.7965,7.809,7.8035,7.8086,7.784,7.7381,7.7326,7.7326,7.7326,7.7326,7.7326,7.7326,7.7326,7.7326,7.7326,7.7326,7.7326,7.7326,7.7326,7.7326,7.7326,7.7326,7.7326,7.7289,7.7252,7.6959,7.6203,7.5726,7.5652,7.5087,7.483,7.5197,7.5763,7.6166,7.646,7.708,7.814,7.8454,7.8222,7.8272,7.8148,7.6809,7.5356,7.3866,7.2529,7.1527,7.1098,7.1298,7.1527,7.2367,7.359,7.4469,7.4715,7.5549,7.6293,7.6544,7.6487,7.6213,7.5993,7.6087,7.6171,7.5925,7.8065,7.7507,7.7253,7.6799,7.6364,7.6445,7.6627,7.6801,7.6929,7.7103,7.7258,7.7326,7.7326,7.7326,7.7326,7.7472,7.7693,7.7986,7.8185,7.8185,7.8185,7.7876,7.7619,7.8479,7.9029,7.9029,7.9029,7.8993,7.8993,7.8956,7.9176,7.9412,7.9449,7.9559,7.9853,7.9559,7.9653,8.0094,7.9433,7.9465,8.0157,7.9465,7.8914,7.8688,7.8877,7.884,7.8299,7.7742,7.7448,7.7439,7.7402,7.7599,7.8021,7.8432,7.8458,7.8146,7.809,7.7883,7.7396,7.7326,7.7326,7.7326,7.7326,7.7326,7.7326,7.7326,7.7326,7.7326,7.7326,7.7326,7.7326,7.7326,7.7289,7.7289,7.7326,7.7326,7.7252,7.6848,7.6151,7.5454,7.527,7.5124,7.5124,7.5307,7.5836,7.613,7.657,7.7032,7.7361,7.8214,7.8816,7.8638,7.898,7.9121,7.7993,7.6885,7.5662,7.4172,7.2941,7.1756,7.1794,7.1909,7.2788,7.3913,7.4754,7.56,7.6433,7.6982,7.7347,7.7374,7.7153,7.6978,7.6847,7.6677,7.6531,7.8666,7.7977,7.7941,7.747,7.6852,7.7274,7.7387,7.7348,7.7781,7.7736,7.7405,7.7656,7.7766,7.7766,7.7766,7.7949,7.8259,7.8809,7.9029,7.9029,7.9029,7.8736,7.8369,7.9213,7.9816,7.9816,7.9816,7.9816,7.9816,7.9816,7.9963,8.022,8.0257,8.044,8.0571,8.0404,8.0534,8.0828,8.0183,8.0167,8.0608,7.991,7.9265,7.9119,7.9265,7.9103,7.8589,7.8332,7.806,7.7828,7.7686,7.7869,7.8376,7.869,7.8652,7.8228,7.8049,7.786,7.7396,7.7326,7.7326,7.7326,7.7326,7.7326,7.7326,7.7326,7.7326,7.7326,7.7326,7.7326,7.7326,7.7326,7.7381,7.7599,7.7426,7.7304,7.72,7.6848,7.6445,7.6041,7.5894,7.5784,7.5931,7.6151,7.6555,7.6628,7.6959,7.7326,7.751,7.8228,7.8627,7.9083,7.9505,7.9476,7.9236,7.8375,7.742,7.5997,7.4622,7.3399,7.2711,7.2673,7.314,7.492,7.6046,7.7003,7.7798,7.8292,7.864,7.8406,7.8016,7.7854,7.7654,7.7469,7.7361,7.9571,7.8883,7.8774,7.8303,7.7722,7.8509,7.8515,7.8264,7.8951,7.8656,7.7851,7.8353,7.8647,7.8647,7.8647,7.8993,7.9669,7.98,7.9853,7.989,7.9963,7.9963,8.0,8.0036,8.0073,8.0147,8.022,8.022,8.044,8.0404,8.0388,8.1158,8.1195,8.1489,8.1856,8.1452,8.1158,8.1232,8.0498,8.0514,8.1048,7.9727,7.9103,7.9706,7.925,7.8956,7.8883,7.936,7.9391,7.8728,7.8393,7.8512,7.8804,7.8915,7.8754,7.8173,7.809,7.786,7.7465,7.7441,7.7465,7.7555,7.748,7.7335,7.7426,7.7365,7.7326,7.7326,7.7326,7.7326,7.7326,7.7396,7.7614,7.7917,7.768,7.7435,7.7365,7.7313,7.7069,7.7142,7.7252,7.7252,7.7069,7.7142,7.7179,7.7215,7.7252,7.7289,7.751,7.8063,7.8716,7.9198,7.9695,7.9915,7.9713,7.9522,7.8605,7.7687,7.6456,7.5501,7.4287,7.4095,7.4045,7.574,7.688,7.7968,7.8763,7.901,7.9143,7.8907,7.8646,7.8592,7.8446,7.8253,7.7984,8.1201,8.044,7.9861,7.9136,7.8466,7.8836,7.8937,7.8803,7.9267,7.9276,7.8857,7.9265,7.9407,7.9311,7.9422,7.9633,7.9926,8.0461,8.0681,8.0791,8.1342,8.1525,8.1415,8.0975,8.1048,8.1562,8.2039,8.2443,8.2443,8.2333,8.2517,8.272,8.2223,8.2333,8.2847,8.2296,8.226,8.2574,8.1966,8.1652,8.1709,8.0938,8.0167,7.9816,8.0167,8.0057,7.9669,8.0241,8.0198,7.9259,7.9447,7.9315,7.9016,7.9232,7.9015,7.8289,7.8123,7.8095,7.7926,7.7891,7.8081,7.8403,7.8071,7.7889,7.786,7.751,7.7335,7.7326,7.7326,7.7326,7.7365,7.7651,7.7946,7.8044,7.7917,7.7803,7.7753,7.754,7.7326,7.7326,7.7326,7.7326,7.7326,7.7326,7.7326,7.7326,7.7326,7.7289,7.751,7.8159,7.8891,7.9204,7.9632,8.0085,8.0286,8.0248,7.9827,7.9101,7.8375,7.7946,7.6847,7.6159,7.6126,7.6714,7.682,7.7632,7.8473,7.902,7.91,7.9354,7.9477,7.9438,7.9208,7.8977,7.8554,8.2143,8.1111,8.0947,8.0259,7.9352,7.978,7.9812,7.9645,8.01,7.9941,7.9612,7.9958,8.0149,8.0149,8.0282,8.0314,8.0424,8.1489,8.1636,8.1179,8.215,8.2627,8.2663,8.2443,8.2774,8.3177,8.3691,8.3875,8.3858,8.3911,8.3911,8.3838,8.3434,8.3471,8.3838,8.3508,8.3398,8.3765,8.3434,8.3214,8.3141,8.2443,8.1636,8.1122,8.1599,8.1856,8.1872,8.2296,8.1865,8.0724,8.0315,7.9943,7.9211,7.9342,7.9162,7.8358,7.8322,7.8433,7.8743,7.8817,7.894,7.9094,7.8718,7.838,7.8175,7.7707,7.7326,7.7326,7.7326,7.7426,7.768,7.8104,7.8282,7.8132,7.809,7.8016,7.7826,7.7465,7.732,7.7326,7.7326,7.7326,7.7326,7.7326,7.7326,7.7326,7.7326,7.7326,7.7426,7.8282,7.8928,7.9168,7.9697,8.022,8.043,8.0401,8.0362,7.9789,7.954,7.9302,7.8508,7.7638,7.7364,7.7156,7.7083,7.7341,7.8359,7.9276,7.9738,8.0008,8.02,8.0285,8.0054,7.9477,7.9092,8.2758,8.1527,8.2143,8.1527,8.0439,8.1069,8.0977,8.0539,8.1075,8.0706,7.9904,8.035,8.0538,8.0808,8.067,8.0971,8.1179,8.2504,8.2471,8.2394,8.2994,8.3765,8.3838,8.4022,8.4205,8.4389,8.4609,8.4719,8.4719,8.4719,8.4719,8.4646,8.4572,8.4609,8.4609,8.4572,8.4609,8.4682,8.4462,8.4315,8.4168,8.3528,8.2774,8.2406,8.272,8.3491,8.3985,8.4312,8.3622,8.2001,8.1236,8.0497,7.9716,7.9493,7.923,7.8894,7.8845,7.9081,7.9679,7.9765,7.9897,7.9859,7.9304,7.8808,7.8768,7.8162,7.7582,7.7619,7.7362,7.754,7.7974,7.8484,7.8495,7.8187,7.809,7.7869,7.7472,7.7326,7.7326,7.7326,7.7326,7.7326,7.7326,7.7326,7.7326,7.7326,7.7326,7.7326,7.7555,7.8268,7.8728,7.8952,7.9605,8.0411,8.0506,8.0506,8.0477,8.0286,8.0237,7.995,7.9118,7.8388,7.8054,7.7815,7.7673,7.8014,7.8838,7.9615,8.0108,8.0431,8.0439,8.0746,8.09,8.0015,7.9438,8.4262,8.3881,8.341,8.2668,8.1907,8.2015,8.1671,8.0946,8.1285,8.0803,8.0007,8.0388,8.026,7.9641,8.0505,8.118,8.192,8.2954,8.3386,8.4078,8.4792,8.5233,8.5159,8.4976,8.4682,8.4829,8.5306,8.5527,8.5527,8.5527,8.5527,8.549,8.5086,8.4939,8.5416,8.5049,8.4939,8.5306,8.4976,8.4756,8.4646,8.4042,8.3528,8.3308,8.3418,8.3858,8.4425,8.4609,8.4088,8.3233,8.2634,8.18,8.059,8.0271,8.0045,7.9694,7.9575,7.9799,8.0304,8.0556,8.064,8.0972,8.0485,8.0177,8.0096,7.902,7.84,7.8185,7.7745,7.765,7.796,7.8159,7.8187,7.8077,7.8044,7.7883,7.7457,7.7326,7.7326,7.7326,7.7326,7.7326,7.7326,7.7326,7.7326,7.7326,7.7326,7.7326,7.7724,7.8268,7.8614,7.8903,7.973,8.0487,8.0506,8.0515,8.0525,8.0543,8.0532,8.0567,7.9734,7.9183,7.8824,7.8513,7.8252,7.8715,7.9238,7.9492,7.9883,8.0276,8.0638,8.0829,8.0767,8.0145,7.9854,8.5059,8.4604,8.3721,8.3183,8.2811,8.2389,8.1974,8.1708,8.1687,8.1102,8.0262,8.0367,8.0217,7.9957,8.0566,8.1452,8.2649,8.3517,8.4599,8.5439,8.5894,8.5967,8.6297,8.6004,8.573,8.5783,8.6151,8.6371,8.6371,8.6334,8.6371,8.6371,8.5894,8.6004,8.6297,8.593,8.6004,8.6224,8.5967,8.5747,8.5637,8.5326,8.5069,8.4959,8.4792,8.4903,8.5673,8.5747,8.5306,8.4619,8.3982,8.2843,8.1197,8.079,8.0628,8.0446,8.0367,8.0865,8.1415,8.1746,8.1997,8.2405,8.1736,8.1297,8.0881,7.9931,7.904,7.8626,7.8201,7.795,7.7769,7.803,7.8002,7.7768,7.7739,7.7599,7.7381,7.7326,7.7326,7.7326,7.7326,7.7326,7.7326,7.7326,7.7326,7.7326,7.7326,7.7304,7.7599,7.8118,7.8639,7.9109,7.9899,8.043,8.0497,8.0525,8.0543,8.0532,8.0578,8.0676,8.0447,7.9969,7.9565,7.9199,7.8826,7.8877,7.9269,7.9507,7.9727,8.0192,8.0519,8.0716,8.0583,8.0095,7.9907,8.5511,8.4784,8.3809,8.335,8.3165,8.2398,8.1806,8.1534,8.1731,8.076,8.0097,7.9944,7.9952,8.0263,8.0617,8.1743,8.3296,8.437,8.549,8.6557,8.6297,8.6444,8.6775,8.6794,8.6757,8.6978,8.6904,8.6904,8.6904,8.6978,8.6848,8.6978,8.7124,8.6958,8.6978,8.7308,8.7161,8.6904,8.6978,8.6921,8.6831,8.6757,8.6684,8.6537,8.6224,8.6151,8.6611,8.6721,8.6518,8.582,8.5159,8.3691,8.2186,8.1232,8.1195,8.1195,8.1195,8.1618,8.228,8.2757,8.3063,8.3688,8.2743,8.2072,8.1726,8.0825,7.9879,7.9286,7.8898,7.8458,7.7681,7.7954,7.7902,7.7524,7.7304,7.7326,7.7326,7.7326,7.7326,7.7326,7.7326,7.7326,7.7326,7.7326,7.7326,7.7326,7.7326,7.7365,7.7629,7.7974,7.8471,7.9013,7.9741,8.0129,8.0179,8.0333,8.0354,8.0343,8.0421,8.0543,8.0652,8.0182,7.9715,7.9695,7.9459,7.9424,7.934,7.9482,7.982,8.0192,8.0325,8.0344,8.0225,7.9979,8.001,8.5837,8.5635,8.4617,8.3497,8.2406,8.1979,8.088,7.9305,7.9978,7.9192,7.8278,7.882,7.9067,7.9076,8.0119,8.1909,8.3868,8.502,8.5991,8.6891,8.6811,8.6978,8.6941,8.7271,8.7161,8.7014,8.7124,8.7198,8.7014,8.7014,8.7124,8.7161,8.7675,8.7766,8.7675,8.8115,8.8189,8.7528,8.7711,8.7729,8.7344,8.7234,8.7161,8.7161,8.6995,8.7051,8.7014,8.7014,8.6628,8.5857,8.5673,8.4976,8.3875,8.27,8.2186,8.2113,8.2113,8.2406,8.2771,8.2941,8.3054,8.3111,8.303,8.2927,8.2579,8.1658,8.0855,8.0351,7.98,7.9213,7.8479,7.8517,7.8103,7.7635,7.7399,7.7362,7.7326,7.7326,7.7326,7.7326,7.7326,7.7326,7.7326,7.7326,7.7326,7.7326,7.7326,7.7326,7.7441,7.7854,7.8336,7.8854,7.9415,7.9665,7.9783,7.9988,8.0096,7.9979,8.0022,8.0189,8.0186,7.9933,7.9692,7.9627,7.9628,7.9608,7.9612,7.9568,7.9581,7.9788,7.9878,7.993,7.9884,7.9848,8.0153,8.5909,8.574,8.4308,8.3555,8.3111,8.2107,8.1167,8.0306,8.0416,7.9905,7.9205,7.9223,7.943,7.9544,8.0096,8.199,8.4094,8.5328,8.6156,8.6892,8.7399,8.7362,8.7234,8.7748,8.7895,8.7895,8.7986,8.7675,8.7124,8.7472,8.7582,8.7802,8.8426,8.8592,8.8445,8.8923,8.8959,8.8409,8.8556,8.8629,8.8225,8.8189,8.8042,8.7802,8.8005,8.8225,8.8152,8.7748,8.7509,8.6995,8.6241,8.569,8.5013,8.4242,8.3434,8.3434,8.3398,8.3541,8.3762,8.4174,8.453,8.5105,8.4628,8.4449,8.419,8.334,8.1941,8.1101,8.033,7.9669,7.9229,7.9265,7.8809,7.8185,7.7949,7.7766,7.7472,7.7362,7.7399,7.7436,7.7436,7.7436,7.7326,7.7326,7.7326,7.7326,7.7326,7.7326,7.7326,7.7666,7.8169,7.876,7.9288,7.9712,7.9929,8.0129,8.0133,7.996,7.9987,8.013,8.0075,7.9999,7.9683,7.9407,7.9509,7.952,7.955,7.9447,7.9437,7.9338,7.9372,7.9426,7.9594,7.9792,8.0105,8.5909,8.574,8.4002,8.3621,8.383,8.2335,8.1459,8.1312,8.1042,8.0453,7.9913,7.9827,8.0086,8.0567,8.1216,8.2475,8.462,8.5483,8.6156,8.6966,8.7509,8.7509,8.7565,8.8189,8.8666,8.8243,8.8812,8.8629,8.7748,8.8078,8.828,8.8463,8.9069,8.951,8.94,8.9803,8.9693,8.9473,8.962,8.962,8.9436,8.9363,8.8996,8.839,8.8959,8.9179,8.8519,8.8316,8.7949,8.7472,8.6811,8.604,8.593,8.5416,8.5086,8.5049,8.4829,8.4887,8.5028,8.5259,8.546,8.6049,8.5763,8.5742,8.5402,8.4176,8.2949,8.1928,8.117,8.073,8.0692,8.0388,7.9832,7.9082,7.8772,7.8589,7.8038,7.7839,7.7949,7.7876,7.7729,7.7619,7.7546,7.7326,7.7326,7.7326,7.7326,7.7326,7.732,7.751,7.7963,7.8623,7.9199,7.9804,8.0151,8.0517,8.0481,8.0276,8.0452,8.068,8.0505,8.028,7.9867,7.9429,7.9077,7.9114,7.9222,7.9222,7.8991,7.8854,7.8854,7.8991,7.9239,7.9654,8.0066,8.5909,8.5797,8.4676,8.3942,8.335,8.2171,8.088,7.9868,7.9741,7.9211,7.9205,7.9693,8.0295,8.1009,8.2237,8.3776,8.5098,8.5635,8.6156,8.6964,8.7288,8.7288,8.7124,8.7876,8.85,8.8536,8.9106,8.8867,8.8536,8.8959,8.8886,8.8793,8.9711,9.017,8.9877,9.0665,9.0739,8.9803,9.0134,9.0134,8.9583,8.951,8.9106,8.8793,8.9014,8.9069,8.8299,8.828,8.8169,8.7325,8.7068,8.6848,8.6848,8.6794,8.6721,8.628,8.5563,8.4642,8.4968,8.5361,8.5698,8.6138,8.5684,8.5483,8.5272,8.468,8.3942,8.5012,8.3677,8.2743,8.2428,8.216,8.1218,8.0351,7.98,7.9323,7.8736,7.8589,7.8699,7.8699,7.8626,7.8185,7.7876,7.7546,7.7326,7.7326,7.7326,7.7326,7.743,7.7664,7.8308,7.9131,7.9516,8.0031,8.0452,8.0788,8.0905,8.0707,8.1102,8.131,8.1,8.0691,7.9932,7.9471,7.913,7.8734,7.8699,7.862,7.8431,7.8444,7.8541,7.8751,7.8979,7.9441,8.001,8.5909,8.5797,8.4832,8.4217,8.3824,8.2848,8.1736,8.081,8.0532,8.0229,8.0,8.071,8.1621,8.2559,8.3571,8.4498,8.5502,8.5711,8.6174,8.6985,8.7344,8.7418,8.7435,8.8225,8.8886,8.9069,8.9601,9.0041,8.9748,8.9821,8.9858,8.9784,9.0629,9.1179,9.0629,9.14,9.1363,9.1033,9.1069,9.0849,9.0445,9.0445,9.0335,8.9638,9.0298,8.9895,8.9307,8.9271,8.8867,8.8023,8.7692,8.7692,8.7545,8.7344,8.7271,8.8225,8.6867,8.6077,8.6055,8.616,8.6343,8.6587,8.6439,8.6164,8.5673,8.5169,8.4636,8.4857,8.4477,8.4085,8.3999,8.3725,8.2672,8.1746,8.1085,8.0351,7.98,7.9596,7.9559,7.9559,7.9622,7.9431,7.9072,7.856,7.8293,7.8023,7.7803,7.7546,7.7693,7.7938,7.881,7.9914,8.0165,8.0394,8.0749,8.1117,8.1419,8.1486,8.213,8.215,8.166,8.112,8.0482,7.9851,7.9432,7.9009,7.8513,7.8318,7.8359,7.8332,7.8304,7.8631,7.8941,7.9482,8.0037,8.5909,8.5816,8.5087,8.4772,8.4655,8.377,8.2976,8.2324,8.2003,8.1698,8.1591,8.2141,8.3165,8.4142,8.4498,8.5035,8.586,8.5878,8.6247,8.6917,8.7369,8.7461,8.7663,8.8578,8.9402,8.9622,9.0501,9.0812,9.0886,9.0886,9.0776,9.0665,9.1216,9.162,9.173,9.1767,9.1657,9.1657,9.1657,9.14,9.1106,9.14,9.1179,9.1033,9.1179,9.1253,9.0262,9.0445,8.9748,8.8463,8.8133,8.8096,8.8023,8.7729,8.7601,8.8262,8.7565,8.7308,8.6978,8.6877,8.7265,8.7345,8.7394,8.6705,8.6517,8.6217,8.6375,8.6279,8.545,8.536,8.5258,8.514,8.4112,8.3251,8.2553,8.1709,8.1128,8.1276,8.1283,8.1286,8.1392,8.1504,8.0978,8.0043,7.944,7.8945,7.8442,7.7949,7.8206,7.8662,7.9535,8.0733,8.1244,8.14,8.1592,8.1859,8.2001,8.2238,8.2861,8.298,8.2474,8.1931,8.1337,8.0668,8.0036,7.9442,7.907,7.8662,7.8304,7.8345,7.8441,7.8647,7.9004,7.9638,8.0517,8.5909,8.5909,8.5797,8.5759,8.5646,8.4716,8.4252,8.3897,8.3196,8.3011,8.309,8.3527,8.4121,8.4856,8.517,8.5557,8.632,8.6338,8.6392,8.6465,8.6575,8.7103,8.7669,8.8563,8.9514,9.021,9.085,9.1363,9.1657,9.1492,9.1161,9.0849,9.1473,9.1693,9.1803,9.1803,9.1803,9.1803,9.1803,9.1803,9.162,9.1657,9.14,9.1033,9.1179,9.0812,8.8683,8.9968,9.0041,8.85,8.8536,8.8536,8.861,8.828,8.8225,8.8409,8.8702,8.8335,8.7858,8.7344,8.7049,8.7083,8.7112,8.7241,8.7322,8.6935,8.7406,8.8309,8.7116,8.6742,8.6674,8.6416,8.5294,8.4566,8.388,8.3328,8.3055,8.3529,8.3477,8.3216,8.3132,8.32,8.2916,8.1981,8.0704,8.0124,7.9391,7.8883,7.9507,8.0,8.0593,8.1523,8.2314,8.2643,8.2823,8.3046,8.3454,8.3343,8.3485,8.3552,8.3292,8.2749,8.208,8.1709,8.1077,8.0334,7.9614,7.933,7.8987,7.8614,7.8666,7.9216,8.0014,8.0843,8.1824,8.5909,8.5909,8.5909,8.5909,8.5854,8.5492,8.4952,8.4396,8.4023,8.3918,8.4023,8.4293,8.4876,8.5519,8.5858,8.6026,8.6356,8.6374,8.6411,8.6593,8.6885,8.7286,8.7906,8.8545,8.9312,9.0116,9.0703,9.1217,9.1546,9.1712,9.1693,9.1546,9.1657,9.173,9.1803,9.1803,9.1803,9.1803,9.1803,9.1803,9.1803,9.1803,9.1657,9.1473,9.151,9.1106,9.0115,9.0776,9.0225,8.9528,8.9454,8.9491,8.9417,8.9143,8.9143,8.9344,8.9657,8.9253,8.8923,8.8225,8.7545,8.7135,8.7311,8.7651,8.7997,8.7877,8.8227,8.8495,8.8244,8.7742,8.7554,8.7041,8.6241,8.5645,8.5181,8.4759,8.4864,8.5297,8.5269,8.4843,8.4772,8.4765,8.4414,8.3985,8.2584,8.1281,8.049,8.0073,8.0771,8.1454,8.2118,8.2822,8.3675,8.428,8.4473,8.4746,8.4979,8.4582,8.4205,8.4183,8.4072,8.3343,8.2749,8.2452,8.2117,8.1374,8.0705,8.0148,7.9735,7.944,7.9689,8.0225,8.11,8.2158,8.3066,8.5909,8.5945,8.6126,8.6235,8.6235,8.6235,8.5836,8.5255,8.5211,8.5031,8.4852,8.5015,8.5384,8.5951,8.6155,8.6192,8.6301,8.6465,8.6592,8.6901,8.7319,8.7866,8.8322,8.8871,8.9675,9.0185,9.0629,9.1162,9.1509,9.1675,9.1712,9.173,9.1803,9.1803,9.1803,9.1803,9.1803,9.1803,9.1803,9.1803,9.1803,9.1803,9.1803,9.173,9.1767,9.1326,9.0886,9.1106,9.0959,9.0354,9.0188,9.0482,9.0372,9.0262,9.0335,9.0519,9.0665,9.0262,8.9877,8.9344,8.8059,8.7284,8.7891,8.8127,8.8339,8.8758,8.9131,8.9377,8.8849,8.8405,8.8383,8.7956,8.7556,8.7059,8.6645,8.6333,8.6447,8.6756,8.6596,8.6353,8.648,8.6729,8.6127,8.5675,8.438,8.3179,8.2592,8.2215,8.246,8.312,8.3709,8.4454,8.5246,8.5831,8.6311,8.6125,8.5933,8.5512,8.5199,8.5083,8.4778,8.4161,8.3715,8.3492,8.3046,8.2377,8.1921,8.1564,8.0949,8.0318,8.0944,8.1788,8.2995,8.4002,8.4349,8.5909,8.5982,8.6651,8.694,8.6904,8.6977,8.6902,8.6678,8.6697,8.6372,8.5865,8.5887,8.5887,8.6019,8.6149,8.6204,8.6349,8.6782,8.7053,8.729,8.7944,8.8612,8.9202,8.9738,9.0181,9.0855,9.1231,9.1418,9.1453,9.1712,9.1785,9.1803,9.1803,9.1803,9.1803,9.1803,9.1803,9.1803,9.1803,9.1803,9.195,9.1913,9.1803,9.2024,9.184,9.1436,9.1179,9.1436,9.1289,9.0831,9.0702,9.0849,9.0739,9.0702,9.0464,8.995,9.1106,9.0849,8.9693,8.9454,8.8862,8.795,8.8742,8.9197,8.91,8.9413,8.9975,9.033,8.9814,8.9541,8.9363,8.9036,8.8603,8.8302,8.7862,8.7681,8.7805,8.8205,8.8089,8.7743,8.8378,8.8829,8.8107,8.7297,8.6087,8.5145,8.4653,8.4424,8.4306,8.4652,8.5259,8.6391,8.7168,8.7759,8.807,8.7281,8.6841,8.6438,8.638,8.6542,8.6226,8.5669,8.5186,8.4703,8.4287,8.3871,8.347,8.3036,8.2982,8.3073,8.2981,8.3705,8.491,8.5761,8.6085,8.5909,8.5982,8.6687,8.7013,8.7085,8.7592,8.752,8.7049,8.6977,8.6868,8.6687,8.6614,8.6614,8.6634,8.667,8.6706,8.6815,8.7411,8.7809,8.7918,8.8626,8.9122,8.9693,9.0243,9.0684,9.098,9.1358,9.1527,9.132,9.1638,9.1785,9.1803,9.1803,9.1803,9.1803,9.1803,9.1803,9.1803,9.184,9.2024,9.2501,9.217,9.2097,9.2537,9.2134,9.1693,9.1363,9.1693,9.1583,9.1326,9.1289,9.1289,9.1326,9.1326,9.1216,9.0959,9.173,9.1289,9.079,9.0799,9.0879,9.0163,8.9979,9.0676,9.0987,9.0993,9.125,9.1027,9.0312,8.9937,8.9553,8.909,8.8752,8.8808,8.8555,8.8519,8.872,8.947,8.9681,8.9071,8.9235,8.8988,8.8485,8.8624,8.7738,8.6824,8.6273,8.5846,8.5669,8.6108,8.6669,8.82,8.9238,8.979,8.9915,8.9192,8.8776,8.8621,8.8548,8.8623,8.8121,8.7341,8.6932,8.6561,8.599,8.5433,8.5278,8.531,8.5959,8.6164,8.5913,8.5953,8.6888,8.7547,8.7786,8.6054,8.6344,8.7085,8.7592,8.7901,8.8408,8.8191,8.7447,8.7158,8.7013,8.6977,8.7032,8.7194,8.7339,8.7447,8.7467,8.752,8.8244,8.8606,8.8734,8.9459,8.9863,9.0216,9.0587,9.0808,9.1014,9.1263,9.1433,9.1377,9.1657,9.1785,9.1803,9.1803,9.1803,9.1877,9.2024,9.2097,9.206,9.2097,9.2537,9.2758,9.2684,9.2574,9.2758,9.2574,9.2134,9.1877,9.1803,9.1803,9.1803,9.1803,9.1803,9.1803,9.1803,9.1803,9.1803,9.173,9.1599,9.1749,9.199,9.2098,9.2129,9.2086,9.2054,9.2177,9.1762,9.1697,9.1364,9.0635,9.0262,8.9958,8.9452,8.9414,8.9465,8.9528,8.9476,8.9885,9.0601,9.0693,9.0114,8.9742,8.9332,8.911,8.9392,8.9417,8.8605,8.782,8.7444,8.7061,8.7459,8.819,8.9711,9.0688,9.1025,9.1272,9.113,9.0855,9.0773,9.0466,9.0127,8.9756,8.8938,8.8678,8.8397,8.7842,8.7436,8.7419,8.7627,8.8167,8.8573,8.8634,8.8811,8.9154,8.9026,8.8949,8.6344,8.7085,8.7846,8.8461,8.9096,8.906,8.8807,8.8135,8.7375,8.7085,8.7085,8.7141,8.7503,8.8099,8.8135,8.8099,8.828,8.9024,8.9277,8.9567,9.011,9.0404,9.0612,9.0822,9.0956,9.1072,9.1301,9.1546,9.149,9.1694,9.1803,9.1803,9.1803,9.1803,9.2024,9.2537,9.2574,9.2464,9.2794,9.3235,9.3529,9.3272,9.3235,9.3235,9.3015,9.2464,9.2097,9.1803,9.1803,9.1803,9.1803,9.1803,9.1803,9.1803,9.1803,9.1822,9.1822,9.2192,9.2512,9.2802,9.347,9.3687,9.3693,9.3125,9.2717,9.26,9.2477,9.2083,9.143,9.0977,9.058,9.0471,9.0362,9.0411,9.0498,9.0726,9.1081,9.1347,9.1308,9.1052,9.0812,9.0506,9.0409,9.0579,9.0378,9.0078,8.9356,8.8983,8.8673,8.8698,8.9591,9.1121,9.1901,9.2035,9.2192,9.2204,9.1963,9.1593,9.1264,9.0917,9.0689,9.0483,9.0058,8.9719,8.9547,8.9405,8.9541,8.9849,9.0337,9.0656,9.0817,9.0373,9.0287,8.9633,8.9479,8.6795,8.7013,8.7266,8.7158,8.7068,8.8118,8.8389,8.8171,8.7918,8.7846,8.7809,8.7266,8.7829,8.8915,8.7918,8.8244,8.8807,8.935,8.9785,9.0147,9.0436,9.0645,9.0819,9.0975,9.1072,9.1244,9.1452,9.162,9.1583,9.1712,9.1803,9.1803,9.1803,9.1803,9.2281,9.3198,9.3051,9.3161,9.3565,9.4079,9.4373,9.4189,9.4079,9.3896,9.3418,9.2794,9.2134,9.184,9.1803,9.1803,9.1803,9.1803,9.1803,9.1803,9.1822,9.1876,9.2159,9.2636,9.2917,9.3657,9.4349,9.4743,9.4776,9.499,9.4536,9.3921,9.3497,9.2962,9.216,9.1663,9.1281,9.1128,9.0937,9.0861,9.1013,9.1319,9.1701,9.2007,9.1969,9.1778,9.1548,9.1435,9.1375,9.1069,9.089,9.0963,9.0825,9.043,9.0132,9.0082,9.0483,9.2024,9.2532,9.2521,9.2794,9.2833,9.2617,9.2359,9.1936,9.1726,9.1796,9.159,9.1256,9.1083,9.1036,9.1345,9.1751,9.2046,9.2172,9.2535,9.2695,9.1991,9.1325,9.0825,9.0517,8.7665,8.7901,8.7592,8.7194,8.7013,8.7809,8.8208,8.8208,8.8208,8.8063,8.7737,8.7556,8.8191,8.9169,8.8843,8.906,8.9821,8.9929,9.0183,9.04,9.0618,9.0641,9.0819,9.0995,9.1091,9.1265,9.149,9.1657,9.1638,9.1712,9.1803,9.1803,9.1803,9.1803,9.217,9.2941,9.3602,9.3859,9.4336,9.496,9.5107,9.507,9.4887,9.4593,9.3932,9.3161,9.2354,9.2097,9.184,9.1803,9.1803,9.1803,9.1803,9.1803,9.2055,9.2178,9.2505,9.3088,9.3627,9.4239,9.473,9.5081,9.5379,9.5444,9.5232,9.4659,9.4365,9.3945,9.3038,9.2274,9.1969,9.1663,9.1395,9.1128,9.1395,9.1701,9.216,9.2618,9.258,9.2389,9.2259,9.2133,9.1926,9.1593,9.1353,9.1375,9.1484,9.1461,9.1194,9.1066,9.1355,9.2258,9.2623,9.2793,9.3012,9.3024,9.2707,9.2454,9.235,9.23,9.2606,9.2534,9.2038,9.227,9.2636,9.2835,9.2945,9.3558,9.3821,9.4022,9.382,9.311,9.259,9.2423,9.2192,8.8642,8.9133,8.8461,8.7954,8.8099,8.8027,8.799,8.8063,8.799,8.7773,8.7375,8.7701,8.8336,8.9169,8.9277,8.9748,9.0147,9.0255,9.0255,9.0581,9.0618,9.0641,9.074,9.0839,9.111,9.1263,9.1452,9.1694,9.1767,9.1803,9.1803,9.1803,9.1803,9.1803,9.1987,9.2794,9.3529,9.4189,9.4813,9.5474,9.5621,9.5621,9.5547,9.5327,9.4703,9.3969,9.3125,9.2464,9.184,9.184,9.1803,9.1803,9.1803,9.1983,9.2299,9.2703,9.303,9.3627,9.4215,9.4718,9.5081,9.5379,9.5598,9.5609,9.5369,9.514,9.4872,9.4632,9.3764,9.3306,9.3,9.216,9.1625,9.1778,9.2083,9.2351,9.2656,9.3077,9.3344,9.3137,9.2905,9.2752,9.2452,9.2126,9.1795,9.1796,9.188,9.2035,9.2056,9.1898,9.2084,9.2451,9.2583,9.2661,9.2508,9.2505,9.2439,9.2355,9.2355,9.2424,9.2473,9.2616,9.2763,9.311,9.3477,9.3655,9.3867,9.4449,9.4686,9.4417,9.4215,9.3898,9.3717,9.3725,9.3405,8.8879,8.8389,8.7628,8.7266,8.7266,8.7302,8.6977,8.6525,8.7049,8.752,8.7665,8.7104,8.7648,8.9241,8.8626,8.906,9.0328,9.0219,9.0147,9.0436,9.0618,9.0641,9.0819,9.0995,9.1206,9.1433,9.162,9.1712,9.1767,9.1785,9.1803,9.1803,9.1803,9.1803,9.184,9.2648,9.3382,9.4153,9.4923,9.5694,9.6135,9.6245,9.6208,9.5712,9.5107,9.441,9.3639,9.2941,9.2354,9.1987,9.184,9.1803,9.1822,9.2264,9.2623,9.2917,9.3784,9.4394,9.4793,9.5143,9.5391,9.5509,9.5609,9.5609,9.5522,9.5407,9.5216,9.4987,9.472,9.4327,9.3792,9.2847,9.2121,9.2504,9.2809,9.3,9.318,9.3579,9.3999,9.3842,9.3581,9.3264,9.2932,9.2636,9.2323,9.2226,9.2252,9.236,9.2441,9.2404,9.2279,9.2539,9.2419,9.2439,9.2215,9.2127,9.2127,9.2145,9.2162,9.225,9.2373,9.2703,9.3045,9.3697,9.4131,9.4358,9.4703,9.5289,9.5383,9.4939,9.4863,9.4709,9.4893,9.4973,9.4427,8.9133,8.8662,8.7882,8.7121,8.6597,8.6525,8.6452,8.6416,8.6489,8.694,8.752,8.694,8.7503,8.9205,8.8408,8.8698,9.0292,9.0147,9.0292,9.0509,9.0637,9.0641,9.0839,9.1072,9.111,9.132,9.1564,9.1675,9.1712,9.1767,9.1785,9.173,9.1749,9.1803,9.1877,9.2391,9.2978,9.3712,9.463,9.5437,9.6245,9.6392,9.6539,9.6098,9.5528,9.4923,9.4336,9.3639,9.2868,9.2317,9.206,9.2439,9.2689,9.3179,9.3887,9.4587,9.519,9.5363,9.5561,9.5635,9.5675,9.5637,9.5609,9.5609,9.5609,9.5484,9.5484,9.5293,9.5255,9.4911,9.4681,9.3917,9.3497,9.3612,9.3764,9.3879,9.409,9.4395,9.4515,9.4322,9.3908,9.3346,9.3032,9.2757,9.2491,9.2319,9.2387,9.2459,9.2599,9.2616,9.2565,9.2496,9.2375,9.218,9.202,9.193,9.1912,9.193,9.1984,9.2301,9.2593,9.2954,9.337,9.4108,9.4693,9.506,9.549,9.5787,9.5787,9.5368,9.5466,9.5602,9.5835,9.5877,9.5307,8.9169,8.9277,8.8534,8.7447,8.6235,8.5982,8.6235,8.6651,8.6199,8.6416,8.7158,8.694,8.7829,8.8662,8.9422,8.9893,9.0255,9.0328,9.0509,9.0581,9.0618,9.072,9.0878,9.1033,9.113,9.1206,9.1377,9.149,9.1528,9.162,9.1675,9.1601,9.1694,9.1803,9.1803,9.1913,9.2391,9.3418,9.4263,9.4887,9.5621,9.6318,9.6539,9.6428,9.6098,9.5639,9.5051,9.4281,9.3382,9.2941,9.2573,9.2963,9.3735,9.4313,9.5427,9.6176,9.6386,9.6473,9.652,9.6154,9.5904,9.5675,9.5637,9.5648,9.5648,9.5609,9.5609,9.5598,9.556,9.5446,9.5216,9.4911,9.4567,9.4518,9.4594,9.4659,9.4861,9.4967,9.4781,9.4616,9.4001,9.3349,9.3045,9.2798,9.2589,9.2424,9.2427,9.2513,9.2547,9.2461,9.2409,9.2305,9.2145,9.1984,9.184,9.1822,9.1822,9.184,9.1966,9.2368,9.2835,9.3354,9.3934,9.4551,9.5115,9.5398,9.5549,9.5729,9.5686,9.5757,9.5675,9.5708,9.5719,9.5761,9.5766,8.8227,8.9314,8.8534,8.799,8.752,8.6452,8.5982,8.609,8.6018,8.667,8.7339,8.6651,8.667,8.7592,8.8915,8.964,9.0002,9.0288,9.0505,9.0618,9.0441,9.0701,9.1028,9.114,9.1281,9.1357,9.1357,9.1339,9.1452,9.1546,9.1638,9.1712,9.1749,9.1803,9.1803,9.2024,9.2537,9.3492,9.4244,9.4922,9.6006,9.6556,9.6649,9.6612,9.6575,9.6061,9.5418,9.4593,9.3822,9.3382,9.3387,9.3692,9.4564,9.5638,9.6756,9.7385,9.7564,9.7415,9.7257,9.6898,9.6554,9.5828,9.5789,9.5724,9.5686,9.5609,9.5609,9.5609,9.5598,9.5598,9.5369,9.4911,9.4556,9.5003,9.5221,9.5188,9.5265,9.4882,9.4485,9.4104,9.3545,9.3083,9.2781,9.2522,9.2177,9.2109,9.2198,9.2285,9.2409,9.2303,9.2198,9.2091,9.1966,9.1894,9.1822,9.1822,9.1822,9.1822,9.2001,9.2552,9.3199,9.3949,9.4511,9.4994,9.531,9.5543,9.5681,9.5943,9.5959,9.6003,9.5724,9.5632,9.5719,9.5921,9.6167]}]]